<?xml version="1.0" encoding="UTF-8" standalone="no" ?>
<gpx xmlns="http://www.topografix.com/GPX/1/1" xmlns:xsi="http://www.w3.org/2001/XMLSchema-instance" xsi:schemaLocation="http://www.topografix.com/GPX/1/1 http://www.topografix.com/GPX/1/1/gpx.xsd" version="1.1" creator="VisuGPX - https://www.visugpx.com">
  <metadata>
    <name>Dimanche 23 janvier 2022, seul</name>
    <desc><![CDATA[Heure de départ: 15:52 Heure d'arrivée:17:20 Distance: 16,6 km
Temps déplacement: 01:23 Vitesse moyenne mouv.: 12,01
Cet après -midi j'ai explosé mon record de VTT 2022 : plus de 16 km mais pour réaliser cet exploit, j'ai roulé surtout sur de l'asphalte et en terrain plat (mises à part la grimpette de Villeparois et celle de Colombier)]]></desc>
  </metadata>
  <wpt lat="47.64428" lon="6.18324">
    <ele>224.4</ele>
    <name><![CDATA[0000410]]></name>
    <type><![CDATA[Point de départ]]></type>
  </wpt>
  <wpt lat="47.64431" lon="6.18321">
    <ele>224.3</ele>
    <name><![CDATA[0000411]]></name>
    <desc><![CDATA[<p><br /><h3>Nom: Segment: 1</h3><br />Heure de départ: 01/23/2022 15:52<br/>Heure d'arrivée: 01/23/2022 17:20<br/>Distance: 16,6km (01:28)<br/>Temps déplacement: 01:23<br/>Vitesse moyenne: 11,31 km/h<br/>Vitesse moyenne mouv.: 12 km/h<br/>Vitesse Max.: 40,21 km/h<br/>Altitude minimale: -49 m<br/>Altitude maximale: 274 m<br/>Vitesse de montée: 1041,1 m/h<br/>Vitesse de descente: -814,1 m/h<br/>Gain d'altitude: 741 m<br/>Perte d'altitude: -519 m<br/>Temps de montée: 00:42<br/>Temps de descente: 00:38<br/></p>]]></desc>
    <type><![CDATA[Point d'arrivée]]></type>
  </wpt>
  <trk>
    <name><![CDATA[2022-01-23 15:52]]></name>
    <desc><![CDATA[<p>Heure de départ: 01/23/2022 15:52<br/>Heure d'arrivée: 01/23/2022 17:20<br/>Distance: 16,6 km (01:28)<br/>Temps déplacement: 01:23<br/>Vitesse moyenne: 11,31 km/h<br/>Vitesse moyenne mouv.: 12,01 km/h<br/>Vitesse Max.: 40,21 km/h<br/>Altitude minimale: -49 m<br/>Altitude maximale: 274 m<br/>Vitesse de montée: 300,7 m/h<br/>Vitesse de descente: -325,3 m/h<br/>Gain d'altitude: 194 m<br/>Perte d'altitude: -213 m<br/>Temps de montée: 00:38<br/>Temps de descente: 00:39<br/></p><hr align="center" width="480" style="height: 2px; width: 517px"/>]]></desc>
    <trkseg>
      <trkpt lat="47.64428" lon="6.18324">
        <ele>224.4</ele>
        <time>2022-01-23T14:52:02Z</time>
      </trkpt>
      <trkpt lat="47.64438" lon="6.18315">
        <ele>224.4</ele>
        <time>2022-01-23T14:52:02Z</time>
      </trkpt>
      <trkpt lat="47.64445" lon="6.18314">
        <ele>224.7</ele>
        <time>2022-01-23T14:52:03Z</time>
      </trkpt>
      <trkpt lat="47.64452" lon="6.18313">
        <ele>225.7</ele>
        <time>2022-01-23T14:52:04Z</time>
      </trkpt>
      <trkpt lat="47.64457" lon="6.18313">
        <ele>226.5</ele>
        <time>2022-01-23T14:52:06Z</time>
      </trkpt>
      <trkpt lat="47.64453" lon="6.18317">
        <ele>226.2</ele>
        <time>2022-01-23T14:52:14Z</time>
      </trkpt>
      <trkpt lat="47.64456" lon="6.18311">
        <ele>226.1</ele>
        <time>2022-01-23T14:52:28Z</time>
      </trkpt>
      <trkpt lat="47.64452" lon="6.18304">
        <ele>225</ele>
        <time>2022-01-23T14:52:31Z</time>
      </trkpt>
      <trkpt lat="47.64453" lon="6.18296">
        <ele>224.7</ele>
        <time>2022-01-23T14:52:35Z</time>
      </trkpt>
      <trkpt lat="47.64457" lon="6.1829">
        <ele>224.7</ele>
        <time>2022-01-23T14:52:38Z</time>
      </trkpt>
      <trkpt lat="47.64461" lon="6.18284">
        <ele>224.6</ele>
        <time>2022-01-23T14:52:41Z</time>
      </trkpt>
      <trkpt lat="47.64465" lon="6.18278">
        <ele>224.5</ele>
        <time>2022-01-23T14:52:44Z</time>
      </trkpt>
      <trkpt lat="47.64468" lon="6.18273">
        <ele>224.4</ele>
        <time>2022-01-23T14:52:46Z</time>
      </trkpt>
      <trkpt lat="47.64471" lon="6.18268">
        <ele>224.2</ele>
        <time>2022-01-23T14:52:48Z</time>
      </trkpt>
      <trkpt lat="47.64476" lon="6.18262">
        <ele>224.6</ele>
        <time>2022-01-23T14:52:50Z</time>
      </trkpt>
      <trkpt lat="47.64481" lon="6.18253">
        <ele>225.1</ele>
        <time>2022-01-23T14:52:52Z</time>
      </trkpt>
      <trkpt lat="47.64486" lon="6.18243">
        <ele>225.6</ele>
        <time>2022-01-23T14:52:54Z</time>
      </trkpt>
      <trkpt lat="47.64491" lon="6.18234">
        <ele>225.8</ele>
        <time>2022-01-23T14:52:56Z</time>
      </trkpt>
      <trkpt lat="47.64494" lon="6.18225">
        <ele>225.6</ele>
        <time>2022-01-23T14:52:58Z</time>
      </trkpt>
      <trkpt lat="47.64497" lon="6.18218">
        <ele>225.3</ele>
        <time>2022-01-23T14:53:00Z</time>
      </trkpt>
      <trkpt lat="47.64499" lon="6.18209">
        <ele>225</ele>
        <time>2022-01-23T14:53:02Z</time>
      </trkpt>
      <trkpt lat="47.64502" lon="6.182">
        <ele>224.8</ele>
        <time>2022-01-23T14:53:04Z</time>
      </trkpt>
      <trkpt lat="47.64503" lon="6.18193">
        <ele>224.7</ele>
        <time>2022-01-23T14:53:05Z</time>
      </trkpt>
      <trkpt lat="47.64503" lon="6.18186">
        <ele>224.4</ele>
        <time>2022-01-23T14:53:06Z</time>
      </trkpt>
      <trkpt lat="47.64503" lon="6.18179">
        <ele>224.1</ele>
        <time>2022-01-23T14:53:07Z</time>
      </trkpt>
      <trkpt lat="47.645" lon="6.18168">
        <ele>223.1</ele>
        <time>2022-01-23T14:53:09Z</time>
      </trkpt>
      <trkpt lat="47.64498" lon="6.18161">
        <ele>222.9</ele>
        <time>2022-01-23T14:53:10Z</time>
      </trkpt>
      <trkpt lat="47.64495" lon="6.18149">
        <ele>222.9</ele>
        <time>2022-01-23T14:53:12Z</time>
      </trkpt>
      <trkpt lat="47.64495" lon="6.18138">
        <ele>223</ele>
        <time>2022-01-23T14:53:14Z</time>
      </trkpt>
      <trkpt lat="47.64496" lon="6.18126">
        <ele>222.9</ele>
        <time>2022-01-23T14:53:16Z</time>
      </trkpt>
      <trkpt lat="47.64498" lon="6.18115">
        <ele>222.9</ele>
        <time>2022-01-23T14:53:18Z</time>
      </trkpt>
      <trkpt lat="47.645" lon="6.18107">
        <ele>223</ele>
        <time>2022-01-23T14:53:20Z</time>
      </trkpt>
      <trkpt lat="47.64502" lon="6.18098">
        <ele>223.4</ele>
        <time>2022-01-23T14:53:22Z</time>
      </trkpt>
      <trkpt lat="47.64504" lon="6.1809">
        <ele>223.6</ele>
        <time>2022-01-23T14:53:24Z</time>
      </trkpt>
      <trkpt lat="47.64506" lon="6.18083">
        <ele>223.8</ele>
        <time>2022-01-23T14:53:26Z</time>
      </trkpt>
      <trkpt lat="47.64508" lon="6.18074">
        <ele>224.2</ele>
        <time>2022-01-23T14:53:28Z</time>
      </trkpt>
      <trkpt lat="47.6451" lon="6.18067">
        <ele>224.6</ele>
        <time>2022-01-23T14:53:30Z</time>
      </trkpt>
      <trkpt lat="47.64512" lon="6.18059">
        <ele>224.8</ele>
        <time>2022-01-23T14:53:32Z</time>
      </trkpt>
      <trkpt lat="47.64515" lon="6.18052">
        <ele>224.9</ele>
        <time>2022-01-23T14:53:34Z</time>
      </trkpt>
      <trkpt lat="47.64519" lon="6.18046">
        <ele>225.1</ele>
        <time>2022-01-23T14:53:36Z</time>
      </trkpt>
      <trkpt lat="47.64523" lon="6.18042">
        <ele>225.2</ele>
        <time>2022-01-23T14:53:38Z</time>
      </trkpt>
      <trkpt lat="47.64528" lon="6.18037">
        <ele>225.3</ele>
        <time>2022-01-23T14:53:40Z</time>
      </trkpt>
      <trkpt lat="47.64533" lon="6.18033">
        <ele>225.9</ele>
        <time>2022-01-23T14:53:42Z</time>
      </trkpt>
      <trkpt lat="47.64536" lon="6.18029">
        <ele>226.3</ele>
        <time>2022-01-23T14:53:44Z</time>
      </trkpt>
      <trkpt lat="47.6454" lon="6.18022">
        <ele>226.6</ele>
        <time>2022-01-23T14:53:46Z</time>
      </trkpt>
      <trkpt lat="47.64542" lon="6.18016">
        <ele>226.8</ele>
        <time>2022-01-23T14:53:48Z</time>
      </trkpt>
      <trkpt lat="47.64545" lon="6.18009">
        <ele>227</ele>
        <time>2022-01-23T14:53:50Z</time>
      </trkpt>
      <trkpt lat="47.64547" lon="6.18001">
        <ele>227.1</ele>
        <time>2022-01-23T14:53:52Z</time>
      </trkpt>
      <trkpt lat="47.64549" lon="6.17994">
        <ele>226.9</ele>
        <time>2022-01-23T14:53:58Z</time>
      </trkpt>
      <trkpt lat="47.64551" lon="6.17986">
        <ele>226.5</ele>
        <time>2022-01-23T14:54:00Z</time>
      </trkpt>
      <trkpt lat="47.64553" lon="6.17975">
        <ele>226</ele>
        <time>2022-01-23T14:54:02Z</time>
      </trkpt>
      <trkpt lat="47.64555" lon="6.17966">
        <ele>225.7</ele>
        <time>2022-01-23T14:54:04Z</time>
      </trkpt>
      <trkpt lat="47.64557" lon="6.17959">
        <ele>225.6</ele>
        <time>2022-01-23T14:54:05Z</time>
      </trkpt>
      <trkpt lat="47.64559" lon="6.1795">
        <ele>225.4</ele>
        <time>2022-01-23T14:54:06Z</time>
      </trkpt>
      <trkpt lat="47.64564" lon="6.17936">
        <ele>224.5</ele>
        <time>2022-01-23T14:54:08Z</time>
      </trkpt>
      <trkpt lat="47.64568" lon="6.1793">
        <ele>224.1</ele>
        <time>2022-01-23T14:54:09Z</time>
      </trkpt>
      <trkpt lat="47.64581" lon="6.17913">
        <ele>223.6</ele>
        <time>2022-01-23T14:54:12Z</time>
      </trkpt>
      <trkpt lat="47.64607" lon="6.1789">
        <ele>222.9</ele>
        <time>2022-01-23T14:54:12Z</time>
      </trkpt>
      <trkpt lat="47.64613" lon="6.17888">
        <ele>223</ele>
        <time>2022-01-23T14:54:13Z</time>
      </trkpt>
      <trkpt lat="47.64618" lon="6.17888">
        <ele>223</ele>
        <time>2022-01-23T14:54:14Z</time>
      </trkpt>
      <trkpt lat="47.64624" lon="6.17889">
        <ele>223</ele>
        <time>2022-01-23T14:54:15Z</time>
      </trkpt>
      <trkpt lat="47.64629" lon="6.17891">
        <ele>223.1</ele>
        <time>2022-01-23T14:54:16Z</time>
      </trkpt>
      <trkpt lat="47.64635" lon="6.17893">
        <ele>223.1</ele>
        <time>2022-01-23T14:54:17Z</time>
      </trkpt>
      <trkpt lat="47.6464" lon="6.17896">
        <ele>223.2</ele>
        <time>2022-01-23T14:54:18Z</time>
      </trkpt>
      <trkpt lat="47.64645" lon="6.17898">
        <ele>223.3</ele>
        <time>2022-01-23T14:54:19Z</time>
      </trkpt>
      <trkpt lat="47.6465" lon="6.17901">
        <ele>223.3</ele>
        <time>2022-01-23T14:54:20Z</time>
      </trkpt>
      <trkpt lat="47.64655" lon="6.17904">
        <ele>223.2</ele>
        <time>2022-01-23T14:54:21Z</time>
      </trkpt>
      <trkpt lat="47.64659" lon="6.17906">
        <ele>223.2</ele>
        <time>2022-01-23T14:54:22Z</time>
      </trkpt>
      <trkpt lat="47.64664" lon="6.17909">
        <ele>223.1</ele>
        <time>2022-01-23T14:54:23Z</time>
      </trkpt>
      <trkpt lat="47.64669" lon="6.17911">
        <ele>223</ele>
        <time>2022-01-23T14:54:24Z</time>
      </trkpt>
      <trkpt lat="47.64673" lon="6.17914">
        <ele>223</ele>
        <time>2022-01-23T14:54:25Z</time>
      </trkpt>
      <trkpt lat="47.64677" lon="6.17917">
        <ele>223</ele>
        <time>2022-01-23T14:54:26Z</time>
      </trkpt>
      <trkpt lat="47.64681" lon="6.17921">
        <ele>223.2</ele>
        <time>2022-01-23T14:54:27Z</time>
      </trkpt>
      <trkpt lat="47.64689" lon="6.17928">
        <ele>223.3</ele>
        <time>2022-01-23T14:54:29Z</time>
      </trkpt>
      <trkpt lat="47.64695" lon="6.17936">
        <ele>223</ele>
        <time>2022-01-23T14:54:31Z</time>
      </trkpt>
      <trkpt lat="47.64701" lon="6.17944">
        <ele>223</ele>
        <time>2022-01-23T14:54:33Z</time>
      </trkpt>
      <trkpt lat="47.64707" lon="6.17951">
        <ele>223.4</ele>
        <time>2022-01-23T14:54:35Z</time>
      </trkpt>
      <trkpt lat="47.64713" lon="6.1796">
        <ele>223.6</ele>
        <time>2022-01-23T14:54:37Z</time>
      </trkpt>
      <trkpt lat="47.64718" lon="6.17969">
        <ele>223.4</ele>
        <time>2022-01-23T14:54:39Z</time>
      </trkpt>
      <trkpt lat="47.64723" lon="6.17977">
        <ele>223.4</ele>
        <time>2022-01-23T14:54:41Z</time>
      </trkpt>
      <trkpt lat="47.64728" lon="6.17982">
        <ele>223.6</ele>
        <time>2022-01-23T14:54:46Z</time>
      </trkpt>
      <trkpt lat="47.64731" lon="6.17989">
        <ele>223.8</ele>
        <time>2022-01-23T14:54:48Z</time>
      </trkpt>
      <trkpt lat="47.64736" lon="6.17998">
        <ele>224</ele>
        <time>2022-01-23T14:54:50Z</time>
      </trkpt>
      <trkpt lat="47.6474" lon="6.18006">
        <ele>224.3</ele>
        <time>2022-01-23T14:54:52Z</time>
      </trkpt>
      <trkpt lat="47.64744" lon="6.18014">
        <ele>224.4</ele>
        <time>2022-01-23T14:54:54Z</time>
      </trkpt>
      <trkpt lat="47.64748" lon="6.1802">
        <ele>224.2</ele>
        <time>2022-01-23T14:54:55Z</time>
      </trkpt>
      <trkpt lat="47.64751" lon="6.18026">
        <ele>223.9</ele>
        <time>2022-01-23T14:54:57Z</time>
      </trkpt>
      <trkpt lat="47.64756" lon="6.18032">
        <ele>224.3</ele>
        <time>2022-01-23T14:54:59Z</time>
      </trkpt>
      <trkpt lat="47.6476" lon="6.18039">
        <ele>224.7</ele>
        <time>2022-01-23T14:55:00Z</time>
      </trkpt>
      <trkpt lat="47.64764" lon="6.18043">
        <ele>224.7</ele>
        <time>2022-01-23T14:55:02Z</time>
      </trkpt>
      <trkpt lat="47.64769" lon="6.1805">
        <ele>224.3</ele>
        <time>2022-01-23T14:55:04Z</time>
      </trkpt>
      <trkpt lat="47.64775" lon="6.18057">
        <ele>223.8</ele>
        <time>2022-01-23T14:55:06Z</time>
      </trkpt>
      <trkpt lat="47.6478" lon="6.18062">
        <ele>224.2</ele>
        <time>2022-01-23T14:55:08Z</time>
      </trkpt>
      <trkpt lat="47.64786" lon="6.18067">
        <ele>224.7</ele>
        <time>2022-01-23T14:55:10Z</time>
      </trkpt>
      <trkpt lat="47.64791" lon="6.18069">
        <ele>224.7</ele>
        <time>2022-01-23T14:55:12Z</time>
      </trkpt>
      <trkpt lat="47.64797" lon="6.18071">
        <ele>224.7</ele>
        <time>2022-01-23T14:55:13Z</time>
      </trkpt>
      <trkpt lat="47.64801" lon="6.18073">
        <ele>224.6</ele>
        <time>2022-01-23T14:55:15Z</time>
      </trkpt>
      <trkpt lat="47.64806" lon="6.18075">
        <ele>224.4</ele>
        <time>2022-01-23T14:55:17Z</time>
      </trkpt>
      <trkpt lat="47.64811" lon="6.18077">
        <ele>224.6</ele>
        <time>2022-01-23T14:55:19Z</time>
      </trkpt>
      <trkpt lat="47.64817" lon="6.18077">
        <ele>224.6</ele>
        <time>2022-01-23T14:55:21Z</time>
      </trkpt>
      <trkpt lat="47.64822" lon="6.18078">
        <ele>224.7</ele>
        <time>2022-01-23T14:55:23Z</time>
      </trkpt>
      <trkpt lat="47.64827" lon="6.18078">
        <ele>224.8</ele>
        <time>2022-01-23T14:55:25Z</time>
      </trkpt>
      <trkpt lat="47.64832" lon="6.18077">
        <ele>224.8</ele>
        <time>2022-01-23T14:55:27Z</time>
      </trkpt>
      <trkpt lat="47.64837" lon="6.18079">
        <ele>224.9</ele>
        <time>2022-01-23T14:55:29Z</time>
      </trkpt>
      <trkpt lat="47.64841" lon="6.18082">
        <ele>225</ele>
        <time>2022-01-23T14:55:32Z</time>
      </trkpt>
      <trkpt lat="47.64846" lon="6.18085">
        <ele>225.1</ele>
        <time>2022-01-23T14:55:35Z</time>
      </trkpt>
      <trkpt lat="47.64851" lon="6.18085">
        <ele>225.2</ele>
        <time>2022-01-23T14:55:37Z</time>
      </trkpt>
      <trkpt lat="47.64857" lon="6.18087">
        <ele>225.4</ele>
        <time>2022-01-23T14:55:40Z</time>
      </trkpt>
      <trkpt lat="47.64867" lon="6.18091">
        <ele>225.6</ele>
        <time>2022-01-23T14:55:43Z</time>
      </trkpt>
      <trkpt lat="47.64873" lon="6.18094">
        <ele>225.5</ele>
        <time>2022-01-23T14:55:46Z</time>
      </trkpt>
      <trkpt lat="47.6488" lon="6.18095">
        <ele>225.3</ele>
        <time>2022-01-23T14:55:48Z</time>
      </trkpt>
      <trkpt lat="47.64885" lon="6.18096">
        <ele>225.1</ele>
        <time>2022-01-23T14:55:49Z</time>
      </trkpt>
      <trkpt lat="47.6489" lon="6.18097">
        <ele>225</ele>
        <time>2022-01-23T14:55:50Z</time>
      </trkpt>
      <trkpt lat="47.64894" lon="6.18098">
        <ele>225.1</ele>
        <time>2022-01-23T14:55:51Z</time>
      </trkpt>
      <trkpt lat="47.649" lon="6.18099">
        <ele>225.2</ele>
        <time>2022-01-23T14:55:53Z</time>
      </trkpt>
      <trkpt lat="47.6491" lon="6.18101">
        <ele>225.5</ele>
        <time>2022-01-23T14:55:55Z</time>
      </trkpt>
      <trkpt lat="47.64915" lon="6.18102">
        <ele>225.7</ele>
        <time>2022-01-23T14:55:57Z</time>
      </trkpt>
      <trkpt lat="47.64926" lon="6.18104">
        <ele>226</ele>
        <time>2022-01-23T14:56:00Z</time>
      </trkpt>
      <trkpt lat="47.64932" lon="6.18105">
        <ele>226.1</ele>
        <time>2022-01-23T14:56:02Z</time>
      </trkpt>
      <trkpt lat="47.64938" lon="6.18105">
        <ele>226.2</ele>
        <time>2022-01-23T14:56:03Z</time>
      </trkpt>
      <trkpt lat="47.64951" lon="6.18104">
        <ele>226.3</ele>
        <time>2022-01-23T14:56:06Z</time>
      </trkpt>
      <trkpt lat="47.64957" lon="6.18103">
        <ele>226.5</ele>
        <time>2022-01-23T14:56:08Z</time>
      </trkpt>
      <trkpt lat="47.64968" lon="6.18101">
        <ele>226.7</ele>
        <time>2022-01-23T14:56:10Z</time>
      </trkpt>
      <trkpt lat="47.64982" lon="6.18099">
        <ele>226.6</ele>
        <time>2022-01-23T14:56:13Z</time>
      </trkpt>
      <trkpt lat="47.64987" lon="6.18099">
        <ele>226.6</ele>
        <time>2022-01-23T14:56:14Z</time>
      </trkpt>
      <trkpt lat="47.64992" lon="6.18098">
        <ele>226.6</ele>
        <time>2022-01-23T14:56:15Z</time>
      </trkpt>
      <trkpt lat="47.65003" lon="6.18099">
        <ele>226.7</ele>
        <time>2022-01-23T14:56:17Z</time>
      </trkpt>
      <trkpt lat="47.65037" lon="6.18103">
        <ele>226.3</ele>
        <time>2022-01-23T14:56:18Z</time>
      </trkpt>
      <trkpt lat="47.65045" lon="6.18104">
        <ele>226.7</ele>
        <time>2022-01-23T14:56:20Z</time>
      </trkpt>
      <trkpt lat="47.6505" lon="6.18105">
        <ele>226.9</ele>
        <time>2022-01-23T14:56:21Z</time>
      </trkpt>
      <trkpt lat="47.65057" lon="6.18106">
        <ele>227.2</ele>
        <time>2022-01-23T14:56:23Z</time>
      </trkpt>
      <trkpt lat="47.65065" lon="6.18108">
        <ele>226.7</ele>
        <time>2022-01-23T14:56:25Z</time>
      </trkpt>
      <trkpt lat="47.65073" lon="6.18109">
        <ele>226</ele>
        <time>2022-01-23T14:56:27Z</time>
      </trkpt>
      <trkpt lat="47.6508" lon="6.1811">
        <ele>225.2</ele>
        <time>2022-01-23T14:56:29Z</time>
      </trkpt>
      <trkpt lat="47.65089" lon="6.18108">
        <ele>225.1</ele>
        <time>2022-01-23T14:56:31Z</time>
      </trkpt>
      <trkpt lat="47.65098" lon="6.18106">
        <ele>225.2</ele>
        <time>2022-01-23T14:56:33Z</time>
      </trkpt>
      <trkpt lat="47.65102" lon="6.18104">
        <ele>225.3</ele>
        <time>2022-01-23T14:56:34Z</time>
      </trkpt>
      <trkpt lat="47.6511" lon="6.181">
        <ele>225.2</ele>
        <time>2022-01-23T14:56:36Z</time>
      </trkpt>
      <trkpt lat="47.65115" lon="6.18098">
        <ele>225.3</ele>
        <time>2022-01-23T14:56:37Z</time>
      </trkpt>
      <trkpt lat="47.6512" lon="6.18095">
        <ele>225.2</ele>
        <time>2022-01-23T14:56:38Z</time>
      </trkpt>
      <trkpt lat="47.65125" lon="6.18091">
        <ele>225</ele>
        <time>2022-01-23T14:56:39Z</time>
      </trkpt>
      <trkpt lat="47.65129" lon="6.18088">
        <ele>224.6</ele>
        <time>2022-01-23T14:56:40Z</time>
      </trkpt>
      <trkpt lat="47.65135" lon="6.1808">
        <ele>223.9</ele>
        <time>2022-01-23T14:56:47Z</time>
      </trkpt>
      <trkpt lat="47.65145" lon="6.18066">
        <ele>224</ele>
        <time>2022-01-23T14:56:49Z</time>
      </trkpt>
      <trkpt lat="47.65149" lon="6.18061">
        <ele>224.1</ele>
        <time>2022-01-23T14:56:51Z</time>
      </trkpt>
      <trkpt lat="47.6516" lon="6.18046">
        <ele>224.2</ele>
        <time>2022-01-23T14:56:54Z</time>
      </trkpt>
      <trkpt lat="47.65167" lon="6.18032">
        <ele>224.2</ele>
        <time>2022-01-23T14:56:57Z</time>
      </trkpt>
      <trkpt lat="47.65171" lon="6.18025">
        <ele>224.3</ele>
        <time>2022-01-23T14:56:59Z</time>
      </trkpt>
      <trkpt lat="47.65175" lon="6.1802">
        <ele>224.5</ele>
        <time>2022-01-23T14:57:01Z</time>
      </trkpt>
      <trkpt lat="47.65179" lon="6.18014">
        <ele>224.7</ele>
        <time>2022-01-23T14:57:03Z</time>
      </trkpt>
      <trkpt lat="47.65189" lon="6.18003">
        <ele>224.9</ele>
        <time>2022-01-23T14:57:04Z</time>
      </trkpt>
      <trkpt lat="47.65193" lon="6.17997">
        <ele>224.9</ele>
        <time>2022-01-23T14:57:10Z</time>
      </trkpt>
      <trkpt lat="47.65197" lon="6.17993">
        <ele>225</ele>
        <time>2022-01-23T14:57:12Z</time>
      </trkpt>
      <trkpt lat="47.65201" lon="6.17988">
        <ele>225.1</ele>
        <time>2022-01-23T14:57:14Z</time>
      </trkpt>
      <trkpt lat="47.65207" lon="6.17986">
        <ele>225.4</ele>
        <time>2022-01-23T14:57:16Z</time>
      </trkpt>
      <trkpt lat="47.65211" lon="6.17984">
        <ele>225.6</ele>
        <time>2022-01-23T14:57:17Z</time>
      </trkpt>
      <trkpt lat="47.65224" lon="6.17981">
        <ele>226.3</ele>
        <time>2022-01-23T14:57:21Z</time>
      </trkpt>
      <trkpt lat="47.65235" lon="6.17984">
        <ele>226.4</ele>
        <time>2022-01-23T14:57:24Z</time>
      </trkpt>
      <trkpt lat="47.65239" lon="6.17986">
        <ele>226.5</ele>
        <time>2022-01-23T14:57:26Z</time>
      </trkpt>
      <trkpt lat="47.65244" lon="6.1799">
        <ele>226.6</ele>
        <time>2022-01-23T14:57:27Z</time>
      </trkpt>
      <trkpt lat="47.65249" lon="6.17994">
        <ele>226.8</ele>
        <time>2022-01-23T14:57:29Z</time>
      </trkpt>
      <trkpt lat="47.65267" lon="6.18013">
        <ele>226.6</ele>
        <time>2022-01-23T14:57:34Z</time>
      </trkpt>
      <trkpt lat="47.65272" lon="6.18025">
        <ele>226.4</ele>
        <time>2022-01-23T14:57:36Z</time>
      </trkpt>
      <trkpt lat="47.65274" lon="6.18033">
        <ele>226.5</ele>
        <time>2022-01-23T14:57:37Z</time>
      </trkpt>
      <trkpt lat="47.65278" lon="6.18051">
        <ele>226.8</ele>
        <time>2022-01-23T14:57:41Z</time>
      </trkpt>
      <trkpt lat="47.6528" lon="6.18059">
        <ele>227</ele>
        <time>2022-01-23T14:57:42Z</time>
      </trkpt>
      <trkpt lat="47.65281" lon="6.18069">
        <ele>227.2</ele>
        <time>2022-01-23T14:57:44Z</time>
      </trkpt>
      <trkpt lat="47.65282" lon="6.18077">
        <ele>227.3</ele>
        <time>2022-01-23T14:57:45Z</time>
      </trkpt>
      <trkpt lat="47.65284" lon="6.18088">
        <ele>227.5</ele>
        <time>2022-01-23T14:57:47Z</time>
      </trkpt>
      <trkpt lat="47.65284" lon="6.18098">
        <ele>227.7</ele>
        <time>2022-01-23T14:57:49Z</time>
      </trkpt>
      <trkpt lat="47.65286" lon="6.1811">
        <ele>227.8</ele>
        <time>2022-01-23T14:57:51Z</time>
      </trkpt>
      <trkpt lat="47.65287" lon="6.1812">
        <ele>228.4</ele>
        <time>2022-01-23T14:57:53Z</time>
      </trkpt>
      <trkpt lat="47.65289" lon="6.1813">
        <ele>228.8</ele>
        <time>2022-01-23T14:57:54Z</time>
      </trkpt>
      <trkpt lat="47.65291" lon="6.18137">
        <ele>229</ele>
        <time>2022-01-23T14:57:56Z</time>
      </trkpt>
      <trkpt lat="47.65293" lon="6.18146">
        <ele>229.3</ele>
        <time>2022-01-23T14:57:58Z</time>
      </trkpt>
      <trkpt lat="47.65296" lon="6.18156">
        <ele>229.4</ele>
        <time>2022-01-23T14:58:00Z</time>
      </trkpt>
      <trkpt lat="47.653" lon="6.18166">
        <ele>228.8</ele>
        <time>2022-01-23T14:58:02Z</time>
      </trkpt>
      <trkpt lat="47.65308" lon="6.18181">
        <ele>228.4</ele>
        <time>2022-01-23T14:58:02Z</time>
      </trkpt>
      <trkpt lat="47.65313" lon="6.18188">
        <ele>228.6</ele>
        <time>2022-01-23T14:58:04Z</time>
      </trkpt>
      <trkpt lat="47.65317" lon="6.18194">
        <ele>228.7</ele>
        <time>2022-01-23T14:58:10Z</time>
      </trkpt>
      <trkpt lat="47.65321" lon="6.18199">
        <ele>229</ele>
        <time>2022-01-23T14:58:11Z</time>
      </trkpt>
      <trkpt lat="47.65326" lon="6.18205">
        <ele>229</ele>
        <time>2022-01-23T14:58:13Z</time>
      </trkpt>
      <trkpt lat="47.65337" lon="6.18216">
        <ele>228.3</ele>
        <time>2022-01-23T14:58:14Z</time>
      </trkpt>
      <trkpt lat="47.65342" lon="6.18221">
        <ele>228.3</ele>
        <time>2022-01-23T14:58:16Z</time>
      </trkpt>
      <trkpt lat="47.65346" lon="6.18225">
        <ele>228.4</ele>
        <time>2022-01-23T14:58:22Z</time>
      </trkpt>
      <trkpt lat="47.65351" lon="6.18229">
        <ele>228.5</ele>
        <time>2022-01-23T14:58:24Z</time>
      </trkpt>
      <trkpt lat="47.65362" lon="6.18237">
        <ele>228.6</ele>
        <time>2022-01-23T14:58:24Z</time>
      </trkpt>
      <trkpt lat="47.65367" lon="6.18242">
        <ele>228.8</ele>
        <time>2022-01-23T14:58:30Z</time>
      </trkpt>
      <trkpt lat="47.65372" lon="6.18246">
        <ele>229.1</ele>
        <time>2022-01-23T14:58:32Z</time>
      </trkpt>
      <trkpt lat="47.65376" lon="6.18249">
        <ele>229.3</ele>
        <time>2022-01-23T14:58:33Z</time>
      </trkpt>
      <trkpt lat="47.65385" lon="6.18255">
        <ele>229.8</ele>
        <time>2022-01-23T14:58:37Z</time>
      </trkpt>
      <trkpt lat="47.65395" lon="6.18261">
        <ele>229.9</ele>
        <time>2022-01-23T14:58:37Z</time>
      </trkpt>
      <trkpt lat="47.654" lon="6.18264">
        <ele>229.9</ele>
        <time>2022-01-23T14:58:44Z</time>
      </trkpt>
      <trkpt lat="47.65411" lon="6.18268">
        <ele>229.9</ele>
        <time>2022-01-23T14:58:45Z</time>
      </trkpt>
      <trkpt lat="47.65417" lon="6.1827">
        <ele>229.9</ele>
        <time>2022-01-23T14:58:52Z</time>
      </trkpt>
      <trkpt lat="47.65427" lon="6.18273">
        <ele>230.3</ele>
        <time>2022-01-23T14:58:54Z</time>
      </trkpt>
      <trkpt lat="47.65433" lon="6.18275">
        <ele>230.6</ele>
        <time>2022-01-23T14:58:58Z</time>
      </trkpt>
      <trkpt lat="47.65438" lon="6.18276">
        <ele>230.7</ele>
        <time>2022-01-23T14:59:06Z</time>
      </trkpt>
      <trkpt lat="47.65444" lon="6.18275">
        <ele>230.7</ele>
        <time>2022-01-23T14:59:06Z</time>
      </trkpt>
      <trkpt lat="47.65449" lon="6.18275">
        <ele>230.7</ele>
        <time>2022-01-23T14:59:10Z</time>
      </trkpt>
      <trkpt lat="47.65454" lon="6.18275">
        <ele>231</ele>
        <time>2022-01-23T14:59:14Z</time>
      </trkpt>
      <trkpt lat="47.6546" lon="6.18274">
        <ele>231.1</ele>
        <time>2022-01-23T14:59:18Z</time>
      </trkpt>
      <trkpt lat="47.65464" lon="6.18274">
        <ele>231.1</ele>
        <time>2022-01-23T14:59:21Z</time>
      </trkpt>
      <trkpt lat="47.65469" lon="6.18272">
        <ele>231</ele>
        <time>2022-01-23T14:59:24Z</time>
      </trkpt>
      <trkpt lat="47.65473" lon="6.1827">
        <ele>230.9</ele>
        <time>2022-01-23T14:59:27Z</time>
      </trkpt>
      <trkpt lat="47.65478" lon="6.18267">
        <ele>230.9</ele>
        <time>2022-01-23T14:59:30Z</time>
      </trkpt>
      <trkpt lat="47.65483" lon="6.18264">
        <ele>231</ele>
        <time>2022-01-23T14:59:33Z</time>
      </trkpt>
      <trkpt lat="47.65488" lon="6.18262">
        <ele>231.2</ele>
        <time>2022-01-23T14:59:36Z</time>
      </trkpt>
      <trkpt lat="47.65494" lon="6.1826">
        <ele>231.5</ele>
        <time>2022-01-23T14:59:39Z</time>
      </trkpt>
      <trkpt lat="47.65499" lon="6.18258">
        <ele>231.8</ele>
        <time>2022-01-23T14:59:42Z</time>
      </trkpt>
      <trkpt lat="47.65504" lon="6.18256">
        <ele>232</ele>
        <time>2022-01-23T14:59:45Z</time>
      </trkpt>
      <trkpt lat="47.65509" lon="6.18254">
        <ele>232.1</ele>
        <time>2022-01-23T14:59:48Z</time>
      </trkpt>
      <trkpt lat="47.65514" lon="6.18252">
        <ele>232.3</ele>
        <time>2022-01-23T14:59:51Z</time>
      </trkpt>
      <trkpt lat="47.65519" lon="6.1825">
        <ele>232.4</ele>
        <time>2022-01-23T14:59:54Z</time>
      </trkpt>
      <trkpt lat="47.65524" lon="6.18247">
        <ele>232.3</ele>
        <time>2022-01-23T14:59:57Z</time>
      </trkpt>
      <trkpt lat="47.65528" lon="6.18244">
        <ele>232.2</ele>
        <time>2022-01-23T14:59:59Z</time>
      </trkpt>
      <trkpt lat="47.65534" lon="6.18241">
        <ele>232.2</ele>
        <time>2022-01-23T15:00:02Z</time>
      </trkpt>
      <trkpt lat="47.65539" lon="6.18239">
        <ele>232.5</ele>
        <time>2022-01-23T15:00:08Z</time>
      </trkpt>
      <trkpt lat="47.65549" lon="6.18225">
        <ele>232.4</ele>
        <time>2022-01-23T15:00:13Z</time>
      </trkpt>
      <trkpt lat="47.65554" lon="6.18219">
        <ele>232.4</ele>
        <time>2022-01-23T15:00:15Z</time>
      </trkpt>
      <trkpt lat="47.65559" lon="6.18211">
        <ele>232</ele>
        <time>2022-01-23T15:00:17Z</time>
      </trkpt>
      <trkpt lat="47.65563" lon="6.18203">
        <ele>231.6</ele>
        <time>2022-01-23T15:00:19Z</time>
      </trkpt>
      <trkpt lat="47.65566" lon="6.18198">
        <ele>231.4</ele>
        <time>2022-01-23T15:00:20Z</time>
      </trkpt>
      <trkpt lat="47.65571" lon="6.18192">
        <ele>231.2</ele>
        <time>2022-01-23T15:00:21Z</time>
      </trkpt>
      <trkpt lat="47.65575" lon="6.18187">
        <ele>231</ele>
        <time>2022-01-23T15:00:22Z</time>
      </trkpt>
      <trkpt lat="47.65579" lon="6.18183">
        <ele>230.9</ele>
        <time>2022-01-23T15:00:23Z</time>
      </trkpt>
      <trkpt lat="47.65586" lon="6.1818">
        <ele>231.1</ele>
        <time>2022-01-23T15:00:25Z</time>
      </trkpt>
      <trkpt lat="47.65592" lon="6.1818">
        <ele>231.4</ele>
        <time>2022-01-23T15:00:25Z</time>
      </trkpt>
      <trkpt lat="47.65604" lon="6.1818">
        <ele>232</ele>
        <time>2022-01-23T15:00:27Z</time>
      </trkpt>
      <trkpt lat="47.65613" lon="6.18181">
        <ele>232.8</ele>
        <time>2022-01-23T15:00:28Z</time>
      </trkpt>
      <trkpt lat="47.65627" lon="6.1818">
        <ele>234.2</ele>
        <time>2022-01-23T15:00:30Z</time>
      </trkpt>
      <trkpt lat="47.65639" lon="6.18177">
        <ele>235.1</ele>
        <time>2022-01-23T15:00:32Z</time>
      </trkpt>
      <trkpt lat="47.65645" lon="6.18176">
        <ele>235.7</ele>
        <time>2022-01-23T15:00:35Z</time>
      </trkpt>
      <trkpt lat="47.65648" lon="6.1818">
        <ele>236.6</ele>
        <time>2022-01-23T15:00:37Z</time>
      </trkpt>
      <trkpt lat="47.6565" lon="6.18188">
        <ele>237.7</ele>
        <time>2022-01-23T15:00:40Z</time>
      </trkpt>
      <trkpt lat="47.65653" lon="6.18193">
        <ele>238.9</ele>
        <time>2022-01-23T15:00:44Z</time>
      </trkpt>
      <trkpt lat="47.65658" lon="6.18191">
        <ele>239.3</ele>
        <time>2022-01-23T15:00:48Z</time>
      </trkpt>
      <trkpt lat="47.65662" lon="6.18188">
        <ele>239.6</ele>
        <time>2022-01-23T15:00:52Z</time>
      </trkpt>
      <trkpt lat="47.65667" lon="6.18192">
        <ele>240.7</ele>
        <time>2022-01-23T15:00:55Z</time>
      </trkpt>
      <trkpt lat="47.65672" lon="6.18193">
        <ele>242</ele>
        <time>2022-01-23T15:00:58Z</time>
      </trkpt>
      <trkpt lat="47.65677" lon="6.18191">
        <ele>243</ele>
        <time>2022-01-23T15:01:02Z</time>
      </trkpt>
      <trkpt lat="47.65681" lon="6.18189">
        <ele>243.7</ele>
        <time>2022-01-23T15:01:06Z</time>
      </trkpt>
      <trkpt lat="47.65686" lon="6.18189">
        <ele>244.8</ele>
        <time>2022-01-23T15:01:11Z</time>
      </trkpt>
      <trkpt lat="47.65691" lon="6.18188">
        <ele>245.9</ele>
        <time>2022-01-23T15:01:16Z</time>
      </trkpt>
      <trkpt lat="47.65696" lon="6.18187">
        <ele>246.7</ele>
        <time>2022-01-23T15:01:21Z</time>
      </trkpt>
      <trkpt lat="47.65701" lon="6.18184">
        <ele>247.1</ele>
        <time>2022-01-23T15:01:25Z</time>
      </trkpt>
      <trkpt lat="47.65705" lon="6.18181">
        <ele>247.2</ele>
        <time>2022-01-23T15:01:32Z</time>
      </trkpt>
      <trkpt lat="47.6571" lon="6.1818">
        <ele>247.9</ele>
        <time>2022-01-23T15:01:36Z</time>
      </trkpt>
      <trkpt lat="47.65714" lon="6.18175">
        <ele>247.7</ele>
        <time>2022-01-23T15:01:40Z</time>
      </trkpt>
      <trkpt lat="47.65719" lon="6.18171">
        <ele>247.4</ele>
        <time>2022-01-23T15:01:46Z</time>
      </trkpt>
      <trkpt lat="47.65724" lon="6.18169">
        <ele>248</ele>
        <time>2022-01-23T15:01:50Z</time>
      </trkpt>
      <trkpt lat="47.65729" lon="6.18167">
        <ele>248.8</ele>
        <time>2022-01-23T15:01:54Z</time>
      </trkpt>
      <trkpt lat="47.65733" lon="6.18162">
        <ele>248.7</ele>
        <time>2022-01-23T15:01:59Z</time>
      </trkpt>
      <trkpt lat="47.65738" lon="6.18161">
        <ele>249.9</ele>
        <time>2022-01-23T15:02:04Z</time>
      </trkpt>
      <trkpt lat="47.65743" lon="6.1816">
        <ele>250.7</ele>
        <time>2022-01-23T15:02:09Z</time>
      </trkpt>
      <trkpt lat="47.65747" lon="6.18156">
        <ele>250.9</ele>
        <time>2022-01-23T15:02:15Z</time>
      </trkpt>
      <trkpt lat="47.65751" lon="6.18152">
        <ele>251</ele>
        <time>2022-01-23T15:02:19Z</time>
      </trkpt>
      <trkpt lat="47.65756" lon="6.18149">
        <ele>251.8</ele>
        <time>2022-01-23T15:02:23Z</time>
      </trkpt>
      <trkpt lat="47.65761" lon="6.18145">
        <ele>252.3</ele>
        <time>2022-01-23T15:02:28Z</time>
      </trkpt>
      <trkpt lat="47.65764" lon="6.18139">
        <ele>252</ele>
        <time>2022-01-23T15:02:32Z</time>
      </trkpt>
      <trkpt lat="47.65767" lon="6.18135">
        <ele>252.3</ele>
        <time>2022-01-23T15:02:36Z</time>
      </trkpt>
      <trkpt lat="47.65771" lon="6.1813">
        <ele>252.9</ele>
        <time>2022-01-23T15:02:40Z</time>
      </trkpt>
      <trkpt lat="47.65776" lon="6.18127">
        <ele>253.9</ele>
        <time>2022-01-23T15:02:44Z</time>
      </trkpt>
      <trkpt lat="47.65778" lon="6.18121">
        <ele>253.5</ele>
        <time>2022-01-23T15:02:50Z</time>
      </trkpt>
      <trkpt lat="47.65783" lon="6.18118">
        <ele>253.9</ele>
        <time>2022-01-23T15:02:55Z</time>
      </trkpt>
      <trkpt lat="47.65788" lon="6.18115">
        <ele>254.3</ele>
        <time>2022-01-23T15:02:59Z</time>
      </trkpt>
      <trkpt lat="47.65791" lon="6.18106">
        <ele>253.4</ele>
        <time>2022-01-23T15:03:04Z</time>
      </trkpt>
      <trkpt lat="47.65795" lon="6.18102">
        <ele>253.6</ele>
        <time>2022-01-23T15:03:09Z</time>
      </trkpt>
      <trkpt lat="47.658" lon="6.181">
        <ele>254.1</ele>
        <time>2022-01-23T15:03:12Z</time>
      </trkpt>
      <trkpt lat="47.65805" lon="6.18097">
        <ele>254.3</ele>
        <time>2022-01-23T15:03:15Z</time>
      </trkpt>
      <trkpt lat="47.65809" lon="6.18093">
        <ele>254.1</ele>
        <time>2022-01-23T15:03:19Z</time>
      </trkpt>
      <trkpt lat="47.65814" lon="6.18089">
        <ele>253.8</ele>
        <time>2022-01-23T15:03:24Z</time>
      </trkpt>
      <trkpt lat="47.65819" lon="6.18089">
        <ele>254.3</ele>
        <time>2022-01-23T15:03:28Z</time>
      </trkpt>
      <trkpt lat="47.65823" lon="6.18094">
        <ele>255.3</ele>
        <time>2022-01-23T15:03:31Z</time>
      </trkpt>
      <trkpt lat="47.65827" lon="6.18091">
        <ele>255.3</ele>
        <time>2022-01-23T15:03:36Z</time>
      </trkpt>
      <trkpt lat="47.65831" lon="6.18097">
        <ele>256.3</ele>
        <time>2022-01-23T15:03:43Z</time>
      </trkpt>
      <trkpt lat="47.65835" lon="6.18101">
        <ele>256.8</ele>
        <time>2022-01-23T15:03:48Z</time>
      </trkpt>
      <trkpt lat="47.65838" lon="6.18105">
        <ele>257.2</ele>
        <time>2022-01-23T15:03:53Z</time>
      </trkpt>
      <trkpt lat="47.65838" lon="6.18113">
        <ele>258</ele>
        <time>2022-01-23T15:03:57Z</time>
      </trkpt>
      <trkpt lat="47.65839" lon="6.1812">
        <ele>258.8</ele>
        <time>2022-01-23T15:04:01Z</time>
      </trkpt>
      <trkpt lat="47.65844" lon="6.18124">
        <ele>259.2</ele>
        <time>2022-01-23T15:04:06Z</time>
      </trkpt>
      <trkpt lat="47.65845" lon="6.18131">
        <ele>260</ele>
        <time>2022-01-23T15:04:10Z</time>
      </trkpt>
      <trkpt lat="47.65846" lon="6.18139">
        <ele>261</ele>
        <time>2022-01-23T15:04:14Z</time>
      </trkpt>
      <trkpt lat="47.65847" lon="6.18146">
        <ele>261.5</ele>
        <time>2022-01-23T15:04:20Z</time>
      </trkpt>
      <trkpt lat="47.65851" lon="6.18151">
        <ele>261.8</ele>
        <time>2022-01-23T15:04:24Z</time>
      </trkpt>
      <trkpt lat="47.65852" lon="6.18157">
        <ele>262.3</ele>
        <time>2022-01-23T15:04:29Z</time>
      </trkpt>
      <trkpt lat="47.65854" lon="6.18164">
        <ele>262.8</ele>
        <time>2022-01-23T15:04:35Z</time>
      </trkpt>
      <trkpt lat="47.65857" lon="6.1817">
        <ele>263.1</ele>
        <time>2022-01-23T15:04:40Z</time>
      </trkpt>
      <trkpt lat="47.65862" lon="6.18174">
        <ele>263.3</ele>
        <time>2022-01-23T15:04:44Z</time>
      </trkpt>
      <trkpt lat="47.65862" lon="6.18182">
        <ele>263.5</ele>
        <time>2022-01-23T15:04:49Z</time>
      </trkpt>
      <trkpt lat="47.65861" lon="6.1819">
        <ele>263.8</ele>
        <time>2022-01-23T15:04:54Z</time>
      </trkpt>
      <trkpt lat="47.65865" lon="6.18196">
        <ele>264.1</ele>
        <time>2022-01-23T15:04:59Z</time>
      </trkpt>
      <trkpt lat="47.65864" lon="6.18204">
        <ele>264.7</ele>
        <time>2022-01-23T15:05:04Z</time>
      </trkpt>
      <trkpt lat="47.65864" lon="6.18211">
        <ele>265.1</ele>
        <time>2022-01-23T15:05:08Z</time>
      </trkpt>
      <trkpt lat="47.65865" lon="6.18218">
        <ele>265.6</ele>
        <time>2022-01-23T15:05:12Z</time>
      </trkpt>
      <trkpt lat="47.65862" lon="6.18224">
        <ele>266</ele>
        <time>2022-01-23T15:05:16Z</time>
      </trkpt>
      <trkpt lat="47.65858" lon="6.18225">
        <ele>266.1</ele>
        <time>2022-01-23T15:05:23Z</time>
      </trkpt>
      <trkpt lat="47.65853" lon="6.18227">
        <ele>266.2</ele>
        <time>2022-01-23T15:05:24Z</time>
      </trkpt>
      <trkpt lat="47.65848" lon="6.18229">
        <ele>266.4</ele>
        <time>2022-01-23T15:05:31Z</time>
      </trkpt>
      <trkpt lat="47.65844" lon="6.18232">
        <ele>266.6</ele>
        <time>2022-01-23T15:05:33Z</time>
      </trkpt>
      <trkpt lat="47.65838" lon="6.18237">
        <ele>266.9</ele>
        <time>2022-01-23T15:05:37Z</time>
      </trkpt>
      <trkpt lat="47.65833" lon="6.18241">
        <ele>267.4</ele>
        <time>2022-01-23T15:05:39Z</time>
      </trkpt>
      <trkpt lat="47.65828" lon="6.18245">
        <ele>267.5</ele>
        <time>2022-01-23T15:05:41Z</time>
      </trkpt>
      <trkpt lat="47.6582" lon="6.18251">
        <ele>267.6</ele>
        <time>2022-01-23T15:05:44Z</time>
      </trkpt>
      <trkpt lat="47.65806" lon="6.1826">
        <ele>267.7</ele>
        <time>2022-01-23T15:05:48Z</time>
      </trkpt>
      <trkpt lat="47.65801" lon="6.18263">
        <ele>267.7</ele>
        <time>2022-01-23T15:05:50Z</time>
      </trkpt>
      <trkpt lat="47.65795" lon="6.18267">
        <ele>267.8</ele>
        <time>2022-01-23T15:05:51Z</time>
      </trkpt>
      <trkpt lat="47.65791" lon="6.1827">
        <ele>267.9</ele>
        <time>2022-01-23T15:05:52Z</time>
      </trkpt>
      <trkpt lat="47.65786" lon="6.18273">
        <ele>268</ele>
        <time>2022-01-23T15:05:54Z</time>
      </trkpt>
      <trkpt lat="47.6577" lon="6.18287">
        <ele>267.8</ele>
        <time>2022-01-23T15:05:58Z</time>
      </trkpt>
      <trkpt lat="47.65766" lon="6.18292">
        <ele>267.7</ele>
        <time>2022-01-23T15:06:00Z</time>
      </trkpt>
      <trkpt lat="47.6576" lon="6.18297">
        <ele>267.4</ele>
        <time>2022-01-23T15:06:01Z</time>
      </trkpt>
      <trkpt lat="47.65755" lon="6.18302">
        <ele>267.3</ele>
        <time>2022-01-23T15:06:03Z</time>
      </trkpt>
      <trkpt lat="47.65749" lon="6.18309">
        <ele>267.2</ele>
        <time>2022-01-23T15:06:05Z</time>
      </trkpt>
      <trkpt lat="47.65744" lon="6.18315">
        <ele>267.4</ele>
        <time>2022-01-23T15:06:07Z</time>
      </trkpt>
      <trkpt lat="47.6574" lon="6.1832">
        <ele>267.7</ele>
        <time>2022-01-23T15:06:08Z</time>
      </trkpt>
      <trkpt lat="47.65735" lon="6.18325">
        <ele>267.9</ele>
        <time>2022-01-23T15:06:10Z</time>
      </trkpt>
      <trkpt lat="47.6573" lon="6.18332">
        <ele>268.2</ele>
        <time>2022-01-23T15:06:13Z</time>
      </trkpt>
      <trkpt lat="47.65725" lon="6.18335">
        <ele>268.3</ele>
        <time>2022-01-23T15:06:15Z</time>
      </trkpt>
      <trkpt lat="47.6572" lon="6.1834">
        <ele>268.7</ele>
        <time>2022-01-23T15:06:18Z</time>
      </trkpt>
      <trkpt lat="47.65716" lon="6.18355">
        <ele>270.3</ele>
        <time>2022-01-23T15:06:25Z</time>
      </trkpt>
      <trkpt lat="47.65714" lon="6.18361">
        <ele>271</ele>
        <time>2022-01-23T15:06:29Z</time>
      </trkpt>
      <trkpt lat="47.65709" lon="6.18364">
        <ele>271.4</ele>
        <time>2022-01-23T15:06:33Z</time>
      </trkpt>
      <trkpt lat="47.65704" lon="6.18364">
        <ele>271.4</ele>
        <time>2022-01-23T15:06:35Z</time>
      </trkpt>
      <trkpt lat="47.65699" lon="6.18365">
        <ele>271.5</ele>
        <time>2022-01-23T15:06:39Z</time>
      </trkpt>
      <trkpt lat="47.65692" lon="6.18367">
        <ele>271.9</ele>
        <time>2022-01-23T15:06:41Z</time>
      </trkpt>
      <trkpt lat="47.65687" lon="6.18372">
        <ele>272.5</ele>
        <time>2022-01-23T15:06:44Z</time>
      </trkpt>
      <trkpt lat="47.6568" lon="6.18375">
        <ele>273</ele>
        <time>2022-01-23T15:06:46Z</time>
      </trkpt>
      <trkpt lat="47.65673" lon="6.18376">
        <ele>273.1</ele>
        <time>2022-01-23T15:06:48Z</time>
      </trkpt>
      <trkpt lat="47.65667" lon="6.18377">
        <ele>273.3</ele>
        <time>2022-01-23T15:06:50Z</time>
      </trkpt>
      <trkpt lat="47.6566" lon="6.18378">
        <ele>273.2</ele>
        <time>2022-01-23T15:06:52Z</time>
      </trkpt>
      <trkpt lat="47.65654" lon="6.18379">
        <ele>273.2</ele>
        <time>2022-01-23T15:06:54Z</time>
      </trkpt>
      <trkpt lat="47.65648" lon="6.1838">
        <ele>273.1</ele>
        <time>2022-01-23T15:06:56Z</time>
      </trkpt>
      <trkpt lat="47.65643" lon="6.18381">
        <ele>273</ele>
        <time>2022-01-23T15:06:58Z</time>
      </trkpt>
      <trkpt lat="47.65637" lon="6.18383">
        <ele>273.1</ele>
        <time>2022-01-23T15:07:00Z</time>
      </trkpt>
      <trkpt lat="47.65626" lon="6.18387">
        <ele>273.2</ele>
        <time>2022-01-23T15:07:04Z</time>
      </trkpt>
      <trkpt lat="47.6562" lon="6.18388">
        <ele>273.1</ele>
        <time>2022-01-23T15:07:07Z</time>
      </trkpt>
      <trkpt lat="47.65615" lon="6.18391">
        <ele>273.4</ele>
        <time>2022-01-23T15:07:10Z</time>
      </trkpt>
      <trkpt lat="47.6561" lon="6.18392">
        <ele>273.4</ele>
        <time>2022-01-23T15:07:12Z</time>
      </trkpt>
      <trkpt lat="47.65599" lon="6.18397">
        <ele>273.2</ele>
        <time>2022-01-23T15:07:16Z</time>
      </trkpt>
      <trkpt lat="47.65593" lon="6.18401">
        <ele>273.4</ele>
        <time>2022-01-23T15:07:18Z</time>
      </trkpt>
      <trkpt lat="47.65587" lon="6.18403">
        <ele>273.3</ele>
        <time>2022-01-23T15:07:20Z</time>
      </trkpt>
      <trkpt lat="47.65575" lon="6.18403">
        <ele>272.3</ele>
        <time>2022-01-23T15:07:23Z</time>
      </trkpt>
      <trkpt lat="47.65562" lon="6.18405">
        <ele>271</ele>
        <time>2022-01-23T15:07:27Z</time>
      </trkpt>
      <trkpt lat="47.65556" lon="6.18407">
        <ele>270.6</ele>
        <time>2022-01-23T15:07:28Z</time>
      </trkpt>
      <trkpt lat="47.65551" lon="6.18409">
        <ele>270.5</ele>
        <time>2022-01-23T15:07:30Z</time>
      </trkpt>
      <trkpt lat="47.65545" lon="6.18412">
        <ele>270.6</ele>
        <time>2022-01-23T15:07:32Z</time>
      </trkpt>
      <trkpt lat="47.6554" lon="6.18415">
        <ele>270.7</ele>
        <time>2022-01-23T15:07:33Z</time>
      </trkpt>
      <trkpt lat="47.6553" lon="6.18422">
        <ele>270.8</ele>
        <time>2022-01-23T15:07:36Z</time>
      </trkpt>
      <trkpt lat="47.65524" lon="6.18427">
        <ele>270.9</ele>
        <time>2022-01-23T15:07:38Z</time>
      </trkpt>
      <trkpt lat="47.65513" lon="6.18437">
        <ele>271.1</ele>
        <time>2022-01-23T15:07:41Z</time>
      </trkpt>
      <trkpt lat="47.65503" lon="6.18444">
        <ele>271.2</ele>
        <time>2022-01-23T15:07:45Z</time>
      </trkpt>
      <trkpt lat="47.65498" lon="6.18448">
        <ele>271</ele>
        <time>2022-01-23T15:07:46Z</time>
      </trkpt>
      <trkpt lat="47.65489" lon="6.18455">
        <ele>270.7</ele>
        <time>2022-01-23T15:07:49Z</time>
      </trkpt>
      <trkpt lat="47.65477" lon="6.18465">
        <ele>270.6</ele>
        <time>2022-01-23T15:07:53Z</time>
      </trkpt>
      <trkpt lat="47.65472" lon="6.1847">
        <ele>270.7</ele>
        <time>2022-01-23T15:07:55Z</time>
      </trkpt>
      <trkpt lat="47.65465" lon="6.18475">
        <ele>270.6</ele>
        <time>2022-01-23T15:07:57Z</time>
      </trkpt>
      <trkpt lat="47.6546" lon="6.18481">
        <ele>270.4</ele>
        <time>2022-01-23T15:07:59Z</time>
      </trkpt>
      <trkpt lat="47.65455" lon="6.18487">
        <ele>270.3</ele>
        <time>2022-01-23T15:08:01Z</time>
      </trkpt>
      <trkpt lat="47.6545" lon="6.18493">
        <ele>270.2</ele>
        <time>2022-01-23T15:08:02Z</time>
      </trkpt>
      <trkpt lat="47.65447" lon="6.18497">
        <ele>270.1</ele>
        <time>2022-01-23T15:08:04Z</time>
      </trkpt>
      <trkpt lat="47.65435" lon="6.18513">
        <ele>270.5</ele>
        <time>2022-01-23T15:08:08Z</time>
      </trkpt>
      <trkpt lat="47.65428" lon="6.18525">
        <ele>270.9</ele>
        <time>2022-01-23T15:08:10Z</time>
      </trkpt>
      <trkpt lat="47.65423" lon="6.18532">
        <ele>271.1</ele>
        <time>2022-01-23T15:08:12Z</time>
      </trkpt>
      <trkpt lat="47.65419" lon="6.18539">
        <ele>271.1</ele>
        <time>2022-01-23T15:08:14Z</time>
      </trkpt>
      <trkpt lat="47.65413" lon="6.18551">
        <ele>270.8</ele>
        <time>2022-01-23T15:08:15Z</time>
      </trkpt>
      <trkpt lat="47.65409" lon="6.18557">
        <ele>270.8</ele>
        <time>2022-01-23T15:08:17Z</time>
      </trkpt>
      <trkpt lat="47.65405" lon="6.18563">
        <ele>270.8</ele>
        <time>2022-01-23T15:08:19Z</time>
      </trkpt>
      <trkpt lat="47.65401" lon="6.18569">
        <ele>270.9</ele>
        <time>2022-01-23T15:08:24Z</time>
      </trkpt>
      <trkpt lat="47.65395" lon="6.18575">
        <ele>270.9</ele>
        <time>2022-01-23T15:08:26Z</time>
      </trkpt>
      <trkpt lat="47.65391" lon="6.18579">
        <ele>271</ele>
        <time>2022-01-23T15:08:27Z</time>
      </trkpt>
      <trkpt lat="47.65388" lon="6.18585">
        <ele>271</ele>
        <time>2022-01-23T15:08:29Z</time>
      </trkpt>
      <trkpt lat="47.65383" lon="6.18592">
        <ele>271.1</ele>
        <time>2022-01-23T15:08:31Z</time>
      </trkpt>
      <trkpt lat="47.65378" lon="6.18599">
        <ele>271.2</ele>
        <time>2022-01-23T15:08:33Z</time>
      </trkpt>
      <trkpt lat="47.65374" lon="6.18605">
        <ele>271.2</ele>
        <time>2022-01-23T15:08:35Z</time>
      </trkpt>
      <trkpt lat="47.65371" lon="6.1861">
        <ele>271.3</ele>
        <time>2022-01-23T15:08:36Z</time>
      </trkpt>
      <trkpt lat="47.65364" lon="6.18621">
        <ele>271.8</ele>
        <time>2022-01-23T15:08:38Z</time>
      </trkpt>
      <trkpt lat="47.6536" lon="6.18627">
        <ele>272.1</ele>
        <time>2022-01-23T15:08:43Z</time>
      </trkpt>
      <trkpt lat="47.65356" lon="6.18631">
        <ele>272.5</ele>
        <time>2022-01-23T15:08:46Z</time>
      </trkpt>
      <trkpt lat="47.65353" lon="6.18638">
        <ele>272.9</ele>
        <time>2022-01-23T15:08:47Z</time>
      </trkpt>
      <trkpt lat="47.65349" lon="6.18643">
        <ele>273.1</ele>
        <time>2022-01-23T15:08:54Z</time>
      </trkpt>
      <trkpt lat="47.65345" lon="6.18648">
        <ele>273.3</ele>
        <time>2022-01-23T15:08:57Z</time>
      </trkpt>
      <trkpt lat="47.65342" lon="6.18654">
        <ele>273.5</ele>
        <time>2022-01-23T15:09:00Z</time>
      </trkpt>
      <trkpt lat="47.65338" lon="6.18659">
        <ele>273.7</ele>
        <time>2022-01-23T15:09:02Z</time>
      </trkpt>
      <trkpt lat="47.65334" lon="6.18665">
        <ele>273.9</ele>
        <time>2022-01-23T15:09:05Z</time>
      </trkpt>
      <trkpt lat="47.6533" lon="6.1867">
        <ele>273.9</ele>
        <time>2022-01-23T15:09:07Z</time>
      </trkpt>
      <trkpt lat="47.65322" lon="6.18679">
        <ele>273.6</ele>
        <time>2022-01-23T15:09:11Z</time>
      </trkpt>
      <trkpt lat="47.65312" lon="6.18691">
        <ele>273.2</ele>
        <time>2022-01-23T15:09:16Z</time>
      </trkpt>
      <trkpt lat="47.65308" lon="6.18696">
        <ele>273.1</ele>
        <time>2022-01-23T15:09:18Z</time>
      </trkpt>
      <trkpt lat="47.65303" lon="6.18702">
        <ele>273.1</ele>
        <time>2022-01-23T15:09:20Z</time>
      </trkpt>
      <trkpt lat="47.65298" lon="6.18708">
        <ele>272.9</ele>
        <time>2022-01-23T15:09:22Z</time>
      </trkpt>
      <trkpt lat="47.65287" lon="6.1872">
        <ele>272.6</ele>
        <time>2022-01-23T15:09:25Z</time>
      </trkpt>
      <trkpt lat="47.65283" lon="6.18724">
        <ele>272.4</ele>
        <time>2022-01-23T15:09:26Z</time>
      </trkpt>
      <trkpt lat="47.65279" lon="6.18728">
        <ele>272.1</ele>
        <time>2022-01-23T15:09:27Z</time>
      </trkpt>
      <trkpt lat="47.65268" lon="6.18741">
        <ele>271.3</ele>
        <time>2022-01-23T15:09:29Z</time>
      </trkpt>
      <trkpt lat="47.65263" lon="6.18746">
        <ele>270.9</ele>
        <time>2022-01-23T15:09:31Z</time>
      </trkpt>
      <trkpt lat="47.65258" lon="6.18752">
        <ele>270.7</ele>
        <time>2022-01-23T15:09:32Z</time>
      </trkpt>
      <trkpt lat="47.65253" lon="6.18758">
        <ele>270.5</ele>
        <time>2022-01-23T15:09:33Z</time>
      </trkpt>
      <trkpt lat="47.65248" lon="6.18764">
        <ele>270.4</ele>
        <time>2022-01-23T15:09:35Z</time>
      </trkpt>
      <trkpt lat="47.65244" lon="6.18769">
        <ele>270.5</ele>
        <time>2022-01-23T15:09:36Z</time>
      </trkpt>
      <trkpt lat="47.6524" lon="6.18773">
        <ele>270.5</ele>
        <time>2022-01-23T15:09:37Z</time>
      </trkpt>
      <trkpt lat="47.65233" lon="6.1878">
        <ele>270.4</ele>
        <time>2022-01-23T15:09:39Z</time>
      </trkpt>
      <trkpt lat="47.65228" lon="6.18786">
        <ele>270.2</ele>
        <time>2022-01-23T15:09:41Z</time>
      </trkpt>
      <trkpt lat="47.65218" lon="6.18797">
        <ele>269.9</ele>
        <time>2022-01-23T15:09:45Z</time>
      </trkpt>
      <trkpt lat="47.65213" lon="6.18802">
        <ele>270</ele>
        <time>2022-01-23T15:09:46Z</time>
      </trkpt>
      <trkpt lat="47.65203" lon="6.18813">
        <ele>270</ele>
        <time>2022-01-23T15:09:47Z</time>
      </trkpt>
      <trkpt lat="47.65197" lon="6.1882">
        <ele>270</ele>
        <time>2022-01-23T15:09:50Z</time>
      </trkpt>
      <trkpt lat="47.65193" lon="6.18825">
        <ele>270</ele>
        <time>2022-01-23T15:09:52Z</time>
      </trkpt>
      <trkpt lat="47.65188" lon="6.18829">
        <ele>270.2</ele>
        <time>2022-01-23T15:09:54Z</time>
      </trkpt>
      <trkpt lat="47.65184" lon="6.18834">
        <ele>270.4</ele>
        <time>2022-01-23T15:09:56Z</time>
      </trkpt>
      <trkpt lat="47.65179" lon="6.18839">
        <ele>270.6</ele>
        <time>2022-01-23T15:10:02Z</time>
      </trkpt>
      <trkpt lat="47.6517" lon="6.18848">
        <ele>270.9</ele>
        <time>2022-01-23T15:10:02Z</time>
      </trkpt>
      <trkpt lat="47.65165" lon="6.18853">
        <ele>271</ele>
        <time>2022-01-23T15:10:08Z</time>
      </trkpt>
      <trkpt lat="47.6516" lon="6.18858">
        <ele>271</ele>
        <time>2022-01-23T15:10:11Z</time>
      </trkpt>
      <trkpt lat="47.65149" lon="6.18869">
        <ele>270.8</ele>
        <time>2022-01-23T15:10:15Z</time>
      </trkpt>
      <trkpt lat="47.65144" lon="6.18874">
        <ele>270.6</ele>
        <time>2022-01-23T15:10:16Z</time>
      </trkpt>
      <trkpt lat="47.6514" lon="6.18879">
        <ele>270.4</ele>
        <time>2022-01-23T15:10:17Z</time>
      </trkpt>
      <trkpt lat="47.65136" lon="6.18883">
        <ele>270.2</ele>
        <time>2022-01-23T15:10:18Z</time>
      </trkpt>
      <trkpt lat="47.65131" lon="6.18888">
        <ele>270</ele>
        <time>2022-01-23T15:10:20Z</time>
      </trkpt>
      <trkpt lat="47.65127" lon="6.18893">
        <ele>270</ele>
        <time>2022-01-23T15:10:21Z</time>
      </trkpt>
      <trkpt lat="47.65123" lon="6.18897">
        <ele>270</ele>
        <time>2022-01-23T15:10:22Z</time>
      </trkpt>
      <trkpt lat="47.65119" lon="6.18902">
        <ele>270</ele>
        <time>2022-01-23T15:10:23Z</time>
      </trkpt>
      <trkpt lat="47.65115" lon="6.18906">
        <ele>270</ele>
        <time>2022-01-23T15:10:24Z</time>
      </trkpt>
      <trkpt lat="47.6511" lon="6.18911">
        <ele>270</ele>
        <time>2022-01-23T15:10:25Z</time>
      </trkpt>
      <trkpt lat="47.651" lon="6.18922">
        <ele>270.6</ele>
        <time>2022-01-23T15:10:27Z</time>
      </trkpt>
      <trkpt lat="47.65095" lon="6.18927">
        <ele>271</ele>
        <time>2022-01-23T15:10:29Z</time>
      </trkpt>
      <trkpt lat="47.65086" lon="6.18937">
        <ele>271.6</ele>
        <time>2022-01-23T15:10:31Z</time>
      </trkpt>
      <trkpt lat="47.65081" lon="6.18942">
        <ele>271.9</ele>
        <time>2022-01-23T15:10:33Z</time>
      </trkpt>
      <trkpt lat="47.65072" lon="6.18952">
        <ele>272.2</ele>
        <time>2022-01-23T15:10:37Z</time>
      </trkpt>
      <trkpt lat="47.65065" lon="6.18961">
        <ele>272.2</ele>
        <time>2022-01-23T15:10:39Z</time>
      </trkpt>
      <trkpt lat="47.65054" lon="6.18975">
        <ele>271.9</ele>
        <time>2022-01-23T15:10:39Z</time>
      </trkpt>
      <trkpt lat="47.65048" lon="6.18982">
        <ele>271.6</ele>
        <time>2022-01-23T15:10:45Z</time>
      </trkpt>
      <trkpt lat="47.65039" lon="6.18992">
        <ele>271</ele>
        <time>2022-01-23T15:10:47Z</time>
      </trkpt>
      <trkpt lat="47.65035" lon="6.18997">
        <ele>270.6</ele>
        <time>2022-01-23T15:10:48Z</time>
      </trkpt>
      <trkpt lat="47.6503" lon="6.19002">
        <ele>270.2</ele>
        <time>2022-01-23T15:10:50Z</time>
      </trkpt>
      <trkpt lat="47.65026" lon="6.19007">
        <ele>269.9</ele>
        <time>2022-01-23T15:10:51Z</time>
      </trkpt>
      <trkpt lat="47.65002" lon="6.19029">
        <ele>268.2</ele>
        <time>2022-01-23T15:10:51Z</time>
      </trkpt>
      <trkpt lat="47.64998" lon="6.19034">
        <ele>267.9</ele>
        <time>2022-01-23T15:10:52Z</time>
      </trkpt>
      <trkpt lat="47.64994" lon="6.1904">
        <ele>267.8</ele>
        <time>2022-01-23T15:10:53Z</time>
      </trkpt>
      <trkpt lat="47.64992" lon="6.19047">
        <ele>267.7</ele>
        <time>2022-01-23T15:10:54Z</time>
      </trkpt>
      <trkpt lat="47.64992" lon="6.19054">
        <ele>267.7</ele>
        <time>2022-01-23T15:10:55Z</time>
      </trkpt>
      <trkpt lat="47.64995" lon="6.19063">
        <ele>267.8</ele>
        <time>2022-01-23T15:10:57Z</time>
      </trkpt>
      <trkpt lat="47.64999" lon="6.19071">
        <ele>267.9</ele>
        <time>2022-01-23T15:11:03Z</time>
      </trkpt>
      <trkpt lat="47.65003" lon="6.19077">
        <ele>268.1</ele>
        <time>2022-01-23T15:11:05Z</time>
      </trkpt>
      <trkpt lat="47.65007" lon="6.19084">
        <ele>268.2</ele>
        <time>2022-01-23T15:11:07Z</time>
      </trkpt>
      <trkpt lat="47.65017" lon="6.19098">
        <ele>268.4</ele>
        <time>2022-01-23T15:11:11Z</time>
      </trkpt>
      <trkpt lat="47.6502" lon="6.19103">
        <ele>268.5</ele>
        <time>2022-01-23T15:11:13Z</time>
      </trkpt>
      <trkpt lat="47.65027" lon="6.19116">
        <ele>268.9</ele>
        <time>2022-01-23T15:11:17Z</time>
      </trkpt>
      <trkpt lat="47.65033" lon="6.19128">
        <ele>269.2</ele>
        <time>2022-01-23T15:11:17Z</time>
      </trkpt>
      <trkpt lat="47.65037" lon="6.19134">
        <ele>269.3</ele>
        <time>2022-01-23T15:11:19Z</time>
      </trkpt>
      <trkpt lat="47.65039" lon="6.19141">
        <ele>269.4</ele>
        <time>2022-01-23T15:11:21Z</time>
      </trkpt>
      <trkpt lat="47.65043" lon="6.19149">
        <ele>269.4</ele>
        <time>2022-01-23T15:11:27Z</time>
      </trkpt>
      <trkpt lat="47.65045" lon="6.19155">
        <ele>269.4</ele>
        <time>2022-01-23T15:11:29Z</time>
      </trkpt>
      <trkpt lat="47.65048" lon="6.19161">
        <ele>269.5</ele>
        <time>2022-01-23T15:11:32Z</time>
      </trkpt>
      <trkpt lat="47.65052" lon="6.19167">
        <ele>269.7</ele>
        <time>2022-01-23T15:11:34Z</time>
      </trkpt>
      <trkpt lat="47.65055" lon="6.19173">
        <ele>269.7</ele>
        <time>2022-01-23T15:11:35Z</time>
      </trkpt>
      <trkpt lat="47.65058" lon="6.19179">
        <ele>269.6</ele>
        <time>2022-01-23T15:11:38Z</time>
      </trkpt>
      <trkpt lat="47.65067" lon="6.1919">
        <ele>269.5</ele>
        <time>2022-01-23T15:11:42Z</time>
      </trkpt>
      <trkpt lat="47.65072" lon="6.19196">
        <ele>269.6</ele>
        <time>2022-01-23T15:11:45Z</time>
      </trkpt>
      <trkpt lat="47.65078" lon="6.19207">
        <ele>269.7</ele>
        <time>2022-01-23T15:11:50Z</time>
      </trkpt>
      <trkpt lat="47.65083" lon="6.19214">
        <ele>270</ele>
        <time>2022-01-23T15:11:53Z</time>
      </trkpt>
      <trkpt lat="47.65087" lon="6.1922">
        <ele>270.1</ele>
        <time>2022-01-23T15:11:55Z</time>
      </trkpt>
      <trkpt lat="47.65091" lon="6.19226">
        <ele>270.3</ele>
        <time>2022-01-23T15:11:57Z</time>
      </trkpt>
      <trkpt lat="47.651" lon="6.19237">
        <ele>270.6</ele>
        <time>2022-01-23T15:12:01Z</time>
      </trkpt>
      <trkpt lat="47.65103" lon="6.19242">
        <ele>270.7</ele>
        <time>2022-01-23T15:12:03Z</time>
      </trkpt>
      <trkpt lat="47.65107" lon="6.19248">
        <ele>270.9</ele>
        <time>2022-01-23T15:12:06Z</time>
      </trkpt>
      <trkpt lat="47.65115" lon="6.19258">
        <ele>271.1</ele>
        <time>2022-01-23T15:12:10Z</time>
      </trkpt>
      <trkpt lat="47.65118" lon="6.19263">
        <ele>271.3</ele>
        <time>2022-01-23T15:12:12Z</time>
      </trkpt>
      <trkpt lat="47.65123" lon="6.19269">
        <ele>271.4</ele>
        <time>2022-01-23T15:12:15Z</time>
      </trkpt>
      <trkpt lat="47.65128" lon="6.19275">
        <ele>271.6</ele>
        <time>2022-01-23T15:12:18Z</time>
      </trkpt>
      <trkpt lat="47.65132" lon="6.1928">
        <ele>271.7</ele>
        <time>2022-01-23T15:12:20Z</time>
      </trkpt>
      <trkpt lat="47.65135" lon="6.19284">
        <ele>271.8</ele>
        <time>2022-01-23T15:12:22Z</time>
      </trkpt>
      <trkpt lat="47.6514" lon="6.19288">
        <ele>272</ele>
        <time>2022-01-23T15:12:25Z</time>
      </trkpt>
      <trkpt lat="47.65145" lon="6.19292">
        <ele>272</ele>
        <time>2022-01-23T15:12:28Z</time>
      </trkpt>
      <trkpt lat="47.65154" lon="6.193">
        <ele>272</ele>
        <time>2022-01-23T15:12:28Z</time>
      </trkpt>
      <trkpt lat="47.65158" lon="6.19303">
        <ele>272</ele>
        <time>2022-01-23T15:12:34Z</time>
      </trkpt>
      <trkpt lat="47.65165" lon="6.19309">
        <ele>271.9</ele>
        <time>2022-01-23T15:12:37Z</time>
      </trkpt>
      <trkpt lat="47.65169" lon="6.19313">
        <ele>271.8</ele>
        <time>2022-01-23T15:12:39Z</time>
      </trkpt>
      <trkpt lat="47.65173" lon="6.19318">
        <ele>271.8</ele>
        <time>2022-01-23T15:12:41Z</time>
      </trkpt>
      <trkpt lat="47.65178" lon="6.19322">
        <ele>271.8</ele>
        <time>2022-01-23T15:12:43Z</time>
      </trkpt>
      <trkpt lat="47.65181" lon="6.19326">
        <ele>271.8</ele>
        <time>2022-01-23T15:12:44Z</time>
      </trkpt>
      <trkpt lat="47.65186" lon="6.19332">
        <ele>271.7</ele>
        <time>2022-01-23T15:12:47Z</time>
      </trkpt>
      <trkpt lat="47.65189" lon="6.19337">
        <ele>271.7</ele>
        <time>2022-01-23T15:12:48Z</time>
      </trkpt>
      <trkpt lat="47.65193" lon="6.19343">
        <ele>271.6</ele>
        <time>2022-01-23T15:12:50Z</time>
      </trkpt>
      <trkpt lat="47.65196" lon="6.1935">
        <ele>271.4</ele>
        <time>2022-01-23T15:12:52Z</time>
      </trkpt>
      <trkpt lat="47.652" lon="6.19357">
        <ele>271.1</ele>
        <time>2022-01-23T15:12:53Z</time>
      </trkpt>
      <trkpt lat="47.65206" lon="6.19368">
        <ele>271</ele>
        <time>2022-01-23T15:12:56Z</time>
      </trkpt>
      <trkpt lat="47.65209" lon="6.19374">
        <ele>271</ele>
        <time>2022-01-23T15:12:57Z</time>
      </trkpt>
      <trkpt lat="47.65217" lon="6.19389">
        <ele>271</ele>
        <time>2022-01-23T15:13:00Z</time>
      </trkpt>
      <trkpt lat="47.65227" lon="6.19409">
        <ele>270.5</ele>
        <time>2022-01-23T15:13:04Z</time>
      </trkpt>
      <trkpt lat="47.6523" lon="6.19416">
        <ele>270.6</ele>
        <time>2022-01-23T15:13:05Z</time>
      </trkpt>
      <trkpt lat="47.65239" lon="6.19431">
        <ele>271.2</ele>
        <time>2022-01-23T15:13:07Z</time>
      </trkpt>
      <trkpt lat="47.65243" lon="6.19436">
        <ele>271.5</ele>
        <time>2022-01-23T15:13:08Z</time>
      </trkpt>
      <trkpt lat="47.65246" lon="6.19442">
        <ele>271.7</ele>
        <time>2022-01-23T15:13:09Z</time>
      </trkpt>
      <trkpt lat="47.6525" lon="6.19447">
        <ele>271.9</ele>
        <time>2022-01-23T15:13:11Z</time>
      </trkpt>
      <trkpt lat="47.65259" lon="6.19457">
        <ele>271.7</ele>
        <time>2022-01-23T15:13:14Z</time>
      </trkpt>
      <trkpt lat="47.65263" lon="6.19464">
        <ele>271.6</ele>
        <time>2022-01-23T15:13:15Z</time>
      </trkpt>
      <trkpt lat="47.65267" lon="6.19469">
        <ele>271.6</ele>
        <time>2022-01-23T15:13:17Z</time>
      </trkpt>
      <trkpt lat="47.65271" lon="6.19476">
        <ele>271.7</ele>
        <time>2022-01-23T15:13:19Z</time>
      </trkpt>
      <trkpt lat="47.65276" lon="6.19486">
        <ele>271.9</ele>
        <time>2022-01-23T15:13:21Z</time>
      </trkpt>
      <trkpt lat="47.6528" lon="6.19492">
        <ele>272</ele>
        <time>2022-01-23T15:13:22Z</time>
      </trkpt>
      <trkpt lat="47.65283" lon="6.19498">
        <ele>272</ele>
        <time>2022-01-23T15:13:23Z</time>
      </trkpt>
      <trkpt lat="47.65287" lon="6.19506">
        <ele>271.7</ele>
        <time>2022-01-23T15:13:25Z</time>
      </trkpt>
      <trkpt lat="47.65289" lon="6.19513">
        <ele>271.4</ele>
        <time>2022-01-23T15:13:26Z</time>
      </trkpt>
      <trkpt lat="47.65291" lon="6.19519">
        <ele>271</ele>
        <time>2022-01-23T15:13:27Z</time>
      </trkpt>
      <trkpt lat="47.65296" lon="6.19538">
        <ele>269.9</ele>
        <time>2022-01-23T15:13:31Z</time>
      </trkpt>
      <trkpt lat="47.65303" lon="6.19551">
        <ele>269.2</ele>
        <time>2022-01-23T15:13:33Z</time>
      </trkpt>
      <trkpt lat="47.65306" lon="6.19557">
        <ele>268.9</ele>
        <time>2022-01-23T15:13:35Z</time>
      </trkpt>
      <trkpt lat="47.65322" lon="6.19592">
        <ele>268.5</ele>
        <time>2022-01-23T15:13:35Z</time>
      </trkpt>
      <trkpt lat="47.65325" lon="6.19601">
        <ele>268.5</ele>
        <time>2022-01-23T15:13:36Z</time>
      </trkpt>
      <trkpt lat="47.65328" lon="6.19609">
        <ele>268.6</ele>
        <time>2022-01-23T15:13:37Z</time>
      </trkpt>
      <trkpt lat="47.65331" lon="6.19618">
        <ele>268.8</ele>
        <time>2022-01-23T15:13:38Z</time>
      </trkpt>
      <trkpt lat="47.65333" lon="6.19626">
        <ele>269</ele>
        <time>2022-01-23T15:13:39Z</time>
      </trkpt>
      <trkpt lat="47.65336" lon="6.19633">
        <ele>269.2</ele>
        <time>2022-01-23T15:13:40Z</time>
      </trkpt>
      <trkpt lat="47.65339" lon="6.1964">
        <ele>269.4</ele>
        <time>2022-01-23T15:13:41Z</time>
      </trkpt>
      <trkpt lat="47.65343" lon="6.19649">
        <ele>269.4</ele>
        <time>2022-01-23T15:13:43Z</time>
      </trkpt>
      <trkpt lat="47.65345" lon="6.19658">
        <ele>269.5</ele>
        <time>2022-01-23T15:13:45Z</time>
      </trkpt>
      <trkpt lat="47.65348" lon="6.19667">
        <ele>269.6</ele>
        <time>2022-01-23T15:13:47Z</time>
      </trkpt>
      <trkpt lat="47.65349" lon="6.19677">
        <ele>269.3</ele>
        <time>2022-01-23T15:13:50Z</time>
      </trkpt>
      <trkpt lat="47.65352" lon="6.19684">
        <ele>269.4</ele>
        <time>2022-01-23T15:13:56Z</time>
      </trkpt>
      <trkpt lat="47.65361" lon="6.19699">
        <ele>269.8</ele>
        <time>2022-01-23T15:14:00Z</time>
      </trkpt>
      <trkpt lat="47.65365" lon="6.19708">
        <ele>270.1</ele>
        <time>2022-01-23T15:14:02Z</time>
      </trkpt>
      <trkpt lat="47.65368" lon="6.19713">
        <ele>270.4</ele>
        <time>2022-01-23T15:14:03Z</time>
      </trkpt>
      <trkpt lat="47.65375" lon="6.19728">
        <ele>271.3</ele>
        <time>2022-01-23T15:14:07Z</time>
      </trkpt>
      <trkpt lat="47.65377" lon="6.19736">
        <ele>271.7</ele>
        <time>2022-01-23T15:14:09Z</time>
      </trkpt>
      <trkpt lat="47.6538" lon="6.19742">
        <ele>271.9</ele>
        <time>2022-01-23T15:14:11Z</time>
      </trkpt>
      <trkpt lat="47.65385" lon="6.19755">
        <ele>272</ele>
        <time>2022-01-23T15:14:15Z</time>
      </trkpt>
      <trkpt lat="47.65389" lon="6.19762">
        <ele>271.6</ele>
        <time>2022-01-23T15:14:18Z</time>
      </trkpt>
      <trkpt lat="47.65391" lon="6.19769">
        <ele>271.3</ele>
        <time>2022-01-23T15:14:20Z</time>
      </trkpt>
      <trkpt lat="47.65395" lon="6.19775">
        <ele>271.1</ele>
        <time>2022-01-23T15:14:21Z</time>
      </trkpt>
      <trkpt lat="47.65399" lon="6.19784">
        <ele>270.9</ele>
        <time>2022-01-23T15:14:24Z</time>
      </trkpt>
      <trkpt lat="47.65401" lon="6.1979">
        <ele>270.9</ele>
        <time>2022-01-23T15:14:25Z</time>
      </trkpt>
      <trkpt lat="47.65406" lon="6.19799">
        <ele>270.9</ele>
        <time>2022-01-23T15:14:28Z</time>
      </trkpt>
      <trkpt lat="47.65409" lon="6.19805">
        <ele>270.9</ele>
        <time>2022-01-23T15:14:30Z</time>
      </trkpt>
      <trkpt lat="47.65413" lon="6.19812">
        <ele>271.2</ele>
        <time>2022-01-23T15:14:32Z</time>
      </trkpt>
      <trkpt lat="47.65416" lon="6.19818">
        <ele>271.4</ele>
        <time>2022-01-23T15:14:34Z</time>
      </trkpt>
      <trkpt lat="47.65419" lon="6.19825">
        <ele>271.6</ele>
        <time>2022-01-23T15:14:36Z</time>
      </trkpt>
      <trkpt lat="47.65422" lon="6.19832">
        <ele>271.6</ele>
        <time>2022-01-23T15:14:39Z</time>
      </trkpt>
      <trkpt lat="47.65426" lon="6.19839">
        <ele>271.8</ele>
        <time>2022-01-23T15:14:41Z</time>
      </trkpt>
      <trkpt lat="47.65429" lon="6.19844">
        <ele>271.9</ele>
        <time>2022-01-23T15:14:43Z</time>
      </trkpt>
      <trkpt lat="47.65432" lon="6.1985">
        <ele>272</ele>
        <time>2022-01-23T15:14:45Z</time>
      </trkpt>
      <trkpt lat="47.65435" lon="6.19856">
        <ele>272.2</ele>
        <time>2022-01-23T15:14:47Z</time>
      </trkpt>
      <trkpt lat="47.65442" lon="6.19871">
        <ele>272</ele>
        <time>2022-01-23T15:14:53Z</time>
      </trkpt>
      <trkpt lat="47.65446" lon="6.19878">
        <ele>271.9</ele>
        <time>2022-01-23T15:14:55Z</time>
      </trkpt>
      <trkpt lat="47.65448" lon="6.19885">
        <ele>271.5</ele>
        <time>2022-01-23T15:14:58Z</time>
      </trkpt>
      <trkpt lat="47.65451" lon="6.19892">
        <ele>271.3</ele>
        <time>2022-01-23T15:14:59Z</time>
      </trkpt>
      <trkpt lat="47.65454" lon="6.19898">
        <ele>271.1</ele>
        <time>2022-01-23T15:15:01Z</time>
      </trkpt>
      <trkpt lat="47.65458" lon="6.19908">
        <ele>271</ele>
        <time>2022-01-23T15:15:03Z</time>
      </trkpt>
      <trkpt lat="47.65461" lon="6.19915">
        <ele>270.9</ele>
        <time>2022-01-23T15:15:04Z</time>
      </trkpt>
      <trkpt lat="47.65464" lon="6.19921">
        <ele>270.8</ele>
        <time>2022-01-23T15:15:06Z</time>
      </trkpt>
      <trkpt lat="47.65469" lon="6.19934">
        <ele>270.9</ele>
        <time>2022-01-23T15:15:08Z</time>
      </trkpt>
      <trkpt lat="47.65474" lon="6.19944">
        <ele>271.1</ele>
        <time>2022-01-23T15:15:11Z</time>
      </trkpt>
      <trkpt lat="47.65478" lon="6.19952">
        <ele>270.7</ele>
        <time>2022-01-23T15:15:13Z</time>
      </trkpt>
      <trkpt lat="47.65482" lon="6.19961">
        <ele>270.6</ele>
        <time>2022-01-23T15:15:15Z</time>
      </trkpt>
      <trkpt lat="47.65485" lon="6.19967">
        <ele>270.7</ele>
        <time>2022-01-23T15:15:16Z</time>
      </trkpt>
      <trkpt lat="47.65489" lon="6.19973">
        <ele>270.9</ele>
        <time>2022-01-23T15:15:18Z</time>
      </trkpt>
      <trkpt lat="47.65496" lon="6.19982">
        <ele>271.6</ele>
        <time>2022-01-23T15:15:22Z</time>
      </trkpt>
      <trkpt lat="47.65501" lon="6.19987">
        <ele>272</ele>
        <time>2022-01-23T15:15:24Z</time>
      </trkpt>
      <trkpt lat="47.65508" lon="6.19997">
        <ele>271.7</ele>
        <time>2022-01-23T15:15:29Z</time>
      </trkpt>
      <trkpt lat="47.65511" lon="6.20002">
        <ele>271.7</ele>
        <time>2022-01-23T15:15:32Z</time>
      </trkpt>
      <trkpt lat="47.65516" lon="6.20008">
        <ele>271.6</ele>
        <time>2022-01-23T15:15:34Z</time>
      </trkpt>
      <trkpt lat="47.6552" lon="6.20013">
        <ele>271.7</ele>
        <time>2022-01-23T15:15:36Z</time>
      </trkpt>
      <trkpt lat="47.65524" lon="6.20019">
        <ele>271.9</ele>
        <time>2022-01-23T15:15:38Z</time>
      </trkpt>
      <trkpt lat="47.65529" lon="6.20025">
        <ele>272.2</ele>
        <time>2022-01-23T15:15:40Z</time>
      </trkpt>
      <trkpt lat="47.65537" lon="6.20035">
        <ele>272.3</ele>
        <time>2022-01-23T15:15:44Z</time>
      </trkpt>
      <trkpt lat="47.6554" lon="6.20041">
        <ele>272.4</ele>
        <time>2022-01-23T15:15:46Z</time>
      </trkpt>
      <trkpt lat="47.65545" lon="6.20045">
        <ele>272.7</ele>
        <time>2022-01-23T15:15:49Z</time>
      </trkpt>
      <trkpt lat="47.65548" lon="6.2005">
        <ele>273</ele>
        <time>2022-01-23T15:15:51Z</time>
      </trkpt>
      <trkpt lat="47.65552" lon="6.20055">
        <ele>273.6</ele>
        <time>2022-01-23T15:15:54Z</time>
      </trkpt>
      <trkpt lat="47.65557" lon="6.20061">
        <ele>273.7</ele>
        <time>2022-01-23T15:15:56Z</time>
      </trkpt>
      <trkpt lat="47.65561" lon="6.20066">
        <ele>273.5</ele>
        <time>2022-01-23T15:15:59Z</time>
      </trkpt>
      <trkpt lat="47.65565" lon="6.20071">
        <ele>273.4</ele>
        <time>2022-01-23T15:16:01Z</time>
      </trkpt>
      <trkpt lat="47.65568" lon="6.20075">
        <ele>273.4</ele>
        <time>2022-01-23T15:16:02Z</time>
      </trkpt>
      <trkpt lat="47.65577" lon="6.20083">
        <ele>273.5</ele>
        <time>2022-01-23T15:16:02Z</time>
      </trkpt>
      <trkpt lat="47.65581" lon="6.20087">
        <ele>273.7</ele>
        <time>2022-01-23T15:16:08Z</time>
      </trkpt>
      <trkpt lat="47.65585" lon="6.20091">
        <ele>273.8</ele>
        <time>2022-01-23T15:16:10Z</time>
      </trkpt>
      <trkpt lat="47.65593" lon="6.201">
        <ele>274.1</ele>
        <time>2022-01-23T15:16:10Z</time>
      </trkpt>
      <trkpt lat="47.65597" lon="6.20105">
        <ele>274.2</ele>
        <time>2022-01-23T15:16:16Z</time>
      </trkpt>
      <trkpt lat="47.65601" lon="6.20108">
        <ele>274.4</ele>
        <time>2022-01-23T15:16:18Z</time>
      </trkpt>
      <trkpt lat="47.65606" lon="6.20113">
        <ele>274.5</ele>
        <time>2022-01-23T15:16:21Z</time>
      </trkpt>
      <trkpt lat="47.65614" lon="6.20122">
        <ele>274.9</ele>
        <time>2022-01-23T15:16:21Z</time>
      </trkpt>
      <trkpt lat="47.65619" lon="6.20128">
        <ele>275</ele>
        <time>2022-01-23T15:16:28Z</time>
      </trkpt>
      <trkpt lat="47.65628" lon="6.20137">
        <ele>275.3</ele>
        <time>2022-01-23T15:16:28Z</time>
      </trkpt>
      <trkpt lat="47.65632" lon="6.20142">
        <ele>275.4</ele>
        <time>2022-01-23T15:16:34Z</time>
      </trkpt>
      <trkpt lat="47.65636" lon="6.20149">
        <ele>275.4</ele>
        <time>2022-01-23T15:16:38Z</time>
      </trkpt>
      <trkpt lat="47.65644" lon="6.20157">
        <ele>275.5</ele>
        <time>2022-01-23T15:16:40Z</time>
      </trkpt>
      <trkpt lat="47.65648" lon="6.20161">
        <ele>275.5</ele>
        <time>2022-01-23T15:16:47Z</time>
      </trkpt>
      <trkpt lat="47.65651" lon="6.20174">
        <ele>275</ele>
        <time>2022-01-23T15:16:51Z</time>
      </trkpt>
      <trkpt lat="47.65649" lon="6.2018">
        <ele>274.4</ele>
        <time>2022-01-23T15:16:53Z</time>
      </trkpt>
      <trkpt lat="47.65645" lon="6.20186">
        <ele>273.8</ele>
        <time>2022-01-23T15:16:55Z</time>
      </trkpt>
      <trkpt lat="47.65639" lon="6.20193">
        <ele>273.1</ele>
        <time>2022-01-23T15:16:57Z</time>
      </trkpt>
      <trkpt lat="47.65635" lon="6.202">
        <ele>271.9</ele>
        <time>2022-01-23T15:16:58Z</time>
      </trkpt>
      <trkpt lat="47.65631" lon="6.20206">
        <ele>270.8</ele>
        <time>2022-01-23T15:17:00Z</time>
      </trkpt>
      <trkpt lat="47.65624" lon="6.20216">
        <ele>269</ele>
        <time>2022-01-23T15:17:02Z</time>
      </trkpt>
      <trkpt lat="47.65619" lon="6.20223">
        <ele>267.8</ele>
        <time>2022-01-23T15:17:03Z</time>
      </trkpt>
      <trkpt lat="47.65617" lon="6.2023">
        <ele>266.5</ele>
        <time>2022-01-23T15:17:04Z</time>
      </trkpt>
      <trkpt lat="47.65614" lon="6.20239">
        <ele>265</ele>
        <time>2022-01-23T15:17:05Z</time>
      </trkpt>
      <trkpt lat="47.65613" lon="6.20247">
        <ele>263.6</ele>
        <time>2022-01-23T15:17:07Z</time>
      </trkpt>
      <trkpt lat="47.6562" lon="6.20289">
        <ele>261</ele>
        <time>2022-01-23T15:17:07Z</time>
      </trkpt>
      <trkpt lat="47.65624" lon="6.20299">
        <ele>260.5</ele>
        <time>2022-01-23T15:17:08Z</time>
      </trkpt>
      <trkpt lat="47.65629" lon="6.20307">
        <ele>260.1</ele>
        <time>2022-01-23T15:17:09Z</time>
      </trkpt>
      <trkpt lat="47.65633" lon="6.20314">
        <ele>259.7</ele>
        <time>2022-01-23T15:17:10Z</time>
      </trkpt>
      <trkpt lat="47.65637" lon="6.2032">
        <ele>259.6</ele>
        <time>2022-01-23T15:17:11Z</time>
      </trkpt>
      <trkpt lat="47.65641" lon="6.20327">
        <ele>259.6</ele>
        <time>2022-01-23T15:17:12Z</time>
      </trkpt>
      <trkpt lat="47.65645" lon="6.20333">
        <ele>259.4</ele>
        <time>2022-01-23T15:17:13Z</time>
      </trkpt>
      <trkpt lat="47.65648" lon="6.20339">
        <ele>259.1</ele>
        <time>2022-01-23T15:17:14Z</time>
      </trkpt>
      <trkpt lat="47.65651" lon="6.20344">
        <ele>258.9</ele>
        <time>2022-01-23T15:17:15Z</time>
      </trkpt>
      <trkpt lat="47.65654" lon="6.2035">
        <ele>258.6</ele>
        <time>2022-01-23T15:17:16Z</time>
      </trkpt>
      <trkpt lat="47.65657" lon="6.20355">
        <ele>258.5</ele>
        <time>2022-01-23T15:17:17Z</time>
      </trkpt>
      <trkpt lat="47.6566" lon="6.2036">
        <ele>258.4</ele>
        <time>2022-01-23T15:17:18Z</time>
      </trkpt>
      <trkpt lat="47.65663" lon="6.20366">
        <ele>258.1</ele>
        <time>2022-01-23T15:17:19Z</time>
      </trkpt>
      <trkpt lat="47.65666" lon="6.20371">
        <ele>257.8</ele>
        <time>2022-01-23T15:17:20Z</time>
      </trkpt>
      <trkpt lat="47.65669" lon="6.20377">
        <ele>257.4</ele>
        <time>2022-01-23T15:17:21Z</time>
      </trkpt>
      <trkpt lat="47.65672" lon="6.20383">
        <ele>257</ele>
        <time>2022-01-23T15:17:22Z</time>
      </trkpt>
      <trkpt lat="47.65675" lon="6.20389">
        <ele>256.6</ele>
        <time>2022-01-23T15:17:23Z</time>
      </trkpt>
      <trkpt lat="47.65678" lon="6.20395">
        <ele>255.8</ele>
        <time>2022-01-23T15:17:24Z</time>
      </trkpt>
      <trkpt lat="47.65681" lon="6.20401">
        <ele>255.1</ele>
        <time>2022-01-23T15:17:25Z</time>
      </trkpt>
      <trkpt lat="47.65684" lon="6.20408">
        <ele>254.4</ele>
        <time>2022-01-23T15:17:26Z</time>
      </trkpt>
      <trkpt lat="47.65687" lon="6.20419">
        <ele>253.2</ele>
        <time>2022-01-23T15:17:28Z</time>
      </trkpt>
      <trkpt lat="47.6569" lon="6.2043">
        <ele>252.1</ele>
        <time>2022-01-23T15:17:30Z</time>
      </trkpt>
      <trkpt lat="47.65692" lon="6.20438">
        <ele>251.5</ele>
        <time>2022-01-23T15:17:31Z</time>
      </trkpt>
      <trkpt lat="47.65694" lon="6.20445">
        <ele>250.8</ele>
        <time>2022-01-23T15:17:32Z</time>
      </trkpt>
      <trkpt lat="47.65696" lon="6.20452">
        <ele>249.7</ele>
        <time>2022-01-23T15:17:33Z</time>
      </trkpt>
      <trkpt lat="47.65698" lon="6.20464">
        <ele>247.6</ele>
        <time>2022-01-23T15:17:35Z</time>
      </trkpt>
      <trkpt lat="47.65701" lon="6.20477">
        <ele>245.7</ele>
        <time>2022-01-23T15:17:37Z</time>
      </trkpt>
      <trkpt lat="47.65706" lon="6.2049">
        <ele>244.2</ele>
        <time>2022-01-23T15:17:39Z</time>
      </trkpt>
      <trkpt lat="47.6571" lon="6.20498">
        <ele>243.2</ele>
        <time>2022-01-23T15:17:40Z</time>
      </trkpt>
      <trkpt lat="47.65715" lon="6.20508">
        <ele>242.3</ele>
        <time>2022-01-23T15:17:41Z</time>
      </trkpt>
      <trkpt lat="47.65721" lon="6.20519">
        <ele>241</ele>
        <time>2022-01-23T15:17:42Z</time>
      </trkpt>
      <trkpt lat="47.65729" lon="6.2053">
        <ele>240.2</ele>
        <time>2022-01-23T15:17:43Z</time>
      </trkpt>
      <trkpt lat="47.65736" lon="6.20542">
        <ele>240</ele>
        <time>2022-01-23T15:17:44Z</time>
      </trkpt>
      <trkpt lat="47.65743" lon="6.20553">
        <ele>238.9</ele>
        <time>2022-01-23T15:17:45Z</time>
      </trkpt>
      <trkpt lat="47.6575" lon="6.20565">
        <ele>238</ele>
        <time>2022-01-23T15:17:46Z</time>
      </trkpt>
      <trkpt lat="47.65756" lon="6.20576">
        <ele>238.2</ele>
        <time>2022-01-23T15:17:47Z</time>
      </trkpt>
      <trkpt lat="47.65762" lon="6.20586">
        <ele>238.1</ele>
        <time>2022-01-23T15:17:49Z</time>
      </trkpt>
      <trkpt lat="47.65768" lon="6.20596">
        <ele>238</ele>
        <time>2022-01-23T15:17:50Z</time>
      </trkpt>
      <trkpt lat="47.65774" lon="6.20606">
        <ele>237</ele>
        <time>2022-01-23T15:17:51Z</time>
      </trkpt>
      <trkpt lat="47.6578" lon="6.20615">
        <ele>236.4</ele>
        <time>2022-01-23T15:17:52Z</time>
      </trkpt>
      <trkpt lat="47.65785" lon="6.20625">
        <ele>237</ele>
        <time>2022-01-23T15:17:53Z</time>
      </trkpt>
      <trkpt lat="47.6579" lon="6.20633">
        <ele>237.1</ele>
        <time>2022-01-23T15:17:54Z</time>
      </trkpt>
      <trkpt lat="47.65796" lon="6.20641">
        <ele>236.8</ele>
        <time>2022-01-23T15:17:55Z</time>
      </trkpt>
      <trkpt lat="47.65802" lon="6.20649">
        <ele>236.4</ele>
        <time>2022-01-23T15:17:56Z</time>
      </trkpt>
      <trkpt lat="47.65808" lon="6.20655">
        <ele>236</ele>
        <time>2022-01-23T15:17:57Z</time>
      </trkpt>
      <trkpt lat="47.65815" lon="6.20661">
        <ele>235.8</ele>
        <time>2022-01-23T15:17:58Z</time>
      </trkpt>
      <trkpt lat="47.65821" lon="6.20666">
        <ele>235.5</ele>
        <time>2022-01-23T15:17:59Z</time>
      </trkpt>
      <trkpt lat="47.65826" lon="6.20673">
        <ele>235.2</ele>
        <time>2022-01-23T15:18:00Z</time>
      </trkpt>
      <trkpt lat="47.6583" lon="6.20681">
        <ele>234.4</ele>
        <time>2022-01-23T15:18:01Z</time>
      </trkpt>
      <trkpt lat="47.65834" lon="6.20689">
        <ele>233.4</ele>
        <time>2022-01-23T15:18:02Z</time>
      </trkpt>
      <trkpt lat="47.65838" lon="6.20697">
        <ele>233.3</ele>
        <time>2022-01-23T15:18:03Z</time>
      </trkpt>
      <trkpt lat="47.65842" lon="6.20706">
        <ele>233.6</ele>
        <time>2022-01-23T15:18:04Z</time>
      </trkpt>
      <trkpt lat="47.65846" lon="6.20714">
        <ele>233.6</ele>
        <time>2022-01-23T15:18:05Z</time>
      </trkpt>
      <trkpt lat="47.6585" lon="6.20723">
        <ele>233.2</ele>
        <time>2022-01-23T15:18:06Z</time>
      </trkpt>
      <trkpt lat="47.65855" lon="6.20728">
        <ele>232.6</ele>
        <time>2022-01-23T15:18:07Z</time>
      </trkpt>
      <trkpt lat="47.65861" lon="6.20731">
        <ele>231.7</ele>
        <time>2022-01-23T15:18:08Z</time>
      </trkpt>
      <trkpt lat="47.65867" lon="6.20733">
        <ele>231.5</ele>
        <time>2022-01-23T15:18:09Z</time>
      </trkpt>
      <trkpt lat="47.65872" lon="6.20735">
        <ele>231.4</ele>
        <time>2022-01-23T15:18:10Z</time>
      </trkpt>
      <trkpt lat="47.65878" lon="6.20737">
        <ele>231.2</ele>
        <time>2022-01-23T15:18:11Z</time>
      </trkpt>
      <trkpt lat="47.65883" lon="6.20738">
        <ele>231</ele>
        <time>2022-01-23T15:18:12Z</time>
      </trkpt>
      <trkpt lat="47.65887" lon="6.2074">
        <ele>230.8</ele>
        <time>2022-01-23T15:18:13Z</time>
      </trkpt>
      <trkpt lat="47.65892" lon="6.20741">
        <ele>230.7</ele>
        <time>2022-01-23T15:18:14Z</time>
      </trkpt>
      <trkpt lat="47.65899" lon="6.20745">
        <ele>230.7</ele>
        <time>2022-01-23T15:18:16Z</time>
      </trkpt>
      <trkpt lat="47.65905" lon="6.20752">
        <ele>230.5</ele>
        <time>2022-01-23T15:18:18Z</time>
      </trkpt>
      <trkpt lat="47.65908" lon="6.20758">
        <ele>230.4</ele>
        <time>2022-01-23T15:18:19Z</time>
      </trkpt>
      <trkpt lat="47.65911" lon="6.20765">
        <ele>230.3</ele>
        <time>2022-01-23T15:18:20Z</time>
      </trkpt>
      <trkpt lat="47.65915" lon="6.20772">
        <ele>230.1</ele>
        <time>2022-01-23T15:18:21Z</time>
      </trkpt>
      <trkpt lat="47.65919" lon="6.20779">
        <ele>230</ele>
        <time>2022-01-23T15:18:22Z</time>
      </trkpt>
      <trkpt lat="47.65923" lon="6.20786">
        <ele>229.9</ele>
        <time>2022-01-23T15:18:23Z</time>
      </trkpt>
      <trkpt lat="47.65927" lon="6.20793">
        <ele>229.8</ele>
        <time>2022-01-23T15:18:24Z</time>
      </trkpt>
      <trkpt lat="47.65931" lon="6.208">
        <ele>229.7</ele>
        <time>2022-01-23T15:18:25Z</time>
      </trkpt>
      <trkpt lat="47.65935" lon="6.20807">
        <ele>229.6</ele>
        <time>2022-01-23T15:18:26Z</time>
      </trkpt>
      <trkpt lat="47.65939" lon="6.20813">
        <ele>229.6</ele>
        <time>2022-01-23T15:18:27Z</time>
      </trkpt>
      <trkpt lat="47.65942" lon="6.20819">
        <ele>229.5</ele>
        <time>2022-01-23T15:18:28Z</time>
      </trkpt>
      <trkpt lat="47.65946" lon="6.20825">
        <ele>229.4</ele>
        <time>2022-01-23T15:18:29Z</time>
      </trkpt>
      <trkpt lat="47.65949" lon="6.20831">
        <ele>229.4</ele>
        <time>2022-01-23T15:18:30Z</time>
      </trkpt>
      <trkpt lat="47.65952" lon="6.20837">
        <ele>229.4</ele>
        <time>2022-01-23T15:18:31Z</time>
      </trkpt>
      <trkpt lat="47.65955" lon="6.20843">
        <ele>229.3</ele>
        <time>2022-01-23T15:18:32Z</time>
      </trkpt>
      <trkpt lat="47.65958" lon="6.20848">
        <ele>229.2</ele>
        <time>2022-01-23T15:18:33Z</time>
      </trkpt>
      <trkpt lat="47.65962" lon="6.20854">
        <ele>229</ele>
        <time>2022-01-23T15:18:34Z</time>
      </trkpt>
      <trkpt lat="47.65965" lon="6.2086">
        <ele>228.8</ele>
        <time>2022-01-23T15:18:35Z</time>
      </trkpt>
      <trkpt lat="47.65968" lon="6.20866">
        <ele>228.8</ele>
        <time>2022-01-23T15:18:36Z</time>
      </trkpt>
      <trkpt lat="47.65971" lon="6.20871">
        <ele>228.9</ele>
        <time>2022-01-23T15:18:37Z</time>
      </trkpt>
      <trkpt lat="47.65974" lon="6.20877">
        <ele>229</ele>
        <time>2022-01-23T15:18:38Z</time>
      </trkpt>
      <trkpt lat="47.65979" lon="6.20888">
        <ele>229</ele>
        <time>2022-01-23T15:18:40Z</time>
      </trkpt>
      <trkpt lat="47.65982" lon="6.20897">
        <ele>228.7</ele>
        <time>2022-01-23T15:18:42Z</time>
      </trkpt>
      <trkpt lat="47.65984" lon="6.20903">
        <ele>228.5</ele>
        <time>2022-01-23T15:18:43Z</time>
      </trkpt>
      <trkpt lat="47.65986" lon="6.20909">
        <ele>228.3</ele>
        <time>2022-01-23T15:18:44Z</time>
      </trkpt>
      <trkpt lat="47.65993" lon="6.20916">
        <ele>228</ele>
        <time>2022-01-23T15:18:46Z</time>
      </trkpt>
      <trkpt lat="47.65999" lon="6.20921">
        <ele>227.9</ele>
        <time>2022-01-23T15:18:51Z</time>
      </trkpt>
      <trkpt lat="47.66006" lon="6.20923">
        <ele>228</ele>
        <time>2022-01-23T15:18:52Z</time>
      </trkpt>
      <trkpt lat="47.66013" lon="6.20925">
        <ele>228.2</ele>
        <time>2022-01-23T15:18:54Z</time>
      </trkpt>
      <trkpt lat="47.6602" lon="6.20925">
        <ele>228.4</ele>
        <time>2022-01-23T15:18:56Z</time>
      </trkpt>
      <trkpt lat="47.66042" lon="6.20926">
        <ele>229</ele>
        <time>2022-01-23T15:18:58Z</time>
      </trkpt>
      <trkpt lat="47.66049" lon="6.20925">
        <ele>229.2</ele>
        <time>2022-01-23T15:19:00Z</time>
      </trkpt>
      <trkpt lat="47.66055" lon="6.20925">
        <ele>229.4</ele>
        <time>2022-01-23T15:19:02Z</time>
      </trkpt>
      <trkpt lat="47.66059" lon="6.20925">
        <ele>229.4</ele>
        <time>2022-01-23T15:19:06Z</time>
      </trkpt>
      <trkpt lat="47.66072" lon="6.20923">
        <ele>229.6</ele>
        <time>2022-01-23T15:19:08Z</time>
      </trkpt>
      <trkpt lat="47.66077" lon="6.20922">
        <ele>229.6</ele>
        <time>2022-01-23T15:19:13Z</time>
      </trkpt>
      <trkpt lat="47.66082" lon="6.20919">
        <ele>229.8</ele>
        <time>2022-01-23T15:19:16Z</time>
      </trkpt>
      <trkpt lat="47.66094" lon="6.20915">
        <ele>230.2</ele>
        <time>2022-01-23T15:19:18Z</time>
      </trkpt>
      <trkpt lat="47.661" lon="6.20911">
        <ele>230.5</ele>
        <time>2022-01-23T15:19:21Z</time>
      </trkpt>
      <trkpt lat="47.66104" lon="6.20909">
        <ele>230.7</ele>
        <time>2022-01-23T15:19:23Z</time>
      </trkpt>
      <trkpt lat="47.6611" lon="6.20907">
        <ele>231</ele>
        <time>2022-01-23T15:19:26Z</time>
      </trkpt>
      <trkpt lat="47.66114" lon="6.20906">
        <ele>231.2</ele>
        <time>2022-01-23T15:19:28Z</time>
      </trkpt>
      <trkpt lat="47.66119" lon="6.20904">
        <ele>231.3</ele>
        <time>2022-01-23T15:19:30Z</time>
      </trkpt>
      <trkpt lat="47.66125" lon="6.20903">
        <ele>231.5</ele>
        <time>2022-01-23T15:19:36Z</time>
      </trkpt>
      <trkpt lat="47.66138" lon="6.209">
        <ele>231.8</ele>
        <time>2022-01-23T15:19:38Z</time>
      </trkpt>
      <trkpt lat="47.66144" lon="6.209">
        <ele>231.7</ele>
        <time>2022-01-23T15:19:44Z</time>
      </trkpt>
      <trkpt lat="47.66149" lon="6.20899">
        <ele>231.7</ele>
        <time>2022-01-23T15:19:46Z</time>
      </trkpt>
      <trkpt lat="47.66155" lon="6.20897">
        <ele>231.7</ele>
        <time>2022-01-23T15:19:48Z</time>
      </trkpt>
      <trkpt lat="47.6616" lon="6.20895">
        <ele>231.7</ele>
        <time>2022-01-23T15:19:50Z</time>
      </trkpt>
      <trkpt lat="47.66166" lon="6.20892">
        <ele>231.8</ele>
        <time>2022-01-23T15:19:52Z</time>
      </trkpt>
      <trkpt lat="47.66173" lon="6.20888">
        <ele>231.8</ele>
        <time>2022-01-23T15:19:54Z</time>
      </trkpt>
      <trkpt lat="47.66179" lon="6.20885">
        <ele>231.7</ele>
        <time>2022-01-23T15:19:55Z</time>
      </trkpt>
      <trkpt lat="47.66184" lon="6.20881">
        <ele>231.6</ele>
        <time>2022-01-23T15:19:57Z</time>
      </trkpt>
      <trkpt lat="47.6619" lon="6.20878">
        <ele>231.6</ele>
        <time>2022-01-23T15:19:58Z</time>
      </trkpt>
      <trkpt lat="47.66195" lon="6.20874">
        <ele>231.6</ele>
        <time>2022-01-23T15:20:00Z</time>
      </trkpt>
      <trkpt lat="47.66199" lon="6.2087">
        <ele>231.8</ele>
        <time>2022-01-23T15:20:01Z</time>
      </trkpt>
      <trkpt lat="47.66209" lon="6.20864">
        <ele>232.4</ele>
        <time>2022-01-23T15:20:05Z</time>
      </trkpt>
      <trkpt lat="47.66221" lon="6.20858">
        <ele>233.2</ele>
        <time>2022-01-23T15:20:10Z</time>
      </trkpt>
      <trkpt lat="47.66225" lon="6.20855">
        <ele>233.4</ele>
        <time>2022-01-23T15:20:12Z</time>
      </trkpt>
      <trkpt lat="47.66235" lon="6.20852">
        <ele>233.7</ele>
        <time>2022-01-23T15:20:13Z</time>
      </trkpt>
      <trkpt lat="47.66239" lon="6.20852">
        <ele>233.7</ele>
        <time>2022-01-23T15:20:15Z</time>
      </trkpt>
      <trkpt lat="47.66244" lon="6.20852">
        <ele>233.7</ele>
        <time>2022-01-23T15:20:17Z</time>
      </trkpt>
      <trkpt lat="47.66251" lon="6.20853">
        <ele>233.6</ele>
        <time>2022-01-23T15:20:20Z</time>
      </trkpt>
      <trkpt lat="47.66256" lon="6.20855">
        <ele>233.4</ele>
        <time>2022-01-23T15:20:22Z</time>
      </trkpt>
      <trkpt lat="47.66261" lon="6.20858">
        <ele>233.2</ele>
        <time>2022-01-23T15:20:24Z</time>
      </trkpt>
      <trkpt lat="47.66266" lon="6.2086">
        <ele>233</ele>
        <time>2022-01-23T15:20:29Z</time>
      </trkpt>
      <trkpt lat="47.66278" lon="6.20867">
        <ele>233</ele>
        <time>2022-01-23T15:20:33Z</time>
      </trkpt>
      <trkpt lat="47.66284" lon="6.20873">
        <ele>233.3</ele>
        <time>2022-01-23T15:20:35Z</time>
      </trkpt>
      <trkpt lat="47.66291" lon="6.20889">
        <ele>233.5</ele>
        <time>2022-01-23T15:20:39Z</time>
      </trkpt>
      <trkpt lat="47.66294" lon="6.20897">
        <ele>233.5</ele>
        <time>2022-01-23T15:20:41Z</time>
      </trkpt>
      <trkpt lat="47.66298" lon="6.20903">
        <ele>233.6</ele>
        <time>2022-01-23T15:20:42Z</time>
      </trkpt>
      <trkpt lat="47.66302" lon="6.20911">
        <ele>233.8</ele>
        <time>2022-01-23T15:20:45Z</time>
      </trkpt>
      <trkpt lat="47.66308" lon="6.20913">
        <ele>234.1</ele>
        <time>2022-01-23T15:20:47Z</time>
      </trkpt>
      <trkpt lat="47.66313" lon="6.20913">
        <ele>234.3</ele>
        <time>2022-01-23T15:20:50Z</time>
      </trkpt>
      <trkpt lat="47.66324" lon="6.20916">
        <ele>234.7</ele>
        <time>2022-01-23T15:20:56Z</time>
      </trkpt>
      <trkpt lat="47.66335" lon="6.20924">
        <ele>235.1</ele>
        <time>2022-01-23T15:20:59Z</time>
      </trkpt>
      <trkpt lat="47.66339" lon="6.20928">
        <ele>235.4</ele>
        <time>2022-01-23T15:21:02Z</time>
      </trkpt>
      <trkpt lat="47.66343" lon="6.20931">
        <ele>235.7</ele>
        <time>2022-01-23T15:21:05Z</time>
      </trkpt>
      <trkpt lat="47.66348" lon="6.20933">
        <ele>236</ele>
        <time>2022-01-23T15:21:08Z</time>
      </trkpt>
      <trkpt lat="47.66353" lon="6.20936">
        <ele>236.4</ele>
        <time>2022-01-23T15:21:11Z</time>
      </trkpt>
      <trkpt lat="47.66358" lon="6.2094">
        <ele>236.8</ele>
        <time>2022-01-23T15:21:14Z</time>
      </trkpt>
      <trkpt lat="47.66363" lon="6.20945">
        <ele>237.2</ele>
        <time>2022-01-23T15:21:17Z</time>
      </trkpt>
      <trkpt lat="47.66367" lon="6.20949">
        <ele>237.5</ele>
        <time>2022-01-23T15:21:20Z</time>
      </trkpt>
      <trkpt lat="47.66372" lon="6.20954">
        <ele>237.7</ele>
        <time>2022-01-23T15:21:23Z</time>
      </trkpt>
      <trkpt lat="47.66376" lon="6.20958">
        <ele>237.8</ele>
        <time>2022-01-23T15:21:26Z</time>
      </trkpt>
      <trkpt lat="47.66379" lon="6.20962">
        <ele>237.9</ele>
        <time>2022-01-23T15:21:29Z</time>
      </trkpt>
      <trkpt lat="47.66383" lon="6.20968">
        <ele>237.9</ele>
        <time>2022-01-23T15:21:32Z</time>
      </trkpt>
      <trkpt lat="47.66387" lon="6.20975">
        <ele>237.8</ele>
        <time>2022-01-23T15:21:35Z</time>
      </trkpt>
      <trkpt lat="47.6639" lon="6.20981">
        <ele>237.9</ele>
        <time>2022-01-23T15:21:41Z</time>
      </trkpt>
      <trkpt lat="47.66393" lon="6.20987">
        <ele>238.1</ele>
        <time>2022-01-23T15:21:43Z</time>
      </trkpt>
      <trkpt lat="47.66395" lon="6.20993">
        <ele>238.1</ele>
        <time>2022-01-23T15:21:45Z</time>
      </trkpt>
      <trkpt lat="47.66396" lon="6.2101">
        <ele>237.7</ele>
        <time>2022-01-23T15:21:48Z</time>
      </trkpt>
      <trkpt lat="47.66398" lon="6.2103">
        <ele>237.1</ele>
        <time>2022-01-23T15:21:51Z</time>
      </trkpt>
      <trkpt lat="47.66398" lon="6.21039">
        <ele>236.8</ele>
        <time>2022-01-23T15:21:53Z</time>
      </trkpt>
      <trkpt lat="47.66399" lon="6.21056">
        <ele>236.1</ele>
        <time>2022-01-23T15:21:55Z</time>
      </trkpt>
      <trkpt lat="47.664" lon="6.21065">
        <ele>235.7</ele>
        <time>2022-01-23T15:21:56Z</time>
      </trkpt>
      <trkpt lat="47.66401" lon="6.21082">
        <ele>235</ele>
        <time>2022-01-23T15:21:58Z</time>
      </trkpt>
      <trkpt lat="47.66404" lon="6.21128">
        <ele>232.6</ele>
        <time>2022-01-23T15:21:59Z</time>
      </trkpt>
      <trkpt lat="47.66406" lon="6.21136">
        <ele>232.4</ele>
        <time>2022-01-23T15:22:00Z</time>
      </trkpt>
      <trkpt lat="47.66409" lon="6.21142">
        <ele>232.3</ele>
        <time>2022-01-23T15:22:01Z</time>
      </trkpt>
      <trkpt lat="47.66412" lon="6.21149">
        <ele>232.4</ele>
        <time>2022-01-23T15:22:02Z</time>
      </trkpt>
      <trkpt lat="47.66416" lon="6.21154">
        <ele>232.4</ele>
        <time>2022-01-23T15:22:03Z</time>
      </trkpt>
      <trkpt lat="47.66419" lon="6.2116">
        <ele>232.3</ele>
        <time>2022-01-23T15:22:04Z</time>
      </trkpt>
      <trkpt lat="47.66421" lon="6.21166">
        <ele>232.2</ele>
        <time>2022-01-23T15:22:05Z</time>
      </trkpt>
      <trkpt lat="47.66427" lon="6.21175">
        <ele>231.9</ele>
        <time>2022-01-23T15:22:07Z</time>
      </trkpt>
      <trkpt lat="47.6643" lon="6.21181">
        <ele>231.7</ele>
        <time>2022-01-23T15:22:08Z</time>
      </trkpt>
      <trkpt lat="47.66433" lon="6.21186">
        <ele>231.5</ele>
        <time>2022-01-23T15:22:09Z</time>
      </trkpt>
      <trkpt lat="47.66436" lon="6.21192">
        <ele>231.2</ele>
        <time>2022-01-23T15:22:10Z</time>
      </trkpt>
      <trkpt lat="47.66439" lon="6.21198">
        <ele>231</ele>
        <time>2022-01-23T15:22:11Z</time>
      </trkpt>
      <trkpt lat="47.66442" lon="6.21204">
        <ele>231</ele>
        <time>2022-01-23T15:22:12Z</time>
      </trkpt>
      <trkpt lat="47.66445" lon="6.21209">
        <ele>231</ele>
        <time>2022-01-23T15:22:13Z</time>
      </trkpt>
      <trkpt lat="47.6645" lon="6.21218">
        <ele>231.2</ele>
        <time>2022-01-23T15:22:15Z</time>
      </trkpt>
      <trkpt lat="47.66455" lon="6.21227">
        <ele>231.4</ele>
        <time>2022-01-23T15:22:17Z</time>
      </trkpt>
      <trkpt lat="47.66461" lon="6.21236">
        <ele>231.6</ele>
        <time>2022-01-23T15:22:19Z</time>
      </trkpt>
      <trkpt lat="47.66465" lon="6.21245">
        <ele>231.7</ele>
        <time>2022-01-23T15:22:21Z</time>
      </trkpt>
      <trkpt lat="47.66469" lon="6.21253">
        <ele>231.9</ele>
        <time>2022-01-23T15:22:23Z</time>
      </trkpt>
      <trkpt lat="47.66473" lon="6.21262">
        <ele>232.1</ele>
        <time>2022-01-23T15:22:25Z</time>
      </trkpt>
      <trkpt lat="47.66472" lon="6.21269">
        <ele>232</ele>
        <time>2022-01-23T15:22:27Z</time>
      </trkpt>
      <trkpt lat="47.66475" lon="6.21275">
        <ele>232.1</ele>
        <time>2022-01-23T15:22:31Z</time>
      </trkpt>
      <trkpt lat="47.6648" lon="6.21283">
        <ele>232.2</ele>
        <time>2022-01-23T15:22:33Z</time>
      </trkpt>
      <trkpt lat="47.66484" lon="6.21288">
        <ele>232.2</ele>
        <time>2022-01-23T15:22:34Z</time>
      </trkpt>
      <trkpt lat="47.66488" lon="6.21293">
        <ele>232.3</ele>
        <time>2022-01-23T15:22:36Z</time>
      </trkpt>
      <trkpt lat="47.66495" lon="6.21304">
        <ele>232.6</ele>
        <time>2022-01-23T15:22:39Z</time>
      </trkpt>
      <trkpt lat="47.66499" lon="6.21312">
        <ele>232.7</ele>
        <time>2022-01-23T15:22:41Z</time>
      </trkpt>
      <trkpt lat="47.66503" lon="6.21319">
        <ele>232.7</ele>
        <time>2022-01-23T15:22:43Z</time>
      </trkpt>
      <trkpt lat="47.66507" lon="6.21325">
        <ele>232.8</ele>
        <time>2022-01-23T15:22:45Z</time>
      </trkpt>
      <trkpt lat="47.66511" lon="6.21332">
        <ele>232.9</ele>
        <time>2022-01-23T15:22:47Z</time>
      </trkpt>
      <trkpt lat="47.66516" lon="6.21339">
        <ele>232.9</ele>
        <time>2022-01-23T15:22:49Z</time>
      </trkpt>
      <trkpt lat="47.66521" lon="6.21345">
        <ele>233.1</ele>
        <time>2022-01-23T15:22:51Z</time>
      </trkpt>
      <trkpt lat="47.66528" lon="6.21358">
        <ele>233.1</ele>
        <time>2022-01-23T15:22:55Z</time>
      </trkpt>
      <trkpt lat="47.66532" lon="6.21364">
        <ele>233</ele>
        <time>2022-01-23T15:22:57Z</time>
      </trkpt>
      <trkpt lat="47.66536" lon="6.21372">
        <ele>232.9</ele>
        <time>2022-01-23T15:22:58Z</time>
      </trkpt>
      <trkpt lat="47.66538" lon="6.21378">
        <ele>232.8</ele>
        <time>2022-01-23T15:23:00Z</time>
      </trkpt>
      <trkpt lat="47.66546" lon="6.21391">
        <ele>232.5</ele>
        <time>2022-01-23T15:23:03Z</time>
      </trkpt>
      <trkpt lat="47.66548" lon="6.21397">
        <ele>232.2</ele>
        <time>2022-01-23T15:23:04Z</time>
      </trkpt>
      <trkpt lat="47.66556" lon="6.21413">
        <ele>231.3</ele>
        <time>2022-01-23T15:23:06Z</time>
      </trkpt>
      <trkpt lat="47.66561" lon="6.21421">
        <ele>231</ele>
        <time>2022-01-23T15:23:08Z</time>
      </trkpt>
      <trkpt lat="47.66564" lon="6.21428">
        <ele>230.7</ele>
        <time>2022-01-23T15:23:09Z</time>
      </trkpt>
      <trkpt lat="47.66583" lon="6.21462">
        <ele>229</ele>
        <time>2022-01-23T15:23:10Z</time>
      </trkpt>
      <trkpt lat="47.66587" lon="6.21467">
        <ele>229.3</ele>
        <time>2022-01-23T15:23:11Z</time>
      </trkpt>
      <trkpt lat="47.66591" lon="6.21472">
        <ele>229.5</ele>
        <time>2022-01-23T15:23:12Z</time>
      </trkpt>
      <trkpt lat="47.66594" lon="6.21478">
        <ele>229.8</ele>
        <time>2022-01-23T15:23:13Z</time>
      </trkpt>
      <trkpt lat="47.66599" lon="6.21478">
        <ele>230.1</ele>
        <time>2022-01-23T15:23:15Z</time>
      </trkpt>
      <trkpt lat="47.66603" lon="6.21486">
        <ele>230.4</ele>
        <time>2022-01-23T15:23:20Z</time>
      </trkpt>
      <trkpt lat="47.66608" lon="6.21499">
        <ele>230.8</ele>
        <time>2022-01-23T15:23:23Z</time>
      </trkpt>
      <trkpt lat="47.66611" lon="6.21507">
        <ele>230.8</ele>
        <time>2022-01-23T15:23:25Z</time>
      </trkpt>
      <trkpt lat="47.66619" lon="6.21519">
        <ele>231</ele>
        <time>2022-01-23T15:23:26Z</time>
      </trkpt>
      <trkpt lat="47.66621" lon="6.21526">
        <ele>230.8</ele>
        <time>2022-01-23T15:23:28Z</time>
      </trkpt>
      <trkpt lat="47.66625" lon="6.21535">
        <ele>230.7</ele>
        <time>2022-01-23T15:23:34Z</time>
      </trkpt>
      <trkpt lat="47.66628" lon="6.21541">
        <ele>230.7</ele>
        <time>2022-01-23T15:23:36Z</time>
      </trkpt>
      <trkpt lat="47.6663" lon="6.21549">
        <ele>230.6</ele>
        <time>2022-01-23T15:23:38Z</time>
      </trkpt>
      <trkpt lat="47.66635" lon="6.21564">
        <ele>230.7</ele>
        <time>2022-01-23T15:23:41Z</time>
      </trkpt>
      <trkpt lat="47.6664" lon="6.21578">
        <ele>231.1</ele>
        <time>2022-01-23T15:23:45Z</time>
      </trkpt>
      <trkpt lat="47.66643" lon="6.21585">
        <ele>231</ele>
        <time>2022-01-23T15:23:46Z</time>
      </trkpt>
      <trkpt lat="47.66649" lon="6.216">
        <ele>230.6</ele>
        <time>2022-01-23T15:23:47Z</time>
      </trkpt>
      <trkpt lat="47.66652" lon="6.21608">
        <ele>230.5</ele>
        <time>2022-01-23T15:23:49Z</time>
      </trkpt>
      <trkpt lat="47.66655" lon="6.21617">
        <ele>230.7</ele>
        <time>2022-01-23T15:23:51Z</time>
      </trkpt>
      <trkpt lat="47.66658" lon="6.21624">
        <ele>230.7</ele>
        <time>2022-01-23T15:23:53Z</time>
      </trkpt>
      <trkpt lat="47.66661" lon="6.21631">
        <ele>230.8</ele>
        <time>2022-01-23T15:23:55Z</time>
      </trkpt>
      <trkpt lat="47.66663" lon="6.21637">
        <ele>230.8</ele>
        <time>2022-01-23T15:23:57Z</time>
      </trkpt>
      <trkpt lat="47.66666" lon="6.21644">
        <ele>230.8</ele>
        <time>2022-01-23T15:23:59Z</time>
      </trkpt>
      <trkpt lat="47.66669" lon="6.21653">
        <ele>230.7</ele>
        <time>2022-01-23T15:24:01Z</time>
      </trkpt>
      <trkpt lat="47.66672" lon="6.2166">
        <ele>230.6</ele>
        <time>2022-01-23T15:24:03Z</time>
      </trkpt>
      <trkpt lat="47.66676" lon="6.21668">
        <ele>230.6</ele>
        <time>2022-01-23T15:24:05Z</time>
      </trkpt>
      <trkpt lat="47.66679" lon="6.21675">
        <ele>230.7</ele>
        <time>2022-01-23T15:24:07Z</time>
      </trkpt>
      <trkpt lat="47.66682" lon="6.21683">
        <ele>230.9</ele>
        <time>2022-01-23T15:24:09Z</time>
      </trkpt>
      <trkpt lat="47.66686" lon="6.21691">
        <ele>231.2</ele>
        <time>2022-01-23T15:24:11Z</time>
      </trkpt>
      <trkpt lat="47.66689" lon="6.21697">
        <ele>231.4</ele>
        <time>2022-01-23T15:24:13Z</time>
      </trkpt>
      <trkpt lat="47.66693" lon="6.21705">
        <ele>231.5</ele>
        <time>2022-01-23T15:24:15Z</time>
      </trkpt>
      <trkpt lat="47.66696" lon="6.21712">
        <ele>231.5</ele>
        <time>2022-01-23T15:24:17Z</time>
      </trkpt>
      <trkpt lat="47.66699" lon="6.21718">
        <ele>231.5</ele>
        <time>2022-01-23T15:24:19Z</time>
      </trkpt>
      <trkpt lat="47.66703" lon="6.21725">
        <ele>231.5</ele>
        <time>2022-01-23T15:24:21Z</time>
      </trkpt>
      <trkpt lat="47.66706" lon="6.21732">
        <ele>231.5</ele>
        <time>2022-01-23T15:24:23Z</time>
      </trkpt>
      <trkpt lat="47.66709" lon="6.21739">
        <ele>231.5</ele>
        <time>2022-01-23T15:24:25Z</time>
      </trkpt>
      <trkpt lat="47.66713" lon="6.21745">
        <ele>231.5</ele>
        <time>2022-01-23T15:24:27Z</time>
      </trkpt>
      <trkpt lat="47.66716" lon="6.21751">
        <ele>231.5</ele>
        <time>2022-01-23T15:24:29Z</time>
      </trkpt>
      <trkpt lat="47.6672" lon="6.21758">
        <ele>231.6</ele>
        <time>2022-01-23T15:24:31Z</time>
      </trkpt>
      <trkpt lat="47.66724" lon="6.21763">
        <ele>231.7</ele>
        <time>2022-01-23T15:24:33Z</time>
      </trkpt>
      <trkpt lat="47.66728" lon="6.21769">
        <ele>231.7</ele>
        <time>2022-01-23T15:24:35Z</time>
      </trkpt>
      <trkpt lat="47.66731" lon="6.21775">
        <ele>231.8</ele>
        <time>2022-01-23T15:24:37Z</time>
      </trkpt>
      <trkpt lat="47.66735" lon="6.2178">
        <ele>231.9</ele>
        <time>2022-01-23T15:24:39Z</time>
      </trkpt>
      <trkpt lat="47.6674" lon="6.21785">
        <ele>232</ele>
        <time>2022-01-23T15:24:41Z</time>
      </trkpt>
      <trkpt lat="47.66744" lon="6.2179">
        <ele>232.2</ele>
        <time>2022-01-23T15:24:43Z</time>
      </trkpt>
      <trkpt lat="47.66749" lon="6.21794">
        <ele>232.3</ele>
        <time>2022-01-23T15:24:45Z</time>
      </trkpt>
      <trkpt lat="47.66754" lon="6.21799">
        <ele>232.6</ele>
        <time>2022-01-23T15:24:47Z</time>
      </trkpt>
      <trkpt lat="47.66758" lon="6.21803">
        <ele>232.7</ele>
        <time>2022-01-23T15:24:49Z</time>
      </trkpt>
      <trkpt lat="47.66763" lon="6.21807">
        <ele>232.8</ele>
        <time>2022-01-23T15:24:51Z</time>
      </trkpt>
      <trkpt lat="47.66767" lon="6.2181">
        <ele>233</ele>
        <time>2022-01-23T15:24:53Z</time>
      </trkpt>
      <trkpt lat="47.66772" lon="6.21814">
        <ele>233.1</ele>
        <time>2022-01-23T15:24:55Z</time>
      </trkpt>
      <trkpt lat="47.66777" lon="6.21817">
        <ele>233.1</ele>
        <time>2022-01-23T15:24:57Z</time>
      </trkpt>
      <trkpt lat="47.66783" lon="6.21821">
        <ele>233</ele>
        <time>2022-01-23T15:24:59Z</time>
      </trkpt>
      <trkpt lat="47.66789" lon="6.21826">
        <ele>232.8</ele>
        <time>2022-01-23T15:25:01Z</time>
      </trkpt>
      <trkpt lat="47.66796" lon="6.21831">
        <ele>232.8</ele>
        <time>2022-01-23T15:25:03Z</time>
      </trkpt>
      <trkpt lat="47.66804" lon="6.21837">
        <ele>232.7</ele>
        <time>2022-01-23T15:25:05Z</time>
      </trkpt>
      <trkpt lat="47.66808" lon="6.2184">
        <ele>232.3</ele>
        <time>2022-01-23T15:25:06Z</time>
      </trkpt>
      <trkpt lat="47.66813" lon="6.21844">
        <ele>231.9</ele>
        <time>2022-01-23T15:25:07Z</time>
      </trkpt>
      <trkpt lat="47.66817" lon="6.21849">
        <ele>231.5</ele>
        <time>2022-01-23T15:25:08Z</time>
      </trkpt>
      <trkpt lat="47.66821" lon="6.21853">
        <ele>231.2</ele>
        <time>2022-01-23T15:25:09Z</time>
      </trkpt>
      <trkpt lat="47.66826" lon="6.21858">
        <ele>231.1</ele>
        <time>2022-01-23T15:25:10Z</time>
      </trkpt>
      <trkpt lat="47.6683" lon="6.21863">
        <ele>230.9</ele>
        <time>2022-01-23T15:25:11Z</time>
      </trkpt>
      <trkpt lat="47.66834" lon="6.21868">
        <ele>230.7</ele>
        <time>2022-01-23T15:25:12Z</time>
      </trkpt>
      <trkpt lat="47.66837" lon="6.21874">
        <ele>230.5</ele>
        <time>2022-01-23T15:25:13Z</time>
      </trkpt>
      <trkpt lat="47.66841" lon="6.21878">
        <ele>230.4</ele>
        <time>2022-01-23T15:25:14Z</time>
      </trkpt>
      <trkpt lat="47.66847" lon="6.21885">
        <ele>230.5</ele>
        <time>2022-01-23T15:25:16Z</time>
      </trkpt>
      <trkpt lat="47.66852" lon="6.2189">
        <ele>230.7</ele>
        <time>2022-01-23T15:25:18Z</time>
      </trkpt>
      <trkpt lat="47.66858" lon="6.21896">
        <ele>230.7</ele>
        <time>2022-01-23T15:25:20Z</time>
      </trkpt>
      <trkpt lat="47.66864" lon="6.21902">
        <ele>230.6</ele>
        <time>2022-01-23T15:25:22Z</time>
      </trkpt>
      <trkpt lat="47.66869" lon="6.21908">
        <ele>230.5</ele>
        <time>2022-01-23T15:25:24Z</time>
      </trkpt>
      <trkpt lat="47.66875" lon="6.21916">
        <ele>230.5</ele>
        <time>2022-01-23T15:25:26Z</time>
      </trkpt>
      <trkpt lat="47.66879" lon="6.2192">
        <ele>230.6</ele>
        <time>2022-01-23T15:25:28Z</time>
      </trkpt>
      <trkpt lat="47.66885" lon="6.21926">
        <ele>230.6</ele>
        <time>2022-01-23T15:25:30Z</time>
      </trkpt>
      <trkpt lat="47.6689" lon="6.21931">
        <ele>230.5</ele>
        <time>2022-01-23T15:25:32Z</time>
      </trkpt>
      <trkpt lat="47.66896" lon="6.21936">
        <ele>230.5</ele>
        <time>2022-01-23T15:25:34Z</time>
      </trkpt>
      <trkpt lat="47.66901" lon="6.21941">
        <ele>230.5</ele>
        <time>2022-01-23T15:25:36Z</time>
      </trkpt>
      <trkpt lat="47.66906" lon="6.21946">
        <ele>230.6</ele>
        <time>2022-01-23T15:25:38Z</time>
      </trkpt>
      <trkpt lat="47.66911" lon="6.2195">
        <ele>230.8</ele>
        <time>2022-01-23T15:25:40Z</time>
      </trkpt>
      <trkpt lat="47.66916" lon="6.21955">
        <ele>231</ele>
        <time>2022-01-23T15:25:42Z</time>
      </trkpt>
      <trkpt lat="47.66921" lon="6.21961">
        <ele>231.1</ele>
        <time>2022-01-23T15:25:44Z</time>
      </trkpt>
      <trkpt lat="47.66926" lon="6.21966">
        <ele>231.3</ele>
        <time>2022-01-23T15:25:46Z</time>
      </trkpt>
      <trkpt lat="47.6693" lon="6.2197">
        <ele>231.5</ele>
        <time>2022-01-23T15:25:48Z</time>
      </trkpt>
      <trkpt lat="47.66935" lon="6.21974">
        <ele>231.6</ele>
        <time>2022-01-23T15:25:50Z</time>
      </trkpt>
      <trkpt lat="47.66939" lon="6.21979">
        <ele>231.5</ele>
        <time>2022-01-23T15:25:52Z</time>
      </trkpt>
      <trkpt lat="47.66943" lon="6.21985">
        <ele>231.5</ele>
        <time>2022-01-23T15:25:55Z</time>
      </trkpt>
      <trkpt lat="47.66948" lon="6.2199">
        <ele>231.6</ele>
        <time>2022-01-23T15:25:58Z</time>
      </trkpt>
      <trkpt lat="47.66953" lon="6.21994">
        <ele>231.8</ele>
        <time>2022-01-23T15:26:01Z</time>
      </trkpt>
      <trkpt lat="47.66958" lon="6.21999">
        <ele>232</ele>
        <time>2022-01-23T15:26:04Z</time>
      </trkpt>
      <trkpt lat="47.66963" lon="6.22005">
        <ele>232.3</ele>
        <time>2022-01-23T15:26:07Z</time>
      </trkpt>
      <trkpt lat="47.66967" lon="6.22009">
        <ele>232.6</ele>
        <time>2022-01-23T15:26:10Z</time>
      </trkpt>
      <trkpt lat="47.66971" lon="6.22013">
        <ele>232.9</ele>
        <time>2022-01-23T15:26:13Z</time>
      </trkpt>
      <trkpt lat="47.66976" lon="6.22015">
        <ele>233.3</ele>
        <time>2022-01-23T15:26:15Z</time>
      </trkpt>
      <trkpt lat="47.66982" lon="6.22015">
        <ele>233.7</ele>
        <time>2022-01-23T15:26:23Z</time>
      </trkpt>
      <trkpt lat="47.66987" lon="6.22014">
        <ele>234</ele>
        <time>2022-01-23T15:26:26Z</time>
      </trkpt>
      <trkpt lat="47.66991" lon="6.22014">
        <ele>234.4</ele>
        <time>2022-01-23T15:26:28Z</time>
      </trkpt>
      <trkpt lat="47.66997" lon="6.22014">
        <ele>234.8</ele>
        <time>2022-01-23T15:26:32Z</time>
      </trkpt>
      <trkpt lat="47.67002" lon="6.22012">
        <ele>235.4</ele>
        <time>2022-01-23T15:26:35Z</time>
      </trkpt>
      <trkpt lat="47.67006" lon="6.22009">
        <ele>236.2</ele>
        <time>2022-01-23T15:26:38Z</time>
      </trkpt>
      <trkpt lat="47.6701" lon="6.22005">
        <ele>237.1</ele>
        <time>2022-01-23T15:26:42Z</time>
      </trkpt>
      <trkpt lat="47.67014" lon="6.22001">
        <ele>237.9</ele>
        <time>2022-01-23T15:26:45Z</time>
      </trkpt>
      <trkpt lat="47.67017" lon="6.21996">
        <ele>238.6</ele>
        <time>2022-01-23T15:26:48Z</time>
      </trkpt>
      <trkpt lat="47.6702" lon="6.2199">
        <ele>239.3</ele>
        <time>2022-01-23T15:26:52Z</time>
      </trkpt>
      <trkpt lat="47.67016" lon="6.21995">
        <ele>238.5</ele>
        <time>2022-01-23T15:27:51Z</time>
      </trkpt>
      <trkpt lat="47.6701" lon="6.22001">
        <ele>237.5</ele>
        <time>2022-01-23T15:27:54Z</time>
      </trkpt>
      <trkpt lat="47.67005" lon="6.22002">
        <ele>236.5</ele>
        <time>2022-01-23T15:27:56Z</time>
      </trkpt>
      <trkpt lat="47.66985" lon="6.22">
        <ele>234.3</ele>
        <time>2022-01-23T15:27:56Z</time>
      </trkpt>
      <trkpt lat="47.66979" lon="6.21997">
        <ele>233.8</ele>
        <time>2022-01-23T15:27:57Z</time>
      </trkpt>
      <trkpt lat="47.66974" lon="6.21993">
        <ele>233.4</ele>
        <time>2022-01-23T15:27:58Z</time>
      </trkpt>
      <trkpt lat="47.66969" lon="6.21989">
        <ele>233.2</ele>
        <time>2022-01-23T15:27:59Z</time>
      </trkpt>
      <trkpt lat="47.66964" lon="6.21984">
        <ele>233</ele>
        <time>2022-01-23T15:28:00Z</time>
      </trkpt>
      <trkpt lat="47.66959" lon="6.21979">
        <ele>232.8</ele>
        <time>2022-01-23T15:28:01Z</time>
      </trkpt>
      <trkpt lat="47.66954" lon="6.21975">
        <ele>232.6</ele>
        <time>2022-01-23T15:28:02Z</time>
      </trkpt>
      <trkpt lat="47.66949" lon="6.2197">
        <ele>232.3</ele>
        <time>2022-01-23T15:28:03Z</time>
      </trkpt>
      <trkpt lat="47.66944" lon="6.21965">
        <ele>232</ele>
        <time>2022-01-23T15:28:04Z</time>
      </trkpt>
      <trkpt lat="47.66939" lon="6.2196">
        <ele>231.8</ele>
        <time>2022-01-23T15:28:05Z</time>
      </trkpt>
      <trkpt lat="47.66935" lon="6.21956">
        <ele>231.6</ele>
        <time>2022-01-23T15:28:06Z</time>
      </trkpt>
      <trkpt lat="47.6693" lon="6.21951">
        <ele>231.5</ele>
        <time>2022-01-23T15:28:07Z</time>
      </trkpt>
      <trkpt lat="47.66925" lon="6.21947">
        <ele>231.3</ele>
        <time>2022-01-23T15:28:08Z</time>
      </trkpt>
      <trkpt lat="47.66921" lon="6.21942">
        <ele>231.1</ele>
        <time>2022-01-23T15:28:09Z</time>
      </trkpt>
      <trkpt lat="47.66916" lon="6.21938">
        <ele>231</ele>
        <time>2022-01-23T15:28:10Z</time>
      </trkpt>
      <trkpt lat="47.66912" lon="6.21934">
        <ele>230.9</ele>
        <time>2022-01-23T15:28:11Z</time>
      </trkpt>
      <trkpt lat="47.66907" lon="6.2193">
        <ele>230.8</ele>
        <time>2022-01-23T15:28:12Z</time>
      </trkpt>
      <trkpt lat="47.66903" lon="6.21927">
        <ele>230.8</ele>
        <time>2022-01-23T15:28:13Z</time>
      </trkpt>
      <trkpt lat="47.669" lon="6.21923">
        <ele>230.9</ele>
        <time>2022-01-23T15:28:14Z</time>
      </trkpt>
      <trkpt lat="47.66892" lon="6.21915">
        <ele>231</ele>
        <time>2022-01-23T15:28:16Z</time>
      </trkpt>
      <trkpt lat="47.66885" lon="6.21908">
        <ele>230.9</ele>
        <time>2022-01-23T15:28:18Z</time>
      </trkpt>
      <trkpt lat="47.66879" lon="6.21902">
        <ele>230.8</ele>
        <time>2022-01-23T15:28:20Z</time>
      </trkpt>
      <trkpt lat="47.66872" lon="6.21895">
        <ele>230.9</ele>
        <time>2022-01-23T15:28:22Z</time>
      </trkpt>
      <trkpt lat="47.66868" lon="6.21894">
        <ele>230.9</ele>
        <time>2022-01-23T15:28:28Z</time>
      </trkpt>
      <trkpt lat="47.66862" lon="6.21891">
        <ele>230.9</ele>
        <time>2022-01-23T15:28:29Z</time>
      </trkpt>
      <trkpt lat="47.66857" lon="6.21885">
        <ele>230.7</ele>
        <time>2022-01-23T15:28:31Z</time>
      </trkpt>
      <trkpt lat="47.66848" lon="6.21872">
        <ele>230.5</ele>
        <time>2022-01-23T15:28:34Z</time>
      </trkpt>
      <trkpt lat="47.6684" lon="6.21863">
        <ele>230.7</ele>
        <time>2022-01-23T15:28:36Z</time>
      </trkpt>
      <trkpt lat="47.66832" lon="6.2185">
        <ele>231</ele>
        <time>2022-01-23T15:28:40Z</time>
      </trkpt>
      <trkpt lat="47.66827" lon="6.21845">
        <ele>231.3</ele>
        <time>2022-01-23T15:28:42Z</time>
      </trkpt>
      <trkpt lat="47.66822" lon="6.21839">
        <ele>231.6</ele>
        <time>2022-01-23T15:28:44Z</time>
      </trkpt>
      <trkpt lat="47.66813" lon="6.21829">
        <ele>232.6</ele>
        <time>2022-01-23T15:28:48Z</time>
      </trkpt>
      <trkpt lat="47.66804" lon="6.21822">
        <ele>233.4</ele>
        <time>2022-01-23T15:28:48Z</time>
      </trkpt>
      <trkpt lat="47.66799" lon="6.21819">
        <ele>233.4</ele>
        <time>2022-01-23T15:28:54Z</time>
      </trkpt>
      <trkpt lat="47.66789" lon="6.21813">
        <ele>233.6</ele>
        <time>2022-01-23T15:28:59Z</time>
      </trkpt>
      <trkpt lat="47.66785" lon="6.21808">
        <ele>233.8</ele>
        <time>2022-01-23T15:29:01Z</time>
      </trkpt>
      <trkpt lat="47.66781" lon="6.21806">
        <ele>234</ele>
        <time>2022-01-23T15:29:03Z</time>
      </trkpt>
      <trkpt lat="47.66776" lon="6.21802">
        <ele>234.2</ele>
        <time>2022-01-23T15:29:05Z</time>
      </trkpt>
      <trkpt lat="47.66771" lon="6.21798">
        <ele>234.1</ele>
        <time>2022-01-23T15:29:07Z</time>
      </trkpt>
      <trkpt lat="47.66766" lon="6.21793">
        <ele>234.1</ele>
        <time>2022-01-23T15:29:08Z</time>
      </trkpt>
      <trkpt lat="47.66762" lon="6.21789">
        <ele>233.9</ele>
        <time>2022-01-23T15:29:10Z</time>
      </trkpt>
      <trkpt lat="47.66751" lon="6.21778">
        <ele>233.1</ele>
        <time>2022-01-23T15:29:13Z</time>
      </trkpt>
      <trkpt lat="47.66734" lon="6.21759">
        <ele>232.8</ele>
        <time>2022-01-23T15:29:17Z</time>
      </trkpt>
      <trkpt lat="47.66721" lon="6.2174">
        <ele>232.3</ele>
        <time>2022-01-23T15:29:17Z</time>
      </trkpt>
      <trkpt lat="47.66716" lon="6.2173">
        <ele>232.3</ele>
        <time>2022-01-23T15:29:19Z</time>
      </trkpt>
      <trkpt lat="47.66711" lon="6.21721">
        <ele>232.2</ele>
        <time>2022-01-23T15:29:26Z</time>
      </trkpt>
      <trkpt lat="47.66699" lon="6.21697">
        <ele>232.2</ele>
        <time>2022-01-23T15:29:26Z</time>
      </trkpt>
      <trkpt lat="47.66695" lon="6.21688">
        <ele>232</ele>
        <time>2022-01-23T15:29:32Z</time>
      </trkpt>
      <trkpt lat="47.66691" lon="6.2168">
        <ele>231.7</ele>
        <time>2022-01-23T15:29:33Z</time>
      </trkpt>
      <trkpt lat="47.66685" lon="6.21668">
        <ele>231.3</ele>
        <time>2022-01-23T15:29:35Z</time>
      </trkpt>
      <trkpt lat="47.66683" lon="6.21662">
        <ele>231.3</ele>
        <time>2022-01-23T15:29:36Z</time>
      </trkpt>
      <trkpt lat="47.6668" lon="6.21657">
        <ele>231.3</ele>
        <time>2022-01-23T15:29:37Z</time>
      </trkpt>
      <trkpt lat="47.66677" lon="6.21651">
        <ele>231.3</ele>
        <time>2022-01-23T15:29:38Z</time>
      </trkpt>
      <trkpt lat="47.66674" lon="6.21644">
        <ele>231.4</ele>
        <time>2022-01-23T15:29:40Z</time>
      </trkpt>
      <trkpt lat="47.66668" lon="6.21629">
        <ele>231.5</ele>
        <time>2022-01-23T15:29:43Z</time>
      </trkpt>
      <trkpt lat="47.66662" lon="6.21614">
        <ele>231.4</ele>
        <time>2022-01-23T15:29:46Z</time>
      </trkpt>
      <trkpt lat="47.6666" lon="6.21608">
        <ele>231.3</ele>
        <time>2022-01-23T15:29:47Z</time>
      </trkpt>
      <trkpt lat="47.66656" lon="6.216">
        <ele>231.2</ele>
        <time>2022-01-23T15:29:49Z</time>
      </trkpt>
      <trkpt lat="47.66654" lon="6.21594">
        <ele>231.2</ele>
        <time>2022-01-23T15:29:50Z</time>
      </trkpt>
      <trkpt lat="47.66649" lon="6.2158">
        <ele>231.4</ele>
        <time>2022-01-23T15:29:52Z</time>
      </trkpt>
      <trkpt lat="47.66646" lon="6.21574">
        <ele>231.5</ele>
        <time>2022-01-23T15:29:53Z</time>
      </trkpt>
      <trkpt lat="47.66644" lon="6.21567">
        <ele>231.4</ele>
        <time>2022-01-23T15:29:55Z</time>
      </trkpt>
      <trkpt lat="47.66639" lon="6.21553">
        <ele>231.1</ele>
        <time>2022-01-23T15:29:57Z</time>
      </trkpt>
      <trkpt lat="47.66636" lon="6.21547">
        <ele>231.1</ele>
        <time>2022-01-23T15:29:59Z</time>
      </trkpt>
      <trkpt lat="47.66632" lon="6.21539">
        <ele>231.1</ele>
        <time>2022-01-23T15:30:00Z</time>
      </trkpt>
      <trkpt lat="47.66625" lon="6.21523">
        <ele>231.3</ele>
        <time>2022-01-23T15:30:04Z</time>
      </trkpt>
      <trkpt lat="47.66622" lon="6.21516">
        <ele>231.4</ele>
        <time>2022-01-23T15:30:05Z</time>
      </trkpt>
      <trkpt lat="47.66619" lon="6.2151">
        <ele>231.4</ele>
        <time>2022-01-23T15:30:07Z</time>
      </trkpt>
      <trkpt lat="47.66616" lon="6.21504">
        <ele>231.4</ele>
        <time>2022-01-23T15:30:08Z</time>
      </trkpt>
      <trkpt lat="47.66601" lon="6.21479">
        <ele>230.2</ele>
        <time>2022-01-23T15:30:08Z</time>
      </trkpt>
      <trkpt lat="47.66597" lon="6.21473">
        <ele>230</ele>
        <time>2022-01-23T15:30:09Z</time>
      </trkpt>
      <trkpt lat="47.66593" lon="6.21467">
        <ele>229.8</ele>
        <time>2022-01-23T15:30:10Z</time>
      </trkpt>
      <trkpt lat="47.66589" lon="6.2146">
        <ele>229.5</ele>
        <time>2022-01-23T15:30:11Z</time>
      </trkpt>
      <trkpt lat="47.66584" lon="6.21453">
        <ele>229.1</ele>
        <time>2022-01-23T15:30:12Z</time>
      </trkpt>
      <trkpt lat="47.66579" lon="6.21445">
        <ele>229.1</ele>
        <time>2022-01-23T15:30:13Z</time>
      </trkpt>
      <trkpt lat="47.66575" lon="6.21437">
        <ele>229.9</ele>
        <time>2022-01-23T15:30:14Z</time>
      </trkpt>
      <trkpt lat="47.66571" lon="6.2143">
        <ele>230.5</ele>
        <time>2022-01-23T15:30:15Z</time>
      </trkpt>
      <trkpt lat="47.66567" lon="6.21424">
        <ele>230.9</ele>
        <time>2022-01-23T15:30:16Z</time>
      </trkpt>
      <trkpt lat="47.66562" lon="6.21415">
        <ele>231.4</ele>
        <time>2022-01-23T15:30:18Z</time>
      </trkpt>
      <trkpt lat="47.66559" lon="6.21408">
        <ele>231.8</ele>
        <time>2022-01-23T15:30:20Z</time>
      </trkpt>
      <trkpt lat="47.66556" lon="6.21403">
        <ele>232</ele>
        <time>2022-01-23T15:30:22Z</time>
      </trkpt>
      <trkpt lat="47.66553" lon="6.21397">
        <ele>232.3</ele>
        <time>2022-01-23T15:30:28Z</time>
      </trkpt>
      <trkpt lat="47.66548" lon="6.21391">
        <ele>232.6</ele>
        <time>2022-01-23T15:30:28Z</time>
      </trkpt>
      <trkpt lat="47.66545" lon="6.21385">
        <ele>232.8</ele>
        <time>2022-01-23T15:30:30Z</time>
      </trkpt>
      <trkpt lat="47.66541" lon="6.21377">
        <ele>232.9</ele>
        <time>2022-01-23T15:30:33Z</time>
      </trkpt>
      <trkpt lat="47.66538" lon="6.21369">
        <ele>233.1</ele>
        <time>2022-01-23T15:30:36Z</time>
      </trkpt>
      <trkpt lat="47.66535" lon="6.21361">
        <ele>233.3</ele>
        <time>2022-01-23T15:30:39Z</time>
      </trkpt>
      <trkpt lat="47.66531" lon="6.21353">
        <ele>233.4</ele>
        <time>2022-01-23T15:30:46Z</time>
      </trkpt>
      <trkpt lat="47.66523" lon="6.21339">
        <ele>233.4</ele>
        <time>2022-01-23T15:30:47Z</time>
      </trkpt>
      <trkpt lat="47.66519" lon="6.21334">
        <ele>233.3</ele>
        <time>2022-01-23T15:30:53Z</time>
      </trkpt>
      <trkpt lat="47.66512" lon="6.21322">
        <ele>233.2</ele>
        <time>2022-01-23T15:30:57Z</time>
      </trkpt>
      <trkpt lat="47.66508" lon="6.21317">
        <ele>233.2</ele>
        <time>2022-01-23T15:30:58Z</time>
      </trkpt>
      <trkpt lat="47.66504" lon="6.21311">
        <ele>233.1</ele>
        <time>2022-01-23T15:31:00Z</time>
      </trkpt>
      <trkpt lat="47.66496" lon="6.21299">
        <ele>232.8</ele>
        <time>2022-01-23T15:31:04Z</time>
      </trkpt>
      <trkpt lat="47.66493" lon="6.21294">
        <ele>232.6</ele>
        <time>2022-01-23T15:31:05Z</time>
      </trkpt>
      <trkpt lat="47.6649" lon="6.21287">
        <ele>232.5</ele>
        <time>2022-01-23T15:31:06Z</time>
      </trkpt>
      <trkpt lat="47.66486" lon="6.21281">
        <ele>232.4</ele>
        <time>2022-01-23T15:31:08Z</time>
      </trkpt>
      <trkpt lat="47.66483" lon="6.21274">
        <ele>232.4</ele>
        <time>2022-01-23T15:31:09Z</time>
      </trkpt>
      <trkpt lat="47.66478" lon="6.21266">
        <ele>232.3</ele>
        <time>2022-01-23T15:31:11Z</time>
      </trkpt>
      <trkpt lat="47.66471" lon="6.21251">
        <ele>231.9</ele>
        <time>2022-01-23T15:31:14Z</time>
      </trkpt>
      <trkpt lat="47.66464" lon="6.21237">
        <ele>231.7</ele>
        <time>2022-01-23T15:31:16Z</time>
      </trkpt>
      <trkpt lat="47.66461" lon="6.21231">
        <ele>231.6</ele>
        <time>2022-01-23T15:31:18Z</time>
      </trkpt>
      <trkpt lat="47.66458" lon="6.21225">
        <ele>231.5</ele>
        <time>2022-01-23T15:31:19Z</time>
      </trkpt>
      <trkpt lat="47.66452" lon="6.21212">
        <ele>231.3</ele>
        <time>2022-01-23T15:31:21Z</time>
      </trkpt>
      <trkpt lat="47.66449" lon="6.21206">
        <ele>231.2</ele>
        <time>2022-01-23T15:31:23Z</time>
      </trkpt>
      <trkpt lat="47.66445" lon="6.21199">
        <ele>231</ele>
        <time>2022-01-23T15:31:24Z</time>
      </trkpt>
      <trkpt lat="47.66439" lon="6.21185">
        <ele>231.6</ele>
        <time>2022-01-23T15:31:27Z</time>
      </trkpt>
      <trkpt lat="47.66436" lon="6.21179">
        <ele>231.9</ele>
        <time>2022-01-23T15:31:29Z</time>
      </trkpt>
      <trkpt lat="47.66433" lon="6.21173">
        <ele>232.2</ele>
        <time>2022-01-23T15:31:30Z</time>
      </trkpt>
      <trkpt lat="47.66425" lon="6.21157">
        <ele>232.7</ele>
        <time>2022-01-23T15:31:30Z</time>
      </trkpt>
      <trkpt lat="47.66422" lon="6.21151">
        <ele>232.9</ele>
        <time>2022-01-23T15:31:32Z</time>
      </trkpt>
      <trkpt lat="47.66419" lon="6.21146">
        <ele>232.9</ele>
        <time>2022-01-23T15:31:38Z</time>
      </trkpt>
      <trkpt lat="47.66416" lon="6.2114">
        <ele>232.9</ele>
        <time>2022-01-23T15:31:40Z</time>
      </trkpt>
      <trkpt lat="47.66412" lon="6.21133">
        <ele>232.9</ele>
        <time>2022-01-23T15:31:42Z</time>
      </trkpt>
      <trkpt lat="47.66408" lon="6.21127">
        <ele>232.9</ele>
        <time>2022-01-23T15:31:44Z</time>
      </trkpt>
      <trkpt lat="47.66404" lon="6.21122">
        <ele>233</ele>
        <time>2022-01-23T15:31:46Z</time>
      </trkpt>
      <trkpt lat="47.66401" lon="6.21115">
        <ele>233.2</ele>
        <time>2022-01-23T15:31:47Z</time>
      </trkpt>
      <trkpt lat="47.66399" lon="6.21108">
        <ele>233.5</ele>
        <time>2022-01-23T15:31:49Z</time>
      </trkpt>
      <trkpt lat="47.664" lon="6.21094">
        <ele>234.2</ele>
        <time>2022-01-23T15:31:55Z</time>
      </trkpt>
      <trkpt lat="47.66399" lon="6.21087">
        <ele>234.6</ele>
        <time>2022-01-23T15:31:59Z</time>
      </trkpt>
      <trkpt lat="47.66397" lon="6.21073">
        <ele>235.1</ele>
        <time>2022-01-23T15:32:01Z</time>
      </trkpt>
      <trkpt lat="47.66397" lon="6.21066">
        <ele>235.4</ele>
        <time>2022-01-23T15:32:04Z</time>
      </trkpt>
      <trkpt lat="47.66397" lon="6.21059">
        <ele>235.7</ele>
        <time>2022-01-23T15:32:07Z</time>
      </trkpt>
      <trkpt lat="47.66397" lon="6.21052">
        <ele>236</ele>
        <time>2022-01-23T15:32:10Z</time>
      </trkpt>
      <trkpt lat="47.66397" lon="6.21044">
        <ele>236.4</ele>
        <time>2022-01-23T15:32:13Z</time>
      </trkpt>
      <trkpt lat="47.66397" lon="6.21037">
        <ele>236.8</ele>
        <time>2022-01-23T15:32:16Z</time>
      </trkpt>
      <trkpt lat="47.66397" lon="6.21029">
        <ele>237.2</ele>
        <time>2022-01-23T15:32:19Z</time>
      </trkpt>
      <trkpt lat="47.66397" lon="6.2102">
        <ele>237.4</ele>
        <time>2022-01-23T15:32:23Z</time>
      </trkpt>
      <trkpt lat="47.66398" lon="6.21013">
        <ele>237.8</ele>
        <time>2022-01-23T15:32:27Z</time>
      </trkpt>
      <trkpt lat="47.664" lon="6.21006">
        <ele>238.4</ele>
        <time>2022-01-23T15:32:31Z</time>
      </trkpt>
      <trkpt lat="47.66402" lon="6.21">
        <ele>238.9</ele>
        <time>2022-01-23T15:32:39Z</time>
      </trkpt>
      <trkpt lat="47.66402" lon="6.20991">
        <ele>239.2</ele>
        <time>2022-01-23T15:32:39Z</time>
      </trkpt>
      <trkpt lat="47.66403" lon="6.20983">
        <ele>239.6</ele>
        <time>2022-01-23T15:32:46Z</time>
      </trkpt>
      <trkpt lat="47.66404" lon="6.20974">
        <ele>240.1</ele>
        <time>2022-01-23T15:32:50Z</time>
      </trkpt>
      <trkpt lat="47.66404" lon="6.20967">
        <ele>240.5</ele>
        <time>2022-01-23T15:32:53Z</time>
      </trkpt>
      <trkpt lat="47.66404" lon="6.2096">
        <ele>240.9</ele>
        <time>2022-01-23T15:32:56Z</time>
      </trkpt>
      <trkpt lat="47.66403" lon="6.20944">
        <ele>241.5</ele>
        <time>2022-01-23T15:32:59Z</time>
      </trkpt>
      <trkpt lat="47.66401" lon="6.20936">
        <ele>241.6</ele>
        <time>2022-01-23T15:33:07Z</time>
      </trkpt>
      <trkpt lat="47.66396" lon="6.20921">
        <ele>241.6</ele>
        <time>2022-01-23T15:33:09Z</time>
      </trkpt>
      <trkpt lat="47.66394" lon="6.20913">
        <ele>241.7</ele>
        <time>2022-01-23T15:33:15Z</time>
      </trkpt>
      <trkpt lat="47.66392" lon="6.20907">
        <ele>242</ele>
        <time>2022-01-23T15:33:16Z</time>
      </trkpt>
      <trkpt lat="47.66386" lon="6.20892">
        <ele>242.3</ele>
        <time>2022-01-23T15:33:17Z</time>
      </trkpt>
      <trkpt lat="47.66383" lon="6.20884">
        <ele>242.2</ele>
        <time>2022-01-23T15:33:19Z</time>
      </trkpt>
      <trkpt lat="47.66381" lon="6.20878">
        <ele>242</ele>
        <time>2022-01-23T15:33:25Z</time>
      </trkpt>
      <trkpt lat="47.66379" lon="6.20862">
        <ele>241.9</ele>
        <time>2022-01-23T15:33:29Z</time>
      </trkpt>
      <trkpt lat="47.66378" lon="6.20855">
        <ele>242</ele>
        <time>2022-01-23T15:33:31Z</time>
      </trkpt>
      <trkpt lat="47.66377" lon="6.20838">
        <ele>242.4</ele>
        <time>2022-01-23T15:33:35Z</time>
      </trkpt>
      <trkpt lat="47.66376" lon="6.20828">
        <ele>242.8</ele>
        <time>2022-01-23T15:33:38Z</time>
      </trkpt>
      <trkpt lat="47.66374" lon="6.20818">
        <ele>243.3</ele>
        <time>2022-01-23T15:33:41Z</time>
      </trkpt>
      <trkpt lat="47.6637" lon="6.20812">
        <ele>243.3</ele>
        <time>2022-01-23T15:33:44Z</time>
      </trkpt>
      <trkpt lat="47.66366" lon="6.20804">
        <ele>243.4</ele>
        <time>2022-01-23T15:33:47Z</time>
      </trkpt>
      <trkpt lat="47.6636" lon="6.20792">
        <ele>243.4</ele>
        <time>2022-01-23T15:33:49Z</time>
      </trkpt>
      <trkpt lat="47.66357" lon="6.20785">
        <ele>243.4</ele>
        <time>2022-01-23T15:33:52Z</time>
      </trkpt>
      <trkpt lat="47.66356" lon="6.20776">
        <ele>243.5</ele>
        <time>2022-01-23T15:33:55Z</time>
      </trkpt>
      <trkpt lat="47.66354" lon="6.20769">
        <ele>243.7</ele>
        <time>2022-01-23T15:34:02Z</time>
      </trkpt>
      <trkpt lat="47.66352" lon="6.20762">
        <ele>243.9</ele>
        <time>2022-01-23T15:34:04Z</time>
      </trkpt>
      <trkpt lat="47.66347" lon="6.20748">
        <ele>244.6</ele>
        <time>2022-01-23T15:34:07Z</time>
      </trkpt>
      <trkpt lat="47.66344" lon="6.20742">
        <ele>245.1</ele>
        <time>2022-01-23T15:34:11Z</time>
      </trkpt>
      <trkpt lat="47.6634" lon="6.20738">
        <ele>245.4</ele>
        <time>2022-01-23T15:34:15Z</time>
      </trkpt>
      <trkpt lat="47.66336" lon="6.20733">
        <ele>245.9</ele>
        <time>2022-01-23T15:34:20Z</time>
      </trkpt>
      <trkpt lat="47.66333" lon="6.20727">
        <ele>246.5</ele>
        <time>2022-01-23T15:34:25Z</time>
      </trkpt>
      <trkpt lat="47.66328" lon="6.20725">
        <ele>246.9</ele>
        <time>2022-01-23T15:34:34Z</time>
      </trkpt>
      <trkpt lat="47.66323" lon="6.20723">
        <ele>247.2</ele>
        <time>2022-01-23T15:34:35Z</time>
      </trkpt>
      <trkpt lat="47.66319" lon="6.20721">
        <ele>247.6</ele>
        <time>2022-01-23T15:34:39Z</time>
      </trkpt>
      <trkpt lat="47.66314" lon="6.2072">
        <ele>247.9</ele>
        <time>2022-01-23T15:34:44Z</time>
      </trkpt>
      <trkpt lat="47.6631" lon="6.20717">
        <ele>248.4</ele>
        <time>2022-01-23T15:34:49Z</time>
      </trkpt>
      <trkpt lat="47.66305" lon="6.20716">
        <ele>248.7</ele>
        <time>2022-01-23T15:34:57Z</time>
      </trkpt>
      <trkpt lat="47.663" lon="6.20715">
        <ele>248.8</ele>
        <time>2022-01-23T15:34:59Z</time>
      </trkpt>
      <trkpt lat="47.66295" lon="6.20714">
        <ele>249</ele>
        <time>2022-01-23T15:35:03Z</time>
      </trkpt>
      <trkpt lat="47.6629" lon="6.20713">
        <ele>249.2</ele>
        <time>2022-01-23T15:35:07Z</time>
      </trkpt>
      <trkpt lat="47.66286" lon="6.20711">
        <ele>249.4</ele>
        <time>2022-01-23T15:35:15Z</time>
      </trkpt>
      <trkpt lat="47.66281" lon="6.20708">
        <ele>249.9</ele>
        <time>2022-01-23T15:35:16Z</time>
      </trkpt>
      <trkpt lat="47.66276" lon="6.20708">
        <ele>250.1</ele>
        <time>2022-01-23T15:35:21Z</time>
      </trkpt>
      <trkpt lat="47.66272" lon="6.20703">
        <ele>251</ele>
        <time>2022-01-23T15:35:25Z</time>
      </trkpt>
      <trkpt lat="47.66269" lon="6.20697">
        <ele>252</ele>
        <time>2022-01-23T15:35:30Z</time>
      </trkpt>
      <trkpt lat="47.66265" lon="6.20693">
        <ele>252.7</ele>
        <time>2022-01-23T15:35:35Z</time>
      </trkpt>
      <trkpt lat="47.6626" lon="6.2069">
        <ele>253.3</ele>
        <time>2022-01-23T15:35:39Z</time>
      </trkpt>
      <trkpt lat="47.66258" lon="6.20682">
        <ele>254.4</ele>
        <time>2022-01-23T15:35:43Z</time>
      </trkpt>
      <trkpt lat="47.66256" lon="6.20676">
        <ele>255.5</ele>
        <time>2022-01-23T15:35:48Z</time>
      </trkpt>
      <trkpt lat="47.66251" lon="6.20676">
        <ele>255.7</ele>
        <time>2022-01-23T15:35:54Z</time>
      </trkpt>
      <trkpt lat="47.66248" lon="6.20671">
        <ele>256.5</ele>
        <time>2022-01-23T15:35:58Z</time>
      </trkpt>
      <trkpt lat="47.66244" lon="6.20667">
        <ele>257.2</ele>
        <time>2022-01-23T15:36:04Z</time>
      </trkpt>
      <trkpt lat="47.66239" lon="6.20662">
        <ele>258</ele>
        <time>2022-01-23T15:36:09Z</time>
      </trkpt>
      <trkpt lat="47.66237" lon="6.20654">
        <ele>259</ele>
        <time>2022-01-23T15:36:14Z</time>
      </trkpt>
      <trkpt lat="47.66231" lon="6.20653">
        <ele>259.5</ele>
        <time>2022-01-23T15:36:20Z</time>
      </trkpt>
      <trkpt lat="47.6623" lon="6.20646">
        <ele>260.5</ele>
        <time>2022-01-23T15:36:25Z</time>
      </trkpt>
      <trkpt lat="47.66228" lon="6.20639">
        <ele>261.5</ele>
        <time>2022-01-23T15:36:29Z</time>
      </trkpt>
      <trkpt lat="47.66225" lon="6.20634">
        <ele>262.4</ele>
        <time>2022-01-23T15:36:34Z</time>
      </trkpt>
      <trkpt lat="47.66221" lon="6.20629">
        <ele>263.1</ele>
        <time>2022-01-23T15:36:40Z</time>
      </trkpt>
      <trkpt lat="47.66219" lon="6.20623">
        <ele>263.8</ele>
        <time>2022-01-23T15:36:47Z</time>
      </trkpt>
      <trkpt lat="47.66214" lon="6.2062">
        <ele>264.3</ele>
        <time>2022-01-23T15:36:49Z</time>
      </trkpt>
      <trkpt lat="47.66208" lon="6.20621">
        <ele>264.3</ele>
        <time>2022-01-23T15:36:54Z</time>
      </trkpt>
      <trkpt lat="47.66203" lon="6.20617">
        <ele>264.9</ele>
        <time>2022-01-23T15:37:02Z</time>
      </trkpt>
      <trkpt lat="47.66198" lon="6.20605">
        <ele>267</ele>
        <time>2022-01-23T15:37:07Z</time>
      </trkpt>
      <trkpt lat="47.66194" lon="6.20602">
        <ele>267.6</ele>
        <time>2022-01-23T15:37:11Z</time>
      </trkpt>
      <trkpt lat="47.66189" lon="6.20598">
        <ele>268.3</ele>
        <time>2022-01-23T15:37:19Z</time>
      </trkpt>
      <trkpt lat="47.66186" lon="6.20593">
        <ele>269.2</ele>
        <time>2022-01-23T15:37:23Z</time>
      </trkpt>
      <trkpt lat="47.66182" lon="6.20589">
        <ele>269.9</ele>
        <time>2022-01-23T15:37:24Z</time>
      </trkpt>
      <trkpt lat="47.66177" lon="6.20586">
        <ele>270.5</ele>
        <time>2022-01-23T15:37:31Z</time>
      </trkpt>
      <trkpt lat="47.66173" lon="6.20583">
        <ele>271.1</ele>
        <time>2022-01-23T15:37:32Z</time>
      </trkpt>
      <trkpt lat="47.66168" lon="6.2058">
        <ele>271.5</ele>
        <time>2022-01-23T15:37:36Z</time>
      </trkpt>
      <trkpt lat="47.66163" lon="6.20578">
        <ele>271.5</ele>
        <time>2022-01-23T15:37:39Z</time>
      </trkpt>
      <trkpt lat="47.66158" lon="6.20575">
        <ele>271.5</ele>
        <time>2022-01-23T15:37:45Z</time>
      </trkpt>
      <trkpt lat="47.66154" lon="6.20573">
        <ele>271.6</ele>
        <time>2022-01-23T15:37:47Z</time>
      </trkpt>
      <trkpt lat="47.66147" lon="6.2057">
        <ele>271.5</ele>
        <time>2022-01-23T15:37:50Z</time>
      </trkpt>
      <trkpt lat="47.66137" lon="6.20564">
        <ele>271.5</ele>
        <time>2022-01-23T15:37:54Z</time>
      </trkpt>
      <trkpt lat="47.66132" lon="6.20562">
        <ele>271.2</ele>
        <time>2022-01-23T15:37:56Z</time>
      </trkpt>
      <trkpt lat="47.66127" lon="6.20559">
        <ele>270.8</ele>
        <time>2022-01-23T15:37:58Z</time>
      </trkpt>
      <trkpt lat="47.66113" lon="6.20552">
        <ele>269.9</ele>
        <time>2022-01-23T15:38:02Z</time>
      </trkpt>
      <trkpt lat="47.66107" lon="6.20549">
        <ele>269.8</ele>
        <time>2022-01-23T15:38:04Z</time>
      </trkpt>
      <trkpt lat="47.661" lon="6.20545">
        <ele>269.8</ele>
        <time>2022-01-23T15:38:06Z</time>
      </trkpt>
      <trkpt lat="47.66094" lon="6.20543">
        <ele>269.4</ele>
        <time>2022-01-23T15:38:08Z</time>
      </trkpt>
      <trkpt lat="47.66089" lon="6.20541">
        <ele>269.2</ele>
        <time>2022-01-23T15:38:09Z</time>
      </trkpt>
      <trkpt lat="47.66084" lon="6.20538">
        <ele>269</ele>
        <time>2022-01-23T15:38:10Z</time>
      </trkpt>
      <trkpt lat="47.66079" lon="6.20535">
        <ele>269</ele>
        <time>2022-01-23T15:38:12Z</time>
      </trkpt>
      <trkpt lat="47.66074" lon="6.20532">
        <ele>268.9</ele>
        <time>2022-01-23T15:38:14Z</time>
      </trkpt>
      <trkpt lat="47.6607" lon="6.20529">
        <ele>268.9</ele>
        <time>2022-01-23T15:38:16Z</time>
      </trkpt>
      <trkpt lat="47.66058" lon="6.20524">
        <ele>268.9</ele>
        <time>2022-01-23T15:38:17Z</time>
      </trkpt>
      <trkpt lat="47.66053" lon="6.20521">
        <ele>269.1</ele>
        <time>2022-01-23T15:38:19Z</time>
      </trkpt>
      <trkpt lat="47.66047" lon="6.20517">
        <ele>269.2</ele>
        <time>2022-01-23T15:38:24Z</time>
      </trkpt>
      <trkpt lat="47.6604" lon="6.20513">
        <ele>269.3</ele>
        <time>2022-01-23T15:38:26Z</time>
      </trkpt>
      <trkpt lat="47.66035" lon="6.2051">
        <ele>269.2</ele>
        <time>2022-01-23T15:38:27Z</time>
      </trkpt>
      <trkpt lat="47.66028" lon="6.20507">
        <ele>269.1</ele>
        <time>2022-01-23T15:38:30Z</time>
      </trkpt>
      <trkpt lat="47.66022" lon="6.20504">
        <ele>269.1</ele>
        <time>2022-01-23T15:38:31Z</time>
      </trkpt>
      <trkpt lat="47.66013" lon="6.205">
        <ele>268.9</ele>
        <time>2022-01-23T15:38:35Z</time>
      </trkpt>
      <trkpt lat="47.66002" lon="6.20495">
        <ele>268.9</ele>
        <time>2022-01-23T15:38:39Z</time>
      </trkpt>
      <trkpt lat="47.65993" lon="6.2049">
        <ele>269.1</ele>
        <time>2022-01-23T15:38:43Z</time>
      </trkpt>
      <trkpt lat="47.65988" lon="6.20487">
        <ele>269.3</ele>
        <time>2022-01-23T15:38:45Z</time>
      </trkpt>
      <trkpt lat="47.65984" lon="6.20484">
        <ele>269.4</ele>
        <time>2022-01-23T15:38:47Z</time>
      </trkpt>
      <trkpt lat="47.65979" lon="6.2048">
        <ele>269.5</ele>
        <time>2022-01-23T15:38:49Z</time>
      </trkpt>
      <trkpt lat="47.65974" lon="6.20477">
        <ele>269.6</ele>
        <time>2022-01-23T15:38:52Z</time>
      </trkpt>
      <trkpt lat="47.65969" lon="6.20473">
        <ele>269.6</ele>
        <time>2022-01-23T15:38:54Z</time>
      </trkpt>
      <trkpt lat="47.65965" lon="6.20471">
        <ele>269.7</ele>
        <time>2022-01-23T15:38:56Z</time>
      </trkpt>
      <trkpt lat="47.6596" lon="6.20468">
        <ele>269.7</ele>
        <time>2022-01-23T15:38:58Z</time>
      </trkpt>
      <trkpt lat="47.65955" lon="6.20464">
        <ele>269.7</ele>
        <time>2022-01-23T15:39:00Z</time>
      </trkpt>
      <trkpt lat="47.65945" lon="6.20459">
        <ele>269.5</ele>
        <time>2022-01-23T15:39:05Z</time>
      </trkpt>
      <trkpt lat="47.6594" lon="6.20456">
        <ele>269.5</ele>
        <time>2022-01-23T15:39:07Z</time>
      </trkpt>
      <trkpt lat="47.65935" lon="6.20452">
        <ele>269.5</ele>
        <time>2022-01-23T15:39:09Z</time>
      </trkpt>
      <trkpt lat="47.65926" lon="6.20446">
        <ele>269.5</ele>
        <time>2022-01-23T15:39:13Z</time>
      </trkpt>
      <trkpt lat="47.65921" lon="6.20442">
        <ele>269.5</ele>
        <time>2022-01-23T15:39:14Z</time>
      </trkpt>
      <trkpt lat="47.65915" lon="6.20436">
        <ele>269.5</ele>
        <time>2022-01-23T15:39:17Z</time>
      </trkpt>
      <trkpt lat="47.65911" lon="6.2043">
        <ele>269.5</ele>
        <time>2022-01-23T15:39:19Z</time>
      </trkpt>
      <trkpt lat="47.65906" lon="6.20424">
        <ele>269.6</ele>
        <time>2022-01-23T15:39:21Z</time>
      </trkpt>
      <trkpt lat="47.65898" lon="6.20415">
        <ele>269.8</ele>
        <time>2022-01-23T15:39:25Z</time>
      </trkpt>
      <trkpt lat="47.65894" lon="6.20411">
        <ele>269.9</ele>
        <time>2022-01-23T15:39:27Z</time>
      </trkpt>
      <trkpt lat="47.65883" lon="6.20402">
        <ele>269.9</ele>
        <time>2022-01-23T15:39:29Z</time>
      </trkpt>
      <trkpt lat="47.65878" lon="6.20398">
        <ele>269.8</ele>
        <time>2022-01-23T15:39:34Z</time>
      </trkpt>
      <trkpt lat="47.65874" lon="6.20394">
        <ele>269.9</ele>
        <time>2022-01-23T15:39:36Z</time>
      </trkpt>
      <trkpt lat="47.65869" lon="6.20389">
        <ele>269.9</ele>
        <time>2022-01-23T15:39:37Z</time>
      </trkpt>
      <trkpt lat="47.65864" lon="6.20384">
        <ele>269.8</ele>
        <time>2022-01-23T15:39:39Z</time>
      </trkpt>
      <trkpt lat="47.65859" lon="6.20379">
        <ele>269.8</ele>
        <time>2022-01-23T15:39:41Z</time>
      </trkpt>
      <trkpt lat="47.65854" lon="6.20374">
        <ele>269.7</ele>
        <time>2022-01-23T15:39:42Z</time>
      </trkpt>
      <trkpt lat="47.65849" lon="6.20369">
        <ele>269.7</ele>
        <time>2022-01-23T15:39:44Z</time>
      </trkpt>
      <trkpt lat="47.65844" lon="6.20364">
        <ele>269.8</ele>
        <time>2022-01-23T15:39:45Z</time>
      </trkpt>
      <trkpt lat="47.65839" lon="6.20357">
        <ele>270.1</ele>
        <time>2022-01-23T15:39:47Z</time>
      </trkpt>
      <trkpt lat="47.65835" lon="6.20352">
        <ele>270.1</ele>
        <time>2022-01-23T15:39:49Z</time>
      </trkpt>
      <trkpt lat="47.6583" lon="6.20346">
        <ele>270.2</ele>
        <time>2022-01-23T15:39:51Z</time>
      </trkpt>
      <trkpt lat="47.65825" lon="6.20341">
        <ele>270.3</ele>
        <time>2022-01-23T15:39:54Z</time>
      </trkpt>
      <trkpt lat="47.65821" lon="6.20335">
        <ele>270.4</ele>
        <time>2022-01-23T15:39:56Z</time>
      </trkpt>
      <trkpt lat="47.65817" lon="6.20331">
        <ele>270.5</ele>
        <time>2022-01-23T15:39:58Z</time>
      </trkpt>
      <trkpt lat="47.65813" lon="6.20326">
        <ele>270.5</ele>
        <time>2022-01-23T15:40:00Z</time>
      </trkpt>
      <trkpt lat="47.65809" lon="6.20322">
        <ele>270.6</ele>
        <time>2022-01-23T15:40:02Z</time>
      </trkpt>
      <trkpt lat="47.65804" lon="6.20317">
        <ele>270.7</ele>
        <time>2022-01-23T15:40:05Z</time>
      </trkpt>
      <trkpt lat="47.658" lon="6.20313">
        <ele>270.7</ele>
        <time>2022-01-23T15:40:08Z</time>
      </trkpt>
      <trkpt lat="47.65796" lon="6.20309">
        <ele>270.8</ele>
        <time>2022-01-23T15:40:09Z</time>
      </trkpt>
      <trkpt lat="47.65791" lon="6.20305">
        <ele>271</ele>
        <time>2022-01-23T15:40:15Z</time>
      </trkpt>
      <trkpt lat="47.65787" lon="6.20301">
        <ele>271.2</ele>
        <time>2022-01-23T15:40:17Z</time>
      </trkpt>
      <trkpt lat="47.65778" lon="6.20292">
        <ele>271.5</ele>
        <time>2022-01-23T15:40:18Z</time>
      </trkpt>
      <trkpt lat="47.65774" lon="6.20288">
        <ele>271.7</ele>
        <time>2022-01-23T15:40:23Z</time>
      </trkpt>
      <trkpt lat="47.65763" lon="6.20277">
        <ele>272</ele>
        <time>2022-01-23T15:40:25Z</time>
      </trkpt>
      <trkpt lat="47.65758" lon="6.20272">
        <ele>272.2</ele>
        <time>2022-01-23T15:40:30Z</time>
      </trkpt>
      <trkpt lat="47.65754" lon="6.20268">
        <ele>272.4</ele>
        <time>2022-01-23T15:40:33Z</time>
      </trkpt>
      <trkpt lat="47.65749" lon="6.20264">
        <ele>272.5</ele>
        <time>2022-01-23T15:40:35Z</time>
      </trkpt>
      <trkpt lat="47.65742" lon="6.20255">
        <ele>273.4</ele>
        <time>2022-01-23T15:40:41Z</time>
      </trkpt>
      <trkpt lat="47.65738" lon="6.20251">
        <ele>273.9</ele>
        <time>2022-01-23T15:40:44Z</time>
      </trkpt>
      <trkpt lat="47.65734" lon="6.20246">
        <ele>274.3</ele>
        <time>2022-01-23T15:40:47Z</time>
      </trkpt>
      <trkpt lat="47.6573" lon="6.20242">
        <ele>274.7</ele>
        <time>2022-01-23T15:40:50Z</time>
      </trkpt>
      <trkpt lat="47.65725" lon="6.20236">
        <ele>275.1</ele>
        <time>2022-01-23T15:40:53Z</time>
      </trkpt>
      <trkpt lat="47.65715" lon="6.20225">
        <ele>275.3</ele>
        <time>2022-01-23T15:40:59Z</time>
      </trkpt>
      <trkpt lat="47.65712" lon="6.20222">
        <ele>275.3</ele>
        <time>2022-01-23T15:41:01Z</time>
      </trkpt>
      <trkpt lat="47.65703" lon="6.2021">
        <ele>275.5</ele>
        <time>2022-01-23T15:41:07Z</time>
      </trkpt>
      <trkpt lat="47.65698" lon="6.20205">
        <ele>275.5</ele>
        <time>2022-01-23T15:41:10Z</time>
      </trkpt>
      <trkpt lat="47.65694" lon="6.202">
        <ele>275.6</ele>
        <time>2022-01-23T15:41:13Z</time>
      </trkpt>
      <trkpt lat="47.65686" lon="6.20189">
        <ele>275.8</ele>
        <time>2022-01-23T15:41:16Z</time>
      </trkpt>
      <trkpt lat="47.65682" lon="6.20184">
        <ele>275.9</ele>
        <time>2022-01-23T15:41:19Z</time>
      </trkpt>
      <trkpt lat="47.65678" lon="6.20178">
        <ele>276</ele>
        <time>2022-01-23T15:41:25Z</time>
      </trkpt>
      <trkpt lat="47.65675" lon="6.20174">
        <ele>276.1</ele>
        <time>2022-01-23T15:41:27Z</time>
      </trkpt>
      <trkpt lat="47.6567" lon="6.20168">
        <ele>276.1</ele>
        <time>2022-01-23T15:41:29Z</time>
      </trkpt>
      <trkpt lat="47.65666" lon="6.20163">
        <ele>276.1</ele>
        <time>2022-01-23T15:41:31Z</time>
      </trkpt>
      <trkpt lat="47.65662" lon="6.20158">
        <ele>276.1</ele>
        <time>2022-01-23T15:41:34Z</time>
      </trkpt>
      <trkpt lat="47.65657" lon="6.20152">
        <ele>276.2</ele>
        <time>2022-01-23T15:41:36Z</time>
      </trkpt>
      <trkpt lat="47.65653" lon="6.20147">
        <ele>276.2</ele>
        <time>2022-01-23T15:41:39Z</time>
      </trkpt>
      <trkpt lat="47.65648" lon="6.20142">
        <ele>276.2</ele>
        <time>2022-01-23T15:41:41Z</time>
      </trkpt>
      <trkpt lat="47.65644" lon="6.20137">
        <ele>276.3</ele>
        <time>2022-01-23T15:41:44Z</time>
      </trkpt>
      <trkpt lat="47.6564" lon="6.20133">
        <ele>276.3</ele>
        <time>2022-01-23T15:41:46Z</time>
      </trkpt>
      <trkpt lat="47.65636" lon="6.20128">
        <ele>276.2</ele>
        <time>2022-01-23T15:41:48Z</time>
      </trkpt>
      <trkpt lat="47.65631" lon="6.20121">
        <ele>276.1</ele>
        <time>2022-01-23T15:41:50Z</time>
      </trkpt>
      <trkpt lat="47.65622" lon="6.2011">
        <ele>275.9</ele>
        <time>2022-01-23T15:41:52Z</time>
      </trkpt>
      <trkpt lat="47.65617" lon="6.20103">
        <ele>275.7</ele>
        <time>2022-01-23T15:41:54Z</time>
      </trkpt>
      <trkpt lat="47.65606" lon="6.20091">
        <ele>275.3</ele>
        <time>2022-01-23T15:41:56Z</time>
      </trkpt>
      <trkpt lat="47.65593" lon="6.20079">
        <ele>274.9</ele>
        <time>2022-01-23T15:42:00Z</time>
      </trkpt>
      <trkpt lat="47.6559" lon="6.20075">
        <ele>274.7</ele>
        <time>2022-01-23T15:42:01Z</time>
      </trkpt>
      <trkpt lat="47.65585" lon="6.20071">
        <ele>274.6</ele>
        <time>2022-01-23T15:42:02Z</time>
      </trkpt>
      <trkpt lat="47.6557" lon="6.20055">
        <ele>274.5</ele>
        <time>2022-01-23T15:42:06Z</time>
      </trkpt>
      <trkpt lat="47.65564" lon="6.20047">
        <ele>274.4</ele>
        <time>2022-01-23T15:42:07Z</time>
      </trkpt>
      <trkpt lat="47.65559" lon="6.2004">
        <ele>274.2</ele>
        <time>2022-01-23T15:42:09Z</time>
      </trkpt>
      <trkpt lat="47.65554" lon="6.20034">
        <ele>273.9</ele>
        <time>2022-01-23T15:42:10Z</time>
      </trkpt>
      <trkpt lat="47.6555" lon="6.2003">
        <ele>273.6</ele>
        <time>2022-01-23T15:42:11Z</time>
      </trkpt>
      <trkpt lat="47.6554" lon="6.20017">
        <ele>273.3</ele>
        <time>2022-01-23T15:42:14Z</time>
      </trkpt>
      <trkpt lat="47.65532" lon="6.20006">
        <ele>273.1</ele>
        <time>2022-01-23T15:42:16Z</time>
      </trkpt>
      <trkpt lat="47.65523" lon="6.19996">
        <ele>273</ele>
        <time>2022-01-23T15:42:19Z</time>
      </trkpt>
      <trkpt lat="47.65513" lon="6.19983">
        <ele>273.1</ele>
        <time>2022-01-23T15:42:22Z</time>
      </trkpt>
      <trkpt lat="47.65508" lon="6.19977">
        <ele>273.2</ele>
        <time>2022-01-23T15:42:23Z</time>
      </trkpt>
      <trkpt lat="47.65499" lon="6.19966">
        <ele>272.8</ele>
        <time>2022-01-23T15:42:26Z</time>
      </trkpt>
      <trkpt lat="47.65494" lon="6.19961">
        <ele>272.2</ele>
        <time>2022-01-23T15:42:28Z</time>
      </trkpt>
      <trkpt lat="47.6549" lon="6.19956">
        <ele>271.9</ele>
        <time>2022-01-23T15:42:29Z</time>
      </trkpt>
      <trkpt lat="47.65486" lon="6.19949">
        <ele>271.7</ele>
        <time>2022-01-23T15:42:30Z</time>
      </trkpt>
      <trkpt lat="47.65482" lon="6.19943">
        <ele>271.7</ele>
        <time>2022-01-23T15:42:32Z</time>
      </trkpt>
      <trkpt lat="47.65479" lon="6.19938">
        <ele>271.7</ele>
        <time>2022-01-23T15:42:33Z</time>
      </trkpt>
      <trkpt lat="47.65476" lon="6.19933">
        <ele>271.7</ele>
        <time>2022-01-23T15:42:34Z</time>
      </trkpt>
      <trkpt lat="47.65465" lon="6.19914">
        <ele>271.3</ele>
        <time>2022-01-23T15:42:37Z</time>
      </trkpt>
      <trkpt lat="47.65459" lon="6.19899">
        <ele>271.5</ele>
        <time>2022-01-23T15:42:40Z</time>
      </trkpt>
      <trkpt lat="47.65452" lon="6.19886">
        <ele>271.7</ele>
        <time>2022-01-23T15:42:41Z</time>
      </trkpt>
      <trkpt lat="47.65448" lon="6.19882">
        <ele>271.8</ele>
        <time>2022-01-23T15:42:47Z</time>
      </trkpt>
      <trkpt lat="47.65443" lon="6.19877">
        <ele>271.7</ele>
        <time>2022-01-23T15:42:50Z</time>
      </trkpt>
      <trkpt lat="47.65439" lon="6.19873">
        <ele>271.5</ele>
        <time>2022-01-23T15:42:52Z</time>
      </trkpt>
      <trkpt lat="47.65435" lon="6.19869">
        <ele>271.3</ele>
        <time>2022-01-23T15:42:54Z</time>
      </trkpt>
      <trkpt lat="47.6543" lon="6.19864">
        <ele>271.1</ele>
        <time>2022-01-23T15:42:56Z</time>
      </trkpt>
      <trkpt lat="47.65425" lon="6.1986">
        <ele>271</ele>
        <time>2022-01-23T15:42:57Z</time>
      </trkpt>
      <trkpt lat="47.6542" lon="6.19853">
        <ele>270.7</ele>
        <time>2022-01-23T15:42:59Z</time>
      </trkpt>
      <trkpt lat="47.65407" lon="6.19835">
        <ele>269.1</ele>
        <time>2022-01-23T15:43:03Z</time>
      </trkpt>
      <trkpt lat="47.65396" lon="6.19819">
        <ele>268.2</ele>
        <time>2022-01-23T15:43:07Z</time>
      </trkpt>
      <trkpt lat="47.65392" lon="6.19813">
        <ele>267.9</ele>
        <time>2022-01-23T15:43:08Z</time>
      </trkpt>
      <trkpt lat="47.65387" lon="6.19807">
        <ele>267.6</ele>
        <time>2022-01-23T15:43:09Z</time>
      </trkpt>
      <trkpt lat="47.65382" lon="6.19798">
        <ele>267.5</ele>
        <time>2022-01-23T15:43:11Z</time>
      </trkpt>
      <trkpt lat="47.65376" lon="6.19782">
        <ele>268.5</ele>
        <time>2022-01-23T15:43:14Z</time>
      </trkpt>
      <trkpt lat="47.65369" lon="6.19767">
        <ele>269.2</ele>
        <time>2022-01-23T15:43:17Z</time>
      </trkpt>
      <trkpt lat="47.65363" lon="6.19752">
        <ele>269.2</ele>
        <time>2022-01-23T15:43:19Z</time>
      </trkpt>
      <trkpt lat="47.65361" lon="6.19746">
        <ele>268.9</ele>
        <time>2022-01-23T15:43:20Z</time>
      </trkpt>
      <trkpt lat="47.65353" lon="6.19729">
        <ele>267.7</ele>
        <time>2022-01-23T15:43:23Z</time>
      </trkpt>
      <trkpt lat="47.6535" lon="6.19721">
        <ele>267.5</ele>
        <time>2022-01-23T15:43:25Z</time>
      </trkpt>
      <trkpt lat="47.65348" lon="6.19716">
        <ele>267.4</ele>
        <time>2022-01-23T15:43:26Z</time>
      </trkpt>
      <trkpt lat="47.65345" lon="6.19709">
        <ele>267.5</ele>
        <time>2022-01-23T15:43:27Z</time>
      </trkpt>
      <trkpt lat="47.65342" lon="6.197">
        <ele>267.6</ele>
        <time>2022-01-23T15:43:28Z</time>
      </trkpt>
      <trkpt lat="47.65339" lon="6.19692">
        <ele>267.7</ele>
        <time>2022-01-23T15:43:30Z</time>
      </trkpt>
      <trkpt lat="47.65335" lon="6.19683">
        <ele>267.6</ele>
        <time>2022-01-23T15:43:31Z</time>
      </trkpt>
      <trkpt lat="47.65333" lon="6.19676">
        <ele>267.6</ele>
        <time>2022-01-23T15:43:33Z</time>
      </trkpt>
      <trkpt lat="47.6533" lon="6.19668">
        <ele>267.5</ele>
        <time>2022-01-23T15:43:34Z</time>
      </trkpt>
      <trkpt lat="47.65327" lon="6.19659">
        <ele>267.4</ele>
        <time>2022-01-23T15:43:36Z</time>
      </trkpt>
      <trkpt lat="47.65325" lon="6.19653">
        <ele>267.5</ele>
        <time>2022-01-23T15:43:38Z</time>
      </trkpt>
      <trkpt lat="47.65323" lon="6.19647">
        <ele>267.5</ele>
        <time>2022-01-23T15:43:39Z</time>
      </trkpt>
      <trkpt lat="47.65317" lon="6.19631">
        <ele>267.4</ele>
        <time>2022-01-23T15:43:41Z</time>
      </trkpt>
      <trkpt lat="47.65313" lon="6.19624">
        <ele>267.2</ele>
        <time>2022-01-23T15:43:43Z</time>
      </trkpt>
      <trkpt lat="47.65311" lon="6.19617">
        <ele>267.2</ele>
        <time>2022-01-23T15:43:44Z</time>
      </trkpt>
      <trkpt lat="47.653" lon="6.19587">
        <ele>267.6</ele>
        <time>2022-01-23T15:43:48Z</time>
      </trkpt>
      <trkpt lat="47.65297" lon="6.1958">
        <ele>267.8</ele>
        <time>2022-01-23T15:43:49Z</time>
      </trkpt>
      <trkpt lat="47.65294" lon="6.19572">
        <ele>268.2</ele>
        <time>2022-01-23T15:43:51Z</time>
      </trkpt>
      <trkpt lat="47.6529" lon="6.19564">
        <ele>268.5</ele>
        <time>2022-01-23T15:43:52Z</time>
      </trkpt>
      <trkpt lat="47.65283" lon="6.19552">
        <ele>269.2</ele>
        <time>2022-01-23T15:43:56Z</time>
      </trkpt>
      <trkpt lat="47.65281" lon="6.19545">
        <ele>269.7</ele>
        <time>2022-01-23T15:44:00Z</time>
      </trkpt>
      <trkpt lat="47.65282" lon="6.19536">
        <ele>270.3</ele>
        <time>2022-01-23T15:44:02Z</time>
      </trkpt>
      <trkpt lat="47.65281" lon="6.19526">
        <ele>270.9</ele>
        <time>2022-01-23T15:44:05Z</time>
      </trkpt>
      <trkpt lat="47.65281" lon="6.19519">
        <ele>271.3</ele>
        <time>2022-01-23T15:44:07Z</time>
      </trkpt>
      <trkpt lat="47.65278" lon="6.19512">
        <ele>271.6</ele>
        <time>2022-01-23T15:44:09Z</time>
      </trkpt>
      <trkpt lat="47.65275" lon="6.19506">
        <ele>271.6</ele>
        <time>2022-01-23T15:44:11Z</time>
      </trkpt>
      <trkpt lat="47.65272" lon="6.195">
        <ele>271.6</ele>
        <time>2022-01-23T15:44:13Z</time>
      </trkpt>
      <trkpt lat="47.65269" lon="6.19495">
        <ele>271.4</ele>
        <time>2022-01-23T15:44:15Z</time>
      </trkpt>
      <trkpt lat="47.65265" lon="6.19488">
        <ele>271.3</ele>
        <time>2022-01-23T15:44:18Z</time>
      </trkpt>
      <trkpt lat="47.65261" lon="6.19482">
        <ele>271.2</ele>
        <time>2022-01-23T15:44:20Z</time>
      </trkpt>
      <trkpt lat="47.65256" lon="6.19474">
        <ele>271.2</ele>
        <time>2022-01-23T15:44:23Z</time>
      </trkpt>
      <trkpt lat="47.65253" lon="6.19468">
        <ele>271.3</ele>
        <time>2022-01-23T15:44:25Z</time>
      </trkpt>
      <trkpt lat="47.65245" lon="6.19456">
        <ele>271.3</ele>
        <time>2022-01-23T15:44:29Z</time>
      </trkpt>
      <trkpt lat="47.65236" lon="6.19445">
        <ele>270.9</ele>
        <time>2022-01-23T15:44:29Z</time>
      </trkpt>
      <trkpt lat="47.65232" lon="6.19441">
        <ele>270.7</ele>
        <time>2022-01-23T15:44:35Z</time>
      </trkpt>
      <trkpt lat="47.65227" lon="6.19435">
        <ele>270.4</ele>
        <time>2022-01-23T15:44:37Z</time>
      </trkpt>
      <trkpt lat="47.65224" lon="6.19427">
        <ele>270.1</ele>
        <time>2022-01-23T15:44:39Z</time>
      </trkpt>
      <trkpt lat="47.6522" lon="6.1942">
        <ele>269.9</ele>
        <time>2022-01-23T15:44:40Z</time>
      </trkpt>
      <trkpt lat="47.65216" lon="6.19414">
        <ele>269.9</ele>
        <time>2022-01-23T15:44:42Z</time>
      </trkpt>
      <trkpt lat="47.65213" lon="6.19409">
        <ele>270</ele>
        <time>2022-01-23T15:44:44Z</time>
      </trkpt>
      <trkpt lat="47.65209" lon="6.19402">
        <ele>270.3</ele>
        <time>2022-01-23T15:44:46Z</time>
      </trkpt>
      <trkpt lat="47.65206" lon="6.19396">
        <ele>270.6</ele>
        <time>2022-01-23T15:44:47Z</time>
      </trkpt>
      <trkpt lat="47.65203" lon="6.1939">
        <ele>270.9</ele>
        <time>2022-01-23T15:44:49Z</time>
      </trkpt>
      <trkpt lat="47.652" lon="6.19385">
        <ele>271</ele>
        <time>2022-01-23T15:44:51Z</time>
      </trkpt>
      <trkpt lat="47.65192" lon="6.19372">
        <ele>270.9</ele>
        <time>2022-01-23T15:44:51Z</time>
      </trkpt>
      <trkpt lat="47.65187" lon="6.19367">
        <ele>270.7</ele>
        <time>2022-01-23T15:44:58Z</time>
      </trkpt>
      <trkpt lat="47.65183" lon="6.1936">
        <ele>270.6</ele>
        <time>2022-01-23T15:44:59Z</time>
      </trkpt>
      <trkpt lat="47.6518" lon="6.19354">
        <ele>270.7</ele>
        <time>2022-01-23T15:45:01Z</time>
      </trkpt>
      <trkpt lat="47.65176" lon="6.19349">
        <ele>270.8</ele>
        <time>2022-01-23T15:45:04Z</time>
      </trkpt>
      <trkpt lat="47.65173" lon="6.19344">
        <ele>270.8</ele>
        <time>2022-01-23T15:45:05Z</time>
      </trkpt>
      <trkpt lat="47.65168" lon="6.19339">
        <ele>270.9</ele>
        <time>2022-01-23T15:45:08Z</time>
      </trkpt>
      <trkpt lat="47.65159" lon="6.19329">
        <ele>271.2</ele>
        <time>2022-01-23T15:45:09Z</time>
      </trkpt>
      <trkpt lat="47.65154" lon="6.19324">
        <ele>271.3</ele>
        <time>2022-01-23T15:45:11Z</time>
      </trkpt>
      <trkpt lat="47.6515" lon="6.19319">
        <ele>271.5</ele>
        <time>2022-01-23T15:45:17Z</time>
      </trkpt>
      <trkpt lat="47.65141" lon="6.1931">
        <ele>271.8</ele>
        <time>2022-01-23T15:45:21Z</time>
      </trkpt>
      <trkpt lat="47.65137" lon="6.19305">
        <ele>271.8</ele>
        <time>2022-01-23T15:45:22Z</time>
      </trkpt>
      <trkpt lat="47.65132" lon="6.19301">
        <ele>271.6</ele>
        <time>2022-01-23T15:45:24Z</time>
      </trkpt>
      <trkpt lat="47.65123" lon="6.19289">
        <ele>271.2</ele>
        <time>2022-01-23T15:45:28Z</time>
      </trkpt>
      <trkpt lat="47.65119" lon="6.19284">
        <ele>271.1</ele>
        <time>2022-01-23T15:45:29Z</time>
      </trkpt>
      <trkpt lat="47.65114" lon="6.19277">
        <ele>271.1</ele>
        <time>2022-01-23T15:45:31Z</time>
      </trkpt>
      <trkpt lat="47.65108" lon="6.1927">
        <ele>270.8</ele>
        <time>2022-01-23T15:45:33Z</time>
      </trkpt>
      <trkpt lat="47.65105" lon="6.19265">
        <ele>270.7</ele>
        <time>2022-01-23T15:45:34Z</time>
      </trkpt>
      <trkpt lat="47.65096" lon="6.19253">
        <ele>270.4</ele>
        <time>2022-01-23T15:45:36Z</time>
      </trkpt>
      <trkpt lat="47.65092" lon="6.19247">
        <ele>270.3</ele>
        <time>2022-01-23T15:45:38Z</time>
      </trkpt>
      <trkpt lat="47.65088" lon="6.19241">
        <ele>270.2</ele>
        <time>2022-01-23T15:45:39Z</time>
      </trkpt>
      <trkpt lat="47.65074" lon="6.19221">
        <ele>269.3</ele>
        <time>2022-01-23T15:45:39Z</time>
      </trkpt>
      <trkpt lat="47.65069" lon="6.19213">
        <ele>269.1</ele>
        <time>2022-01-23T15:45:44Z</time>
      </trkpt>
      <trkpt lat="47.65064" lon="6.19206">
        <ele>269</ele>
        <time>2022-01-23T15:45:46Z</time>
      </trkpt>
      <trkpt lat="47.6506" lon="6.19199">
        <ele>269</ele>
        <time>2022-01-23T15:45:47Z</time>
      </trkpt>
      <trkpt lat="47.65056" lon="6.19192">
        <ele>269.1</ele>
        <time>2022-01-23T15:45:48Z</time>
      </trkpt>
      <trkpt lat="47.65052" lon="6.19187">
        <ele>269.1</ele>
        <time>2022-01-23T15:45:49Z</time>
      </trkpt>
      <trkpt lat="47.65049" lon="6.19182">
        <ele>269.1</ele>
        <time>2022-01-23T15:45:50Z</time>
      </trkpt>
      <trkpt lat="47.65045" lon="6.19176">
        <ele>269.1</ele>
        <time>2022-01-23T15:45:52Z</time>
      </trkpt>
      <trkpt lat="47.65042" lon="6.1917">
        <ele>268.9</ele>
        <time>2022-01-23T15:45:53Z</time>
      </trkpt>
      <trkpt lat="47.65039" lon="6.19164">
        <ele>268.8</ele>
        <time>2022-01-23T15:45:54Z</time>
      </trkpt>
      <trkpt lat="47.65033" lon="6.19155">
        <ele>268.7</ele>
        <time>2022-01-23T15:45:56Z</time>
      </trkpt>
      <trkpt lat="47.65022" lon="6.19135">
        <ele>268.6</ele>
        <time>2022-01-23T15:46:00Z</time>
      </trkpt>
      <trkpt lat="47.65007" lon="6.1911">
        <ele>267.6</ele>
        <time>2022-01-23T15:46:00Z</time>
      </trkpt>
      <trkpt lat="47.65004" lon="6.19105">
        <ele>267.5</ele>
        <time>2022-01-23T15:46:01Z</time>
      </trkpt>
      <trkpt lat="47.65001" lon="6.19099">
        <ele>267.5</ele>
        <time>2022-01-23T15:46:02Z</time>
      </trkpt>
      <trkpt lat="47.64998" lon="6.19094">
        <ele>267.5</ele>
        <time>2022-01-23T15:46:03Z</time>
      </trkpt>
      <trkpt lat="47.64994" lon="6.19089">
        <ele>267.4</ele>
        <time>2022-01-23T15:46:04Z</time>
      </trkpt>
      <trkpt lat="47.64991" lon="6.19084">
        <ele>267.3</ele>
        <time>2022-01-23T15:46:05Z</time>
      </trkpt>
      <trkpt lat="47.64988" lon="6.19078">
        <ele>267.2</ele>
        <time>2022-01-23T15:46:06Z</time>
      </trkpt>
      <trkpt lat="47.64985" lon="6.19072">
        <ele>267.1</ele>
        <time>2022-01-23T15:46:07Z</time>
      </trkpt>
      <trkpt lat="47.64982" lon="6.19064">
        <ele>267.2</ele>
        <time>2022-01-23T15:46:08Z</time>
      </trkpt>
      <trkpt lat="47.64981" lon="6.19057">
        <ele>267.3</ele>
        <time>2022-01-23T15:46:09Z</time>
      </trkpt>
      <trkpt lat="47.64982" lon="6.1905">
        <ele>267.4</ele>
        <time>2022-01-23T15:46:10Z</time>
      </trkpt>
      <trkpt lat="47.64985" lon="6.19044">
        <ele>267.4</ele>
        <time>2022-01-23T15:46:11Z</time>
      </trkpt>
      <trkpt lat="47.64991" lon="6.19036">
        <ele>267.7</ele>
        <time>2022-01-23T15:46:13Z</time>
      </trkpt>
      <trkpt lat="47.64998" lon="6.19032">
        <ele>267.9</ele>
        <time>2022-01-23T15:46:15Z</time>
      </trkpt>
      <trkpt lat="47.65005" lon="6.19027">
        <ele>268.4</ele>
        <time>2022-01-23T15:46:17Z</time>
      </trkpt>
      <trkpt lat="47.6501" lon="6.19023">
        <ele>268.8</ele>
        <time>2022-01-23T15:46:19Z</time>
      </trkpt>
      <trkpt lat="47.65014" lon="6.19025">
        <ele>269.1</ele>
        <time>2022-01-23T15:46:25Z</time>
      </trkpt>
      <trkpt lat="47.65019" lon="6.1902">
        <ele>269.4</ele>
        <time>2022-01-23T15:46:26Z</time>
      </trkpt>
      <trkpt lat="47.65022" lon="6.19015">
        <ele>269.7</ele>
        <time>2022-01-23T15:46:28Z</time>
      </trkpt>
      <trkpt lat="47.65026" lon="6.1901">
        <ele>269.9</ele>
        <time>2022-01-23T15:46:31Z</time>
      </trkpt>
      <trkpt lat="47.6503" lon="6.19006">
        <ele>270.1</ele>
        <time>2022-01-23T15:46:33Z</time>
      </trkpt>
      <trkpt lat="47.65034" lon="6.19001">
        <ele>270.4</ele>
        <time>2022-01-23T15:46:37Z</time>
      </trkpt>
      <trkpt lat="47.65037" lon="6.18997">
        <ele>270.8</ele>
        <time>2022-01-23T15:46:41Z</time>
      </trkpt>
      <trkpt lat="47.65042" lon="6.18992">
        <ele>271.2</ele>
        <time>2022-01-23T15:46:46Z</time>
      </trkpt>
      <trkpt lat="47.65051" lon="6.18983">
        <ele>271.8</ele>
        <time>2022-01-23T15:46:50Z</time>
      </trkpt>
      <trkpt lat="47.65055" lon="6.18979">
        <ele>272</ele>
        <time>2022-01-23T15:46:52Z</time>
      </trkpt>
      <trkpt lat="47.65058" lon="6.18975">
        <ele>272.1</ele>
        <time>2022-01-23T15:46:53Z</time>
      </trkpt>
      <trkpt lat="47.65063" lon="6.18971">
        <ele>272.3</ele>
        <time>2022-01-23T15:46:56Z</time>
      </trkpt>
      <trkpt lat="47.65067" lon="6.18967">
        <ele>272.3</ele>
        <time>2022-01-23T15:46:57Z</time>
      </trkpt>
      <trkpt lat="47.65071" lon="6.18964">
        <ele>272.4</ele>
        <time>2022-01-23T15:47:00Z</time>
      </trkpt>
      <trkpt lat="47.65076" lon="6.18959">
        <ele>272.4</ele>
        <time>2022-01-23T15:47:02Z</time>
      </trkpt>
      <trkpt lat="47.6508" lon="6.18955">
        <ele>272.3</ele>
        <time>2022-01-23T15:47:04Z</time>
      </trkpt>
      <trkpt lat="47.65085" lon="6.1895">
        <ele>272.1</ele>
        <time>2022-01-23T15:47:07Z</time>
      </trkpt>
      <trkpt lat="47.65089" lon="6.18945">
        <ele>271.8</ele>
        <time>2022-01-23T15:47:08Z</time>
      </trkpt>
      <trkpt lat="47.65093" lon="6.18941">
        <ele>271.5</ele>
        <time>2022-01-23T15:47:10Z</time>
      </trkpt>
      <trkpt lat="47.65103" lon="6.1893">
        <ele>270.8</ele>
        <time>2022-01-23T15:47:13Z</time>
      </trkpt>
      <trkpt lat="47.65115" lon="6.18917">
        <ele>270</ele>
        <time>2022-01-23T15:47:16Z</time>
      </trkpt>
      <trkpt lat="47.65119" lon="6.18913">
        <ele>270</ele>
        <time>2022-01-23T15:47:16Z</time>
      </trkpt>
      <trkpt lat="47.65125" lon="6.18907">
        <ele>270</ele>
        <time>2022-01-23T15:47:18Z</time>
      </trkpt>
      <trkpt lat="47.65139" lon="6.18892">
        <ele>270</ele>
        <time>2022-01-23T15:47:21Z</time>
      </trkpt>
      <trkpt lat="47.65143" lon="6.18888">
        <ele>270.2</ele>
        <time>2022-01-23T15:47:22Z</time>
      </trkpt>
      <trkpt lat="47.65149" lon="6.18881">
        <ele>270.5</ele>
        <time>2022-01-23T15:47:24Z</time>
      </trkpt>
      <trkpt lat="47.65155" lon="6.18875">
        <ele>270.8</ele>
        <time>2022-01-23T15:47:26Z</time>
      </trkpt>
      <trkpt lat="47.65159" lon="6.18869">
        <ele>270.9</ele>
        <time>2022-01-23T15:47:28Z</time>
      </trkpt>
      <trkpt lat="47.65169" lon="6.18861">
        <ele>270.9</ele>
        <time>2022-01-23T15:47:32Z</time>
      </trkpt>
      <trkpt lat="47.65173" lon="6.18856">
        <ele>270.8</ele>
        <time>2022-01-23T15:47:35Z</time>
      </trkpt>
      <trkpt lat="47.65178" lon="6.18851">
        <ele>270.6</ele>
        <time>2022-01-23T15:47:37Z</time>
      </trkpt>
      <trkpt lat="47.65184" lon="6.18846">
        <ele>270.4</ele>
        <time>2022-01-23T15:47:39Z</time>
      </trkpt>
      <trkpt lat="47.65189" lon="6.1884">
        <ele>270.2</ele>
        <time>2022-01-23T15:47:41Z</time>
      </trkpt>
      <trkpt lat="47.65194" lon="6.18834">
        <ele>270</ele>
        <time>2022-01-23T15:47:43Z</time>
      </trkpt>
      <trkpt lat="47.65198" lon="6.1883">
        <ele>270</ele>
        <time>2022-01-23T15:47:45Z</time>
      </trkpt>
      <trkpt lat="47.65208" lon="6.18819">
        <ele>270</ele>
        <time>2022-01-23T15:47:45Z</time>
      </trkpt>
      <trkpt lat="47.65213" lon="6.18815">
        <ele>270</ele>
        <time>2022-01-23T15:47:51Z</time>
      </trkpt>
      <trkpt lat="47.65217" lon="6.1881">
        <ele>270</ele>
        <time>2022-01-23T15:47:52Z</time>
      </trkpt>
      <trkpt lat="47.65226" lon="6.188">
        <ele>270.1</ele>
        <time>2022-01-23T15:47:55Z</time>
      </trkpt>
      <trkpt lat="47.6523" lon="6.18795">
        <ele>270.3</ele>
        <time>2022-01-23T15:47:57Z</time>
      </trkpt>
      <trkpt lat="47.65235" lon="6.18789">
        <ele>270.5</ele>
        <time>2022-01-23T15:47:59Z</time>
      </trkpt>
      <trkpt lat="47.65239" lon="6.18785">
        <ele>270.6</ele>
        <time>2022-01-23T15:48:00Z</time>
      </trkpt>
      <trkpt lat="47.65245" lon="6.18779">
        <ele>270.8</ele>
        <time>2022-01-23T15:48:02Z</time>
      </trkpt>
      <trkpt lat="47.65249" lon="6.18775">
        <ele>270.8</ele>
        <time>2022-01-23T15:48:04Z</time>
      </trkpt>
      <trkpt lat="47.65257" lon="6.18766">
        <ele>270.9</ele>
        <time>2022-01-23T15:48:08Z</time>
      </trkpt>
      <trkpt lat="47.65262" lon="6.18759">
        <ele>271</ele>
        <time>2022-01-23T15:48:10Z</time>
      </trkpt>
      <trkpt lat="47.65267" lon="6.18754">
        <ele>271.2</ele>
        <time>2022-01-23T15:48:12Z</time>
      </trkpt>
      <trkpt lat="47.6527" lon="6.18749">
        <ele>271.5</ele>
        <time>2022-01-23T15:48:14Z</time>
      </trkpt>
      <trkpt lat="47.65274" lon="6.18745">
        <ele>271.7</ele>
        <time>2022-01-23T15:48:15Z</time>
      </trkpt>
      <trkpt lat="47.65278" lon="6.18739">
        <ele>272</ele>
        <time>2022-01-23T15:48:18Z</time>
      </trkpt>
      <trkpt lat="47.65282" lon="6.18735">
        <ele>272.3</ele>
        <time>2022-01-23T15:48:19Z</time>
      </trkpt>
      <trkpt lat="47.65287" lon="6.18729">
        <ele>272.7</ele>
        <time>2022-01-23T15:48:22Z</time>
      </trkpt>
      <trkpt lat="47.65294" lon="6.18719">
        <ele>273.1</ele>
        <time>2022-01-23T15:48:23Z</time>
      </trkpt>
      <trkpt lat="47.65298" lon="6.18714">
        <ele>273.2</ele>
        <time>2022-01-23T15:48:26Z</time>
      </trkpt>
      <trkpt lat="47.65302" lon="6.18708">
        <ele>273.3</ele>
        <time>2022-01-23T15:48:33Z</time>
      </trkpt>
      <trkpt lat="47.6531" lon="6.18699">
        <ele>273.3</ele>
        <time>2022-01-23T15:48:37Z</time>
      </trkpt>
      <trkpt lat="47.65315" lon="6.18694">
        <ele>273.3</ele>
        <time>2022-01-23T15:48:39Z</time>
      </trkpt>
      <trkpt lat="47.65319" lon="6.18688">
        <ele>273.5</ele>
        <time>2022-01-23T15:48:40Z</time>
      </trkpt>
      <trkpt lat="47.65324" lon="6.18682">
        <ele>273.6</ele>
        <time>2022-01-23T15:48:43Z</time>
      </trkpt>
      <trkpt lat="47.65327" lon="6.18678">
        <ele>273.8</ele>
        <time>2022-01-23T15:48:44Z</time>
      </trkpt>
      <trkpt lat="47.65332" lon="6.18671">
        <ele>274</ele>
        <time>2022-01-23T15:48:46Z</time>
      </trkpt>
      <trkpt lat="47.65341" lon="6.1866">
        <ele>273.8</ele>
        <time>2022-01-23T15:48:47Z</time>
      </trkpt>
      <trkpt lat="47.65345" lon="6.18654">
        <ele>273.6</ele>
        <time>2022-01-23T15:48:49Z</time>
      </trkpt>
      <trkpt lat="47.6535" lon="6.18648">
        <ele>273.3</ele>
        <time>2022-01-23T15:48:55Z</time>
      </trkpt>
      <trkpt lat="47.6536" lon="6.18634">
        <ele>272.6</ele>
        <time>2022-01-23T15:48:58Z</time>
      </trkpt>
      <trkpt lat="47.65363" lon="6.18629">
        <ele>272.3</ele>
        <time>2022-01-23T15:48:59Z</time>
      </trkpt>
      <trkpt lat="47.65376" lon="6.1861">
        <ele>271.5</ele>
        <time>2022-01-23T15:49:03Z</time>
      </trkpt>
      <trkpt lat="47.65389" lon="6.1859">
        <ele>271.2</ele>
        <time>2022-01-23T15:49:06Z</time>
      </trkpt>
      <trkpt lat="47.65407" lon="6.18559">
        <ele>270.8</ele>
        <time>2022-01-23T15:49:11Z</time>
      </trkpt>
      <trkpt lat="47.65411" lon="6.18555">
        <ele>270.8</ele>
        <time>2022-01-23T15:49:13Z</time>
      </trkpt>
      <trkpt lat="47.6542" lon="6.18541">
        <ele>271.1</ele>
        <time>2022-01-23T15:49:16Z</time>
      </trkpt>
      <trkpt lat="47.65423" lon="6.18536">
        <ele>271.1</ele>
        <time>2022-01-23T15:49:17Z</time>
      </trkpt>
      <trkpt lat="47.65428" lon="6.1853">
        <ele>271.1</ele>
        <time>2022-01-23T15:49:19Z</time>
      </trkpt>
      <trkpt lat="47.65432" lon="6.18526">
        <ele>270.9</ele>
        <time>2022-01-23T15:49:21Z</time>
      </trkpt>
      <trkpt lat="47.65436" lon="6.1852">
        <ele>270.7</ele>
        <time>2022-01-23T15:49:23Z</time>
      </trkpt>
      <trkpt lat="47.6544" lon="6.18514">
        <ele>270.5</ele>
        <time>2022-01-23T15:49:24Z</time>
      </trkpt>
      <trkpt lat="47.65447" lon="6.18506">
        <ele>270.4</ele>
        <time>2022-01-23T15:49:27Z</time>
      </trkpt>
      <trkpt lat="47.65459" lon="6.18493">
        <ele>270.8</ele>
        <time>2022-01-23T15:49:27Z</time>
      </trkpt>
      <trkpt lat="47.65464" lon="6.18489">
        <ele>271</ele>
        <time>2022-01-23T15:49:33Z</time>
      </trkpt>
      <trkpt lat="47.65468" lon="6.18485">
        <ele>271.2</ele>
        <time>2022-01-23T15:49:35Z</time>
      </trkpt>
      <trkpt lat="47.65473" lon="6.18482">
        <ele>271.4</ele>
        <time>2022-01-23T15:49:36Z</time>
      </trkpt>
      <trkpt lat="47.65478" lon="6.18479">
        <ele>271.7</ele>
        <time>2022-01-23T15:49:39Z</time>
      </trkpt>
      <trkpt lat="47.65483" lon="6.18476">
        <ele>272</ele>
        <time>2022-01-23T15:49:41Z</time>
      </trkpt>
      <trkpt lat="47.65488" lon="6.18473">
        <ele>272.2</ele>
        <time>2022-01-23T15:49:44Z</time>
      </trkpt>
      <trkpt lat="47.65492" lon="6.18468">
        <ele>272.1</ele>
        <time>2022-01-23T15:49:46Z</time>
      </trkpt>
      <trkpt lat="47.65497" lon="6.18464">
        <ele>272.1</ele>
        <time>2022-01-23T15:49:47Z</time>
      </trkpt>
      <trkpt lat="47.65501" lon="6.18459">
        <ele>272.2</ele>
        <time>2022-01-23T15:49:50Z</time>
      </trkpt>
      <trkpt lat="47.65511" lon="6.18452">
        <ele>272.3</ele>
        <time>2022-01-23T15:49:54Z</time>
      </trkpt>
      <trkpt lat="47.65515" lon="6.18448">
        <ele>272.3</ele>
        <time>2022-01-23T15:49:56Z</time>
      </trkpt>
      <trkpt lat="47.65519" lon="6.18446">
        <ele>272.5</ele>
        <time>2022-01-23T15:49:58Z</time>
      </trkpt>
      <trkpt lat="47.65525" lon="6.18441">
        <ele>272.5</ele>
        <time>2022-01-23T15:50:01Z</time>
      </trkpt>
      <trkpt lat="47.65529" lon="6.18438">
        <ele>272.4</ele>
        <time>2022-01-23T15:50:03Z</time>
      </trkpt>
      <trkpt lat="47.65534" lon="6.18434">
        <ele>272.3</ele>
        <time>2022-01-23T15:50:05Z</time>
      </trkpt>
      <trkpt lat="47.65544" lon="6.1843">
        <ele>272.6</ele>
        <time>2022-01-23T15:50:06Z</time>
      </trkpt>
      <trkpt lat="47.6555" lon="6.18428">
        <ele>272.8</ele>
        <time>2022-01-23T15:50:12Z</time>
      </trkpt>
      <trkpt lat="47.65554" lon="6.18426">
        <ele>272.9</ele>
        <time>2022-01-23T15:50:15Z</time>
      </trkpt>
      <trkpt lat="47.65563" lon="6.18421">
        <ele>273.4</ele>
        <time>2022-01-23T15:50:19Z</time>
      </trkpt>
      <trkpt lat="47.65568" lon="6.18419">
        <ele>273.6</ele>
        <time>2022-01-23T15:50:22Z</time>
      </trkpt>
      <trkpt lat="47.65574" lon="6.18416">
        <ele>273.9</ele>
        <time>2022-01-23T15:50:25Z</time>
      </trkpt>
      <trkpt lat="47.65584" lon="6.18409">
        <ele>274</ele>
        <time>2022-01-23T15:50:30Z</time>
      </trkpt>
      <trkpt lat="47.65592" lon="6.18404">
        <ele>273.8</ele>
        <time>2022-01-23T15:50:30Z</time>
      </trkpt>
      <trkpt lat="47.65598" lon="6.18401">
        <ele>273.8</ele>
        <time>2022-01-23T15:50:37Z</time>
      </trkpt>
      <trkpt lat="47.65603" lon="6.18398">
        <ele>273.8</ele>
        <time>2022-01-23T15:50:39Z</time>
      </trkpt>
      <trkpt lat="47.65609" lon="6.18397">
        <ele>274</ele>
        <time>2022-01-23T15:50:41Z</time>
      </trkpt>
      <trkpt lat="47.65614" lon="6.18395">
        <ele>273.9</ele>
        <time>2022-01-23T15:50:43Z</time>
      </trkpt>
      <trkpt lat="47.65619" lon="6.18393">
        <ele>273.8</ele>
        <time>2022-01-23T15:50:44Z</time>
      </trkpt>
      <trkpt lat="47.65627" lon="6.18391">
        <ele>273.8</ele>
        <time>2022-01-23T15:50:47Z</time>
      </trkpt>
      <trkpt lat="47.65633" lon="6.18389">
        <ele>273.8</ele>
        <time>2022-01-23T15:50:49Z</time>
      </trkpt>
      <trkpt lat="47.65639" lon="6.18387">
        <ele>273.7</ele>
        <time>2022-01-23T15:50:51Z</time>
      </trkpt>
      <trkpt lat="47.65644" lon="6.18386">
        <ele>273.7</ele>
        <time>2022-01-23T15:50:52Z</time>
      </trkpt>
      <trkpt lat="47.65649" lon="6.18385">
        <ele>273.9</ele>
        <time>2022-01-23T15:50:54Z</time>
      </trkpt>
      <trkpt lat="47.65654" lon="6.18385">
        <ele>274</ele>
        <time>2022-01-23T15:50:56Z</time>
      </trkpt>
      <trkpt lat="47.65661" lon="6.18385">
        <ele>274.2</ele>
        <time>2022-01-23T15:50:57Z</time>
      </trkpt>
      <trkpt lat="47.65672" lon="6.18384">
        <ele>274.3</ele>
        <time>2022-01-23T15:51:01Z</time>
      </trkpt>
      <trkpt lat="47.65683" lon="6.18381">
        <ele>273.9</ele>
        <time>2022-01-23T15:51:04Z</time>
      </trkpt>
      <trkpt lat="47.6569" lon="6.18378">
        <ele>273.4</ele>
        <time>2022-01-23T15:51:06Z</time>
      </trkpt>
      <trkpt lat="47.65695" lon="6.18375">
        <ele>273</ele>
        <time>2022-01-23T15:51:07Z</time>
      </trkpt>
      <trkpt lat="47.65705" lon="6.18369">
        <ele>272</ele>
        <time>2022-01-23T15:51:09Z</time>
      </trkpt>
      <trkpt lat="47.65738" lon="6.18325">
        <ele>268</ele>
        <time>2022-01-23T15:51:09Z</time>
      </trkpt>
      <trkpt lat="47.65744" lon="6.18318">
        <ele>267.7</ele>
        <time>2022-01-23T15:51:10Z</time>
      </trkpt>
      <trkpt lat="47.65751" lon="6.18312">
        <ele>267.5</ele>
        <time>2022-01-23T15:51:11Z</time>
      </trkpt>
      <trkpt lat="47.65757" lon="6.18306">
        <ele>267.5</ele>
        <time>2022-01-23T15:51:12Z</time>
      </trkpt>
      <trkpt lat="47.65762" lon="6.183">
        <ele>267.7</ele>
        <time>2022-01-23T15:51:13Z</time>
      </trkpt>
      <trkpt lat="47.65768" lon="6.18295">
        <ele>267.9</ele>
        <time>2022-01-23T15:51:14Z</time>
      </trkpt>
      <trkpt lat="47.65773" lon="6.1829">
        <ele>268.1</ele>
        <time>2022-01-23T15:51:15Z</time>
      </trkpt>
      <trkpt lat="47.65778" lon="6.18286">
        <ele>268.3</ele>
        <time>2022-01-23T15:51:16Z</time>
      </trkpt>
      <trkpt lat="47.65783" lon="6.18282">
        <ele>268.3</ele>
        <time>2022-01-23T15:51:17Z</time>
      </trkpt>
      <trkpt lat="47.65788" lon="6.18279">
        <ele>268.4</ele>
        <time>2022-01-23T15:51:18Z</time>
      </trkpt>
      <trkpt lat="47.65792" lon="6.18276">
        <ele>268.4</ele>
        <time>2022-01-23T15:51:19Z</time>
      </trkpt>
      <trkpt lat="47.65796" lon="6.18273">
        <ele>268.4</ele>
        <time>2022-01-23T15:51:21Z</time>
      </trkpt>
      <trkpt lat="47.65804" lon="6.18269">
        <ele>268.3</ele>
        <time>2022-01-23T15:51:23Z</time>
      </trkpt>
      <trkpt lat="47.6581" lon="6.18265">
        <ele>268.1</ele>
        <time>2022-01-23T15:51:25Z</time>
      </trkpt>
      <trkpt lat="47.65817" lon="6.1826">
        <ele>268</ele>
        <time>2022-01-23T15:51:27Z</time>
      </trkpt>
      <trkpt lat="47.65823" lon="6.18258">
        <ele>268</ele>
        <time>2022-01-23T15:51:32Z</time>
      </trkpt>
      <trkpt lat="47.65834" lon="6.18248">
        <ele>267.8</ele>
        <time>2022-01-23T15:51:33Z</time>
      </trkpt>
      <trkpt lat="47.65839" lon="6.18243">
        <ele>267.4</ele>
        <time>2022-01-23T15:51:38Z</time>
      </trkpt>
      <trkpt lat="47.65844" lon="6.1824">
        <ele>267</ele>
        <time>2022-01-23T15:51:40Z</time>
      </trkpt>
      <trkpt lat="47.65848" lon="6.18235">
        <ele>266.7</ele>
        <time>2022-01-23T15:51:42Z</time>
      </trkpt>
      <trkpt lat="47.65849" lon="6.18219">
        <ele>265.8</ele>
        <time>2022-01-23T15:51:46Z</time>
      </trkpt>
      <trkpt lat="47.65848" lon="6.18209">
        <ele>265.1</ele>
        <time>2022-01-23T15:51:48Z</time>
      </trkpt>
      <trkpt lat="47.65851" lon="6.18192">
        <ele>263.9</ele>
        <time>2022-01-23T15:51:50Z</time>
      </trkpt>
      <trkpt lat="47.65862" lon="6.18187">
        <ele>263.7</ele>
        <time>2022-01-23T15:51:53Z</time>
      </trkpt>
      <trkpt lat="47.65867" lon="6.18189">
        <ele>263.8</ele>
        <time>2022-01-23T15:51:55Z</time>
      </trkpt>
      <trkpt lat="47.65872" lon="6.18191">
        <ele>263.8</ele>
        <time>2022-01-23T15:51:56Z</time>
      </trkpt>
      <trkpt lat="47.65888" lon="6.18197">
        <ele>264.1</ele>
        <time>2022-01-23T15:52:00Z</time>
      </trkpt>
      <trkpt lat="47.65901" lon="6.182">
        <ele>264.2</ele>
        <time>2022-01-23T15:52:04Z</time>
      </trkpt>
      <trkpt lat="47.65915" lon="6.18203">
        <ele>264.3</ele>
        <time>2022-01-23T15:52:08Z</time>
      </trkpt>
      <trkpt lat="47.65929" lon="6.18205">
        <ele>264.6</ele>
        <time>2022-01-23T15:52:09Z</time>
      </trkpt>
      <trkpt lat="47.65934" lon="6.18207">
        <ele>264.7</ele>
        <time>2022-01-23T15:52:13Z</time>
      </trkpt>
      <trkpt lat="47.65943" lon="6.18214">
        <ele>265.4</ele>
        <time>2022-01-23T15:52:14Z</time>
      </trkpt>
      <trkpt lat="47.65948" lon="6.18218">
        <ele>265.8</ele>
        <time>2022-01-23T15:52:16Z</time>
      </trkpt>
      <trkpt lat="47.65952" lon="6.18222">
        <ele>266.2</ele>
        <time>2022-01-23T15:52:21Z</time>
      </trkpt>
      <trkpt lat="47.65961" lon="6.18227">
        <ele>266.8</ele>
        <time>2022-01-23T15:52:25Z</time>
      </trkpt>
      <trkpt lat="47.6597" lon="6.18233">
        <ele>267.3</ele>
        <time>2022-01-23T15:52:26Z</time>
      </trkpt>
      <trkpt lat="47.65974" lon="6.18235">
        <ele>267.6</ele>
        <time>2022-01-23T15:52:28Z</time>
      </trkpt>
      <trkpt lat="47.65981" lon="6.18236">
        <ele>268</ele>
        <time>2022-01-23T15:52:34Z</time>
      </trkpt>
      <trkpt lat="47.65993" lon="6.18239">
        <ele>268.8</ele>
        <time>2022-01-23T15:52:36Z</time>
      </trkpt>
      <trkpt lat="47.66" lon="6.1824">
        <ele>269.3</ele>
        <time>2022-01-23T15:52:39Z</time>
      </trkpt>
      <trkpt lat="47.66004" lon="6.18242">
        <ele>269.4</ele>
        <time>2022-01-23T15:52:41Z</time>
      </trkpt>
      <trkpt lat="47.6601" lon="6.18245">
        <ele>269.7</ele>
        <time>2022-01-23T15:52:44Z</time>
      </trkpt>
      <trkpt lat="47.66015" lon="6.18249">
        <ele>269.9</ele>
        <time>2022-01-23T15:52:46Z</time>
      </trkpt>
      <trkpt lat="47.6602" lon="6.18255">
        <ele>270.4</ele>
        <time>2022-01-23T15:52:49Z</time>
      </trkpt>
      <trkpt lat="47.66024" lon="6.18256">
        <ele>270.4</ele>
        <time>2022-01-23T15:52:51Z</time>
      </trkpt>
      <trkpt lat="47.6603" lon="6.18258">
        <ele>270.6</ele>
        <time>2022-01-23T15:52:53Z</time>
      </trkpt>
      <trkpt lat="47.66036" lon="6.18259">
        <ele>270.7</ele>
        <time>2022-01-23T15:52:55Z</time>
      </trkpt>
      <trkpt lat="47.66041" lon="6.18258">
        <ele>270.8</ele>
        <time>2022-01-23T15:52:57Z</time>
      </trkpt>
      <trkpt lat="47.66046" lon="6.18258">
        <ele>270.8</ele>
        <time>2022-01-23T15:52:59Z</time>
      </trkpt>
      <trkpt lat="47.66051" lon="6.18257">
        <ele>270.7</ele>
        <time>2022-01-23T15:53:01Z</time>
      </trkpt>
      <trkpt lat="47.66057" lon="6.18257">
        <ele>270.7</ele>
        <time>2022-01-23T15:53:03Z</time>
      </trkpt>
      <trkpt lat="47.66064" lon="6.18257">
        <ele>270.7</ele>
        <time>2022-01-23T15:53:05Z</time>
      </trkpt>
      <trkpt lat="47.6607" lon="6.18257">
        <ele>270.7</ele>
        <time>2022-01-23T15:53:07Z</time>
      </trkpt>
      <trkpt lat="47.66075" lon="6.18257">
        <ele>270.7</ele>
        <time>2022-01-23T15:53:12Z</time>
      </trkpt>
      <trkpt lat="47.66081" lon="6.18256">
        <ele>270.7</ele>
        <time>2022-01-23T15:53:13Z</time>
      </trkpt>
      <trkpt lat="47.66092" lon="6.18258">
        <ele>270.7</ele>
        <time>2022-01-23T15:53:14Z</time>
      </trkpt>
      <trkpt lat="47.66096" lon="6.18259">
        <ele>270.8</ele>
        <time>2022-01-23T15:53:18Z</time>
      </trkpt>
      <trkpt lat="47.66106" lon="6.18261">
        <ele>270.9</ele>
        <time>2022-01-23T15:53:22Z</time>
      </trkpt>
      <trkpt lat="47.66117" lon="6.18266">
        <ele>270.8</ele>
        <time>2022-01-23T15:53:23Z</time>
      </trkpt>
      <trkpt lat="47.66123" lon="6.18268">
        <ele>270.7</ele>
        <time>2022-01-23T15:53:25Z</time>
      </trkpt>
      <trkpt lat="47.66129" lon="6.1827">
        <ele>270.6</ele>
        <time>2022-01-23T15:53:27Z</time>
      </trkpt>
      <trkpt lat="47.66136" lon="6.18273">
        <ele>270.6</ele>
        <time>2022-01-23T15:53:29Z</time>
      </trkpt>
      <trkpt lat="47.66142" lon="6.18275">
        <ele>270.5</ele>
        <time>2022-01-23T15:53:31Z</time>
      </trkpt>
      <trkpt lat="47.66148" lon="6.18278">
        <ele>270.4</ele>
        <time>2022-01-23T15:53:33Z</time>
      </trkpt>
      <trkpt lat="47.66156" lon="6.18282">
        <ele>270.1</ele>
        <time>2022-01-23T15:53:35Z</time>
      </trkpt>
      <trkpt lat="47.66164" lon="6.18286">
        <ele>269.8</ele>
        <time>2022-01-23T15:53:37Z</time>
      </trkpt>
      <trkpt lat="47.66169" lon="6.18288">
        <ele>269.4</ele>
        <time>2022-01-23T15:53:41Z</time>
      </trkpt>
      <trkpt lat="47.66188" lon="6.18297">
        <ele>267.8</ele>
        <time>2022-01-23T15:53:42Z</time>
      </trkpt>
      <trkpt lat="47.66193" lon="6.183">
        <ele>267.6</ele>
        <time>2022-01-23T15:53:43Z</time>
      </trkpt>
      <trkpt lat="47.66198" lon="6.18303">
        <ele>267.3</ele>
        <time>2022-01-23T15:53:44Z</time>
      </trkpt>
      <trkpt lat="47.66203" lon="6.18306">
        <ele>267.1</ele>
        <time>2022-01-23T15:53:45Z</time>
      </trkpt>
      <trkpt lat="47.66209" lon="6.18309">
        <ele>266.8</ele>
        <time>2022-01-23T15:53:46Z</time>
      </trkpt>
      <trkpt lat="47.66214" lon="6.18311">
        <ele>266.5</ele>
        <time>2022-01-23T15:53:47Z</time>
      </trkpt>
      <trkpt lat="47.66219" lon="6.18313">
        <ele>266.2</ele>
        <time>2022-01-23T15:53:48Z</time>
      </trkpt>
      <trkpt lat="47.66224" lon="6.18314">
        <ele>265.7</ele>
        <time>2022-01-23T15:53:49Z</time>
      </trkpt>
      <trkpt lat="47.66228" lon="6.18312">
        <ele>265</ele>
        <time>2022-01-23T15:53:50Z</time>
      </trkpt>
      <trkpt lat="47.66233" lon="6.18308">
        <ele>264</ele>
        <time>2022-01-23T15:53:51Z</time>
      </trkpt>
      <trkpt lat="47.66237" lon="6.18301">
        <ele>263.1</ele>
        <time>2022-01-23T15:53:52Z</time>
      </trkpt>
      <trkpt lat="47.66239" lon="6.18293">
        <ele>262.3</ele>
        <time>2022-01-23T15:53:53Z</time>
      </trkpt>
      <trkpt lat="47.66239" lon="6.18283">
        <ele>261.6</ele>
        <time>2022-01-23T15:53:54Z</time>
      </trkpt>
      <trkpt lat="47.66238" lon="6.18273">
        <ele>260.8</ele>
        <time>2022-01-23T15:53:55Z</time>
      </trkpt>
      <trkpt lat="47.66235" lon="6.18263">
        <ele>260</ele>
        <time>2022-01-23T15:53:56Z</time>
      </trkpt>
      <trkpt lat="47.66231" lon="6.18253">
        <ele>259.3</ele>
        <time>2022-01-23T15:53:57Z</time>
      </trkpt>
      <trkpt lat="47.66227" lon="6.18243">
        <ele>258.8</ele>
        <time>2022-01-23T15:53:58Z</time>
      </trkpt>
      <trkpt lat="47.66222" lon="6.18234">
        <ele>258.4</ele>
        <time>2022-01-23T15:53:59Z</time>
      </trkpt>
      <trkpt lat="47.66216" lon="6.18226">
        <ele>258.1</ele>
        <time>2022-01-23T15:54:00Z</time>
      </trkpt>
      <trkpt lat="47.6621" lon="6.18218">
        <ele>257.9</ele>
        <time>2022-01-23T15:54:01Z</time>
      </trkpt>
      <trkpt lat="47.66204" lon="6.18211">
        <ele>257.7</ele>
        <time>2022-01-23T15:54:02Z</time>
      </trkpt>
      <trkpt lat="47.66197" lon="6.18203">
        <ele>257.6</ele>
        <time>2022-01-23T15:54:03Z</time>
      </trkpt>
      <trkpt lat="47.66191" lon="6.18195">
        <ele>257.2</ele>
        <time>2022-01-23T15:54:04Z</time>
      </trkpt>
      <trkpt lat="47.66184" lon="6.18187">
        <ele>256.4</ele>
        <time>2022-01-23T15:54:05Z</time>
      </trkpt>
      <trkpt lat="47.66178" lon="6.18179">
        <ele>255.7</ele>
        <time>2022-01-23T15:54:06Z</time>
      </trkpt>
      <trkpt lat="47.66171" lon="6.18171">
        <ele>255.2</ele>
        <time>2022-01-23T15:54:07Z</time>
      </trkpt>
      <trkpt lat="47.66164" lon="6.18165">
        <ele>254.8</ele>
        <time>2022-01-23T15:54:08Z</time>
      </trkpt>
      <trkpt lat="47.66156" lon="6.1816">
        <ele>254.3</ele>
        <time>2022-01-23T15:54:09Z</time>
      </trkpt>
      <trkpt lat="47.66149" lon="6.18155">
        <ele>253.7</ele>
        <time>2022-01-23T15:54:10Z</time>
      </trkpt>
      <trkpt lat="47.66141" lon="6.1815">
        <ele>253.2</ele>
        <time>2022-01-23T15:54:11Z</time>
      </trkpt>
      <trkpt lat="47.66133" lon="6.18146">
        <ele>252.9</ele>
        <time>2022-01-23T15:54:12Z</time>
      </trkpt>
      <trkpt lat="47.66125" lon="6.18142">
        <ele>252.8</ele>
        <time>2022-01-23T15:54:13Z</time>
      </trkpt>
      <trkpt lat="47.66117" lon="6.18136">
        <ele>252.4</ele>
        <time>2022-01-23T15:54:14Z</time>
      </trkpt>
      <trkpt lat="47.66109" lon="6.18131">
        <ele>251.8</ele>
        <time>2022-01-23T15:54:15Z</time>
      </trkpt>
      <trkpt lat="47.66101" lon="6.18126">
        <ele>251.1</ele>
        <time>2022-01-23T15:54:16Z</time>
      </trkpt>
      <trkpt lat="47.66092" lon="6.18122">
        <ele>250.6</ele>
        <time>2022-01-23T15:54:17Z</time>
      </trkpt>
      <trkpt lat="47.66083" lon="6.18119">
        <ele>250.1</ele>
        <time>2022-01-23T15:54:18Z</time>
      </trkpt>
      <trkpt lat="47.66075" lon="6.18115">
        <ele>249.6</ele>
        <time>2022-01-23T15:54:19Z</time>
      </trkpt>
      <trkpt lat="47.66066" lon="6.18112">
        <ele>249.1</ele>
        <time>2022-01-23T15:54:20Z</time>
      </trkpt>
      <trkpt lat="47.66058" lon="6.18109">
        <ele>248.7</ele>
        <time>2022-01-23T15:54:21Z</time>
      </trkpt>
      <trkpt lat="47.66051" lon="6.18105">
        <ele>248.2</ele>
        <time>2022-01-23T15:54:22Z</time>
      </trkpt>
      <trkpt lat="47.66044" lon="6.18103">
        <ele>247.7</ele>
        <time>2022-01-23T15:54:23Z</time>
      </trkpt>
      <trkpt lat="47.66038" lon="6.181">
        <ele>247.2</ele>
        <time>2022-01-23T15:54:24Z</time>
      </trkpt>
      <trkpt lat="47.66032" lon="6.18097">
        <ele>246.6</ele>
        <time>2022-01-23T15:54:25Z</time>
      </trkpt>
      <trkpt lat="47.66028" lon="6.18093">
        <ele>246</ele>
        <time>2022-01-23T15:54:26Z</time>
      </trkpt>
      <trkpt lat="47.66023" lon="6.18088">
        <ele>245.5</ele>
        <time>2022-01-23T15:54:27Z</time>
      </trkpt>
      <trkpt lat="47.66019" lon="6.18081">
        <ele>244.8</ele>
        <time>2022-01-23T15:54:28Z</time>
      </trkpt>
      <trkpt lat="47.66015" lon="6.18075">
        <ele>244.4</ele>
        <time>2022-01-23T15:54:29Z</time>
      </trkpt>
      <trkpt lat="47.6601" lon="6.18069">
        <ele>243.9</ele>
        <time>2022-01-23T15:54:30Z</time>
      </trkpt>
      <trkpt lat="47.66005" lon="6.18063">
        <ele>243.5</ele>
        <time>2022-01-23T15:54:31Z</time>
      </trkpt>
      <trkpt lat="47.65999" lon="6.18056">
        <ele>243</ele>
        <time>2022-01-23T15:54:32Z</time>
      </trkpt>
      <trkpt lat="47.65993" lon="6.18048">
        <ele>242.2</ele>
        <time>2022-01-23T15:54:33Z</time>
      </trkpt>
      <trkpt lat="47.65986" lon="6.18041">
        <ele>241.4</ele>
        <time>2022-01-23T15:54:34Z</time>
      </trkpt>
      <trkpt lat="47.6598" lon="6.18034">
        <ele>240.7</ele>
        <time>2022-01-23T15:54:35Z</time>
      </trkpt>
      <trkpt lat="47.65973" lon="6.18028">
        <ele>240</ele>
        <time>2022-01-23T15:54:36Z</time>
      </trkpt>
      <trkpt lat="47.65966" lon="6.18021">
        <ele>239.3</ele>
        <time>2022-01-23T15:54:37Z</time>
      </trkpt>
      <trkpt lat="47.65959" lon="6.18014">
        <ele>238.7</ele>
        <time>2022-01-23T15:54:38Z</time>
      </trkpt>
      <trkpt lat="47.65952" lon="6.18007">
        <ele>238.3</ele>
        <time>2022-01-23T15:54:39Z</time>
      </trkpt>
      <trkpt lat="47.65945" lon="6.18">
        <ele>238</ele>
        <time>2022-01-23T15:54:40Z</time>
      </trkpt>
      <trkpt lat="47.65938" lon="6.17995">
        <ele>237.4</ele>
        <time>2022-01-23T15:54:41Z</time>
      </trkpt>
      <trkpt lat="47.65931" lon="6.1799">
        <ele>236.9</ele>
        <time>2022-01-23T15:54:42Z</time>
      </trkpt>
      <trkpt lat="47.65925" lon="6.17984">
        <ele>236.3</ele>
        <time>2022-01-23T15:54:43Z</time>
      </trkpt>
      <trkpt lat="47.65919" lon="6.17978">
        <ele>235.6</ele>
        <time>2022-01-23T15:54:44Z</time>
      </trkpt>
      <trkpt lat="47.65914" lon="6.17972">
        <ele>235.1</ele>
        <time>2022-01-23T15:54:45Z</time>
      </trkpt>
      <trkpt lat="47.6591" lon="6.17968">
        <ele>235</ele>
        <time>2022-01-23T15:54:46Z</time>
      </trkpt>
      <trkpt lat="47.65903" lon="6.17962">
        <ele>234.9</ele>
        <time>2022-01-23T15:54:48Z</time>
      </trkpt>
      <trkpt lat="47.65895" lon="6.17958">
        <ele>234.9</ele>
        <time>2022-01-23T15:54:51Z</time>
      </trkpt>
      <trkpt lat="47.65888" lon="6.17955">
        <ele>234.8</ele>
        <time>2022-01-23T15:54:53Z</time>
      </trkpt>
      <trkpt lat="47.65882" lon="6.17956">
        <ele>234.9</ele>
        <time>2022-01-23T15:54:55Z</time>
      </trkpt>
      <trkpt lat="47.65876" lon="6.17956">
        <ele>235</ele>
        <time>2022-01-23T15:54:57Z</time>
      </trkpt>
      <trkpt lat="47.65871" lon="6.17954">
        <ele>234.9</ele>
        <time>2022-01-23T15:54:59Z</time>
      </trkpt>
      <trkpt lat="47.65866" lon="6.17956">
        <ele>235.1</ele>
        <time>2022-01-23T15:55:01Z</time>
      </trkpt>
      <trkpt lat="47.65861" lon="6.17958">
        <ele>235.5</ele>
        <time>2022-01-23T15:55:03Z</time>
      </trkpt>
      <trkpt lat="47.65855" lon="6.17962">
        <ele>235.9</ele>
        <time>2022-01-23T15:55:06Z</time>
      </trkpt>
      <trkpt lat="47.6585" lon="6.17966">
        <ele>236.4</ele>
        <time>2022-01-23T15:55:09Z</time>
      </trkpt>
      <trkpt lat="47.65846" lon="6.1797">
        <ele>236.8</ele>
        <time>2022-01-23T15:55:12Z</time>
      </trkpt>
      <trkpt lat="47.65841" lon="6.17974">
        <ele>237.2</ele>
        <time>2022-01-23T15:55:15Z</time>
      </trkpt>
      <trkpt lat="47.65835" lon="6.17978">
        <ele>237.7</ele>
        <time>2022-01-23T15:55:18Z</time>
      </trkpt>
      <trkpt lat="47.6583" lon="6.17981">
        <ele>237.9</ele>
        <time>2022-01-23T15:55:20Z</time>
      </trkpt>
      <trkpt lat="47.65826" lon="6.17984">
        <ele>238.1</ele>
        <time>2022-01-23T15:55:22Z</time>
      </trkpt>
      <trkpt lat="47.65821" lon="6.17989">
        <ele>238.4</ele>
        <time>2022-01-23T15:55:25Z</time>
      </trkpt>
      <trkpt lat="47.65815" lon="6.17993">
        <ele>238.6</ele>
        <time>2022-01-23T15:55:28Z</time>
      </trkpt>
      <trkpt lat="47.6581" lon="6.17997">
        <ele>238.9</ele>
        <time>2022-01-23T15:55:31Z</time>
      </trkpt>
      <trkpt lat="47.65806" lon="6.18001">
        <ele>239.2</ele>
        <time>2022-01-23T15:55:34Z</time>
      </trkpt>
      <trkpt lat="47.658" lon="6.18006">
        <ele>239.4</ele>
        <time>2022-01-23T15:55:37Z</time>
      </trkpt>
      <trkpt lat="47.65796" lon="6.1801">
        <ele>239.6</ele>
        <time>2022-01-23T15:55:39Z</time>
      </trkpt>
      <trkpt lat="47.65792" lon="6.18014">
        <ele>239.8</ele>
        <time>2022-01-23T15:55:41Z</time>
      </trkpt>
      <trkpt lat="47.65787" lon="6.18019">
        <ele>240</ele>
        <time>2022-01-23T15:55:43Z</time>
      </trkpt>
      <trkpt lat="47.65783" lon="6.18024">
        <ele>240.1</ele>
        <time>2022-01-23T15:55:45Z</time>
      </trkpt>
      <trkpt lat="47.65777" lon="6.18029">
        <ele>240</ele>
        <time>2022-01-23T15:55:47Z</time>
      </trkpt>
      <trkpt lat="47.65769" lon="6.18032">
        <ele>239.5</ele>
        <time>2022-01-23T15:55:49Z</time>
      </trkpt>
      <trkpt lat="47.65765" lon="6.18034">
        <ele>239</ele>
        <time>2022-01-23T15:55:50Z</time>
      </trkpt>
      <trkpt lat="47.6576" lon="6.18036">
        <ele>238.6</ele>
        <time>2022-01-23T15:55:51Z</time>
      </trkpt>
      <trkpt lat="47.65755" lon="6.18038">
        <ele>238.3</ele>
        <time>2022-01-23T15:55:52Z</time>
      </trkpt>
      <trkpt lat="47.6575" lon="6.18042">
        <ele>238</ele>
        <time>2022-01-23T15:55:53Z</time>
      </trkpt>
      <trkpt lat="47.65745" lon="6.18045">
        <ele>237.8</ele>
        <time>2022-01-23T15:55:54Z</time>
      </trkpt>
      <trkpt lat="47.65739" lon="6.18049">
        <ele>237.3</ele>
        <time>2022-01-23T15:55:55Z</time>
      </trkpt>
      <trkpt lat="47.65734" lon="6.18053">
        <ele>236.8</ele>
        <time>2022-01-23T15:55:56Z</time>
      </trkpt>
      <trkpt lat="47.65728" lon="6.18057">
        <ele>236.1</ele>
        <time>2022-01-23T15:55:57Z</time>
      </trkpt>
      <trkpt lat="47.65722" lon="6.18061">
        <ele>235.4</ele>
        <time>2022-01-23T15:55:58Z</time>
      </trkpt>
      <trkpt lat="47.65717" lon="6.18066">
        <ele>235.2</ele>
        <time>2022-01-23T15:55:59Z</time>
      </trkpt>
      <trkpt lat="47.65712" lon="6.18072">
        <ele>235.1</ele>
        <time>2022-01-23T15:56:00Z</time>
      </trkpt>
      <trkpt lat="47.65707" lon="6.18079">
        <ele>235</ele>
        <time>2022-01-23T15:56:01Z</time>
      </trkpt>
      <trkpt lat="47.65703" lon="6.18086">
        <ele>235</ele>
        <time>2022-01-23T15:56:02Z</time>
      </trkpt>
      <trkpt lat="47.65698" lon="6.18092">
        <ele>234.8</ele>
        <time>2022-01-23T15:56:03Z</time>
      </trkpt>
      <trkpt lat="47.65694" lon="6.181">
        <ele>234.5</ele>
        <time>2022-01-23T15:56:04Z</time>
      </trkpt>
      <trkpt lat="47.65691" lon="6.18107">
        <ele>234.4</ele>
        <time>2022-01-23T15:56:05Z</time>
      </trkpt>
      <trkpt lat="47.65688" lon="6.18115">
        <ele>234.6</ele>
        <time>2022-01-23T15:56:06Z</time>
      </trkpt>
      <trkpt lat="47.65685" lon="6.18122">
        <ele>234.8</ele>
        <time>2022-01-23T15:56:07Z</time>
      </trkpt>
      <trkpt lat="47.65682" lon="6.18128">
        <ele>234.9</ele>
        <time>2022-01-23T15:56:08Z</time>
      </trkpt>
      <trkpt lat="47.65679" lon="6.18133">
        <ele>234.8</ele>
        <time>2022-01-23T15:56:09Z</time>
      </trkpt>
      <trkpt lat="47.65672" lon="6.18141">
        <ele>234.8</ele>
        <time>2022-01-23T15:56:11Z</time>
      </trkpt>
      <trkpt lat="47.65667" lon="6.18147">
        <ele>234.9</ele>
        <time>2022-01-23T15:56:13Z</time>
      </trkpt>
      <trkpt lat="47.65661" lon="6.18152">
        <ele>234.8</ele>
        <time>2022-01-23T15:56:15Z</time>
      </trkpt>
      <trkpt lat="47.65654" lon="6.18158">
        <ele>234.7</ele>
        <time>2022-01-23T15:56:17Z</time>
      </trkpt>
      <trkpt lat="47.65645" lon="6.18165">
        <ele>234.5</ele>
        <time>2022-01-23T15:56:19Z</time>
      </trkpt>
      <trkpt lat="47.65639" lon="6.18168">
        <ele>234.2</ele>
        <time>2022-01-23T15:56:20Z</time>
      </trkpt>
      <trkpt lat="47.65633" lon="6.18169">
        <ele>233.6</ele>
        <time>2022-01-23T15:56:21Z</time>
      </trkpt>
      <trkpt lat="47.65627" lon="6.18168">
        <ele>232.9</ele>
        <time>2022-01-23T15:56:22Z</time>
      </trkpt>
      <trkpt lat="47.6562" lon="6.18168">
        <ele>232.1</ele>
        <time>2022-01-23T15:56:23Z</time>
      </trkpt>
      <trkpt lat="47.65614" lon="6.18168">
        <ele>231.5</ele>
        <time>2022-01-23T15:56:24Z</time>
      </trkpt>
      <trkpt lat="47.65608" lon="6.18171">
        <ele>231.2</ele>
        <time>2022-01-23T15:56:25Z</time>
      </trkpt>
      <trkpt lat="47.65603" lon="6.18174">
        <ele>231.2</ele>
        <time>2022-01-23T15:56:26Z</time>
      </trkpt>
      <trkpt lat="47.65598" lon="6.18177">
        <ele>231.4</ele>
        <time>2022-01-23T15:56:27Z</time>
      </trkpt>
      <trkpt lat="47.65594" lon="6.18182">
        <ele>231.7</ele>
        <time>2022-01-23T15:56:28Z</time>
      </trkpt>
      <trkpt lat="47.6559" lon="6.18183">
        <ele>231.8</ele>
        <time>2022-01-23T15:56:33Z</time>
      </trkpt>
      <trkpt lat="47.65582" lon="6.18196">
        <ele>233</ele>
        <time>2022-01-23T15:56:36Z</time>
      </trkpt>
      <trkpt lat="47.65577" lon="6.18204">
        <ele>232.9</ele>
        <time>2022-01-23T15:56:38Z</time>
      </trkpt>
      <trkpt lat="47.6557" lon="6.18217">
        <ele>233.1</ele>
        <time>2022-01-23T15:56:39Z</time>
      </trkpt>
      <trkpt lat="47.65565" lon="6.18222">
        <ele>233.3</ele>
        <time>2022-01-23T15:56:42Z</time>
      </trkpt>
      <trkpt lat="47.65561" lon="6.18229">
        <ele>233.8</ele>
        <time>2022-01-23T15:56:45Z</time>
      </trkpt>
      <trkpt lat="47.65555" lon="6.18235">
        <ele>233.9</ele>
        <time>2022-01-23T15:56:48Z</time>
      </trkpt>
      <trkpt lat="47.65549" lon="6.18239">
        <ele>233.5</ele>
        <time>2022-01-23T15:56:54Z</time>
      </trkpt>
      <trkpt lat="47.65543" lon="6.18242">
        <ele>233.3</ele>
        <time>2022-01-23T15:56:55Z</time>
      </trkpt>
      <trkpt lat="47.65538" lon="6.18244">
        <ele>233.1</ele>
        <time>2022-01-23T15:56:57Z</time>
      </trkpt>
      <trkpt lat="47.65534" lon="6.18246">
        <ele>232.9</ele>
        <time>2022-01-23T15:56:58Z</time>
      </trkpt>
      <trkpt lat="47.65521" lon="6.18251">
        <ele>232.6</ele>
        <time>2022-01-23T15:57:01Z</time>
      </trkpt>
      <trkpt lat="47.6551" lon="6.18255">
        <ele>232.3</ele>
        <time>2022-01-23T15:57:04Z</time>
      </trkpt>
      <trkpt lat="47.65504" lon="6.18258">
        <ele>232.2</ele>
        <time>2022-01-23T15:57:06Z</time>
      </trkpt>
      <trkpt lat="47.65483" lon="6.18265">
        <ele>231.1</ele>
        <time>2022-01-23T15:57:11Z</time>
      </trkpt>
      <trkpt lat="47.6546" lon="6.18263">
        <ele>229.5</ele>
        <time>2022-01-23T15:57:12Z</time>
      </trkpt>
      <trkpt lat="47.65454" lon="6.18262">
        <ele>229.1</ele>
        <time>2022-01-23T15:57:13Z</time>
      </trkpt>
      <trkpt lat="47.65448" lon="6.18261">
        <ele>228.7</ele>
        <time>2022-01-23T15:57:14Z</time>
      </trkpt>
      <trkpt lat="47.65441" lon="6.18259">
        <ele>228.3</ele>
        <time>2022-01-23T15:57:15Z</time>
      </trkpt>
      <trkpt lat="47.65434" lon="6.18257">
        <ele>228</ele>
        <time>2022-01-23T15:57:16Z</time>
      </trkpt>
      <trkpt lat="47.65427" lon="6.18254">
        <ele>227.6</ele>
        <time>2022-01-23T15:57:17Z</time>
      </trkpt>
      <trkpt lat="47.65421" lon="6.18251">
        <ele>227.2</ele>
        <time>2022-01-23T15:57:18Z</time>
      </trkpt>
      <trkpt lat="47.65415" lon="6.18248">
        <ele>227</ele>
        <time>2022-01-23T15:57:19Z</time>
      </trkpt>
      <trkpt lat="47.65409" lon="6.18244">
        <ele>227</ele>
        <time>2022-01-23T15:57:20Z</time>
      </trkpt>
      <trkpt lat="47.65403" lon="6.18239">
        <ele>226.9</ele>
        <time>2022-01-23T15:57:21Z</time>
      </trkpt>
      <trkpt lat="47.65397" lon="6.18235">
        <ele>226.5</ele>
        <time>2022-01-23T15:57:22Z</time>
      </trkpt>
      <trkpt lat="47.65392" lon="6.1823">
        <ele>226.1</ele>
        <time>2022-01-23T15:57:23Z</time>
      </trkpt>
      <trkpt lat="47.65386" lon="6.18227">
        <ele>225.8</ele>
        <time>2022-01-23T15:57:24Z</time>
      </trkpt>
      <trkpt lat="47.65381" lon="6.18223">
        <ele>225.7</ele>
        <time>2022-01-23T15:57:25Z</time>
      </trkpt>
      <trkpt lat="47.65376" lon="6.18219">
        <ele>225.9</ele>
        <time>2022-01-23T15:57:26Z</time>
      </trkpt>
      <trkpt lat="47.65371" lon="6.18216">
        <ele>226</ele>
        <time>2022-01-23T15:57:27Z</time>
      </trkpt>
      <trkpt lat="47.65366" lon="6.18212">
        <ele>226</ele>
        <time>2022-01-23T15:57:28Z</time>
      </trkpt>
      <trkpt lat="47.65362" lon="6.18208">
        <ele>225.9</ele>
        <time>2022-01-23T15:57:29Z</time>
      </trkpt>
      <trkpt lat="47.65357" lon="6.18204">
        <ele>225.9</ele>
        <time>2022-01-23T15:57:30Z</time>
      </trkpt>
      <trkpt lat="47.65353" lon="6.182">
        <ele>226</ele>
        <time>2022-01-23T15:57:31Z</time>
      </trkpt>
      <trkpt lat="47.65349" lon="6.18196">
        <ele>226</ele>
        <time>2022-01-23T15:57:32Z</time>
      </trkpt>
      <trkpt lat="47.65345" lon="6.18192">
        <ele>226</ele>
        <time>2022-01-23T15:57:33Z</time>
      </trkpt>
      <trkpt lat="47.65341" lon="6.18188">
        <ele>226</ele>
        <time>2022-01-23T15:57:34Z</time>
      </trkpt>
      <trkpt lat="47.65338" lon="6.18183">
        <ele>226</ele>
        <time>2022-01-23T15:57:35Z</time>
      </trkpt>
      <trkpt lat="47.65334" lon="6.18179">
        <ele>225.8</ele>
        <time>2022-01-23T15:57:36Z</time>
      </trkpt>
      <trkpt lat="47.65331" lon="6.18174">
        <ele>225.7</ele>
        <time>2022-01-23T15:57:37Z</time>
      </trkpt>
      <trkpt lat="47.65328" lon="6.18169">
        <ele>225.6</ele>
        <time>2022-01-23T15:57:38Z</time>
      </trkpt>
      <trkpt lat="47.65322" lon="6.18159">
        <ele>225.7</ele>
        <time>2022-01-23T15:57:40Z</time>
      </trkpt>
      <trkpt lat="47.65319" lon="6.18154">
        <ele>225.8</ele>
        <time>2022-01-23T15:57:41Z</time>
      </trkpt>
      <trkpt lat="47.65316" lon="6.18145">
        <ele>225.8</ele>
        <time>2022-01-23T15:57:43Z</time>
      </trkpt>
      <trkpt lat="47.65313" lon="6.18138">
        <ele>225.7</ele>
        <time>2022-01-23T15:57:44Z</time>
      </trkpt>
      <trkpt lat="47.6531" lon="6.18128">
        <ele>225.5</ele>
        <time>2022-01-23T15:57:46Z</time>
      </trkpt>
      <trkpt lat="47.65308" lon="6.18122">
        <ele>225.3</ele>
        <time>2022-01-23T15:57:47Z</time>
      </trkpt>
      <trkpt lat="47.65308" lon="6.18114">
        <ele>225</ele>
        <time>2022-01-23T15:57:51Z</time>
      </trkpt>
      <trkpt lat="47.65309" lon="6.18097">
        <ele>224.9</ele>
        <time>2022-01-23T15:57:52Z</time>
      </trkpt>
      <trkpt lat="47.65304" lon="6.18086">
        <ele>225.1</ele>
        <time>2022-01-23T15:57:57Z</time>
      </trkpt>
      <trkpt lat="47.653" lon="6.18072">
        <ele>225.5</ele>
        <time>2022-01-23T15:57:59Z</time>
      </trkpt>
      <trkpt lat="47.65299" lon="6.18065">
        <ele>225.6</ele>
        <time>2022-01-23T15:58:00Z</time>
      </trkpt>
      <trkpt lat="47.65298" lon="6.18058">
        <ele>225.6</ele>
        <time>2022-01-23T15:58:01Z</time>
      </trkpt>
      <trkpt lat="47.65297" lon="6.18049">
        <ele>225.6</ele>
        <time>2022-01-23T15:58:03Z</time>
      </trkpt>
      <trkpt lat="47.65295" lon="6.18041">
        <ele>225.5</ele>
        <time>2022-01-23T15:58:04Z</time>
      </trkpt>
      <trkpt lat="47.65292" lon="6.18026">
        <ele>225.4</ele>
        <time>2022-01-23T15:58:08Z</time>
      </trkpt>
      <trkpt lat="47.65287" lon="6.1801">
        <ele>225.5</ele>
        <time>2022-01-23T15:58:12Z</time>
      </trkpt>
      <trkpt lat="47.65279" lon="6.17998">
        <ele>225.8</ele>
        <time>2022-01-23T15:58:16Z</time>
      </trkpt>
      <trkpt lat="47.65274" lon="6.17993">
        <ele>225.7</ele>
        <time>2022-01-23T15:58:18Z</time>
      </trkpt>
      <trkpt lat="47.65263" lon="6.17983">
        <ele>225.6</ele>
        <time>2022-01-23T15:58:19Z</time>
      </trkpt>
      <trkpt lat="47.65258" lon="6.1798">
        <ele>225.8</ele>
        <time>2022-01-23T15:58:24Z</time>
      </trkpt>
      <trkpt lat="47.65246" lon="6.17975">
        <ele>226.1</ele>
        <time>2022-01-23T15:58:25Z</time>
      </trkpt>
      <trkpt lat="47.65241" lon="6.17975">
        <ele>226.1</ele>
        <time>2022-01-23T15:58:29Z</time>
      </trkpt>
      <trkpt lat="47.65235" lon="6.17976">
        <ele>226.2</ele>
        <time>2022-01-23T15:58:32Z</time>
      </trkpt>
      <trkpt lat="47.65229" lon="6.17978">
        <ele>226.2</ele>
        <time>2022-01-23T15:58:33Z</time>
      </trkpt>
      <trkpt lat="47.65219" lon="6.17982">
        <ele>226.1</ele>
        <time>2022-01-23T15:58:37Z</time>
      </trkpt>
      <trkpt lat="47.65215" lon="6.17986">
        <ele>225.9</ele>
        <time>2022-01-23T15:58:38Z</time>
      </trkpt>
      <trkpt lat="47.6521" lon="6.1799">
        <ele>225.8</ele>
        <time>2022-01-23T15:58:40Z</time>
      </trkpt>
      <trkpt lat="47.652" lon="6.18001">
        <ele>225.5</ele>
        <time>2022-01-23T15:58:44Z</time>
      </trkpt>
      <trkpt lat="47.65195" lon="6.18007">
        <ele>225.3</ele>
        <time>2022-01-23T15:58:46Z</time>
      </trkpt>
      <trkpt lat="47.65191" lon="6.18013">
        <ele>225.3</ele>
        <time>2022-01-23T15:58:47Z</time>
      </trkpt>
      <trkpt lat="47.65187" lon="6.18018">
        <ele>225.2</ele>
        <time>2022-01-23T15:58:49Z</time>
      </trkpt>
      <trkpt lat="47.65184" lon="6.18024">
        <ele>225.1</ele>
        <time>2022-01-23T15:58:50Z</time>
      </trkpt>
      <trkpt lat="47.65175" lon="6.18038">
        <ele>225.1</ele>
        <time>2022-01-23T15:58:54Z</time>
      </trkpt>
      <trkpt lat="47.6516" lon="6.18061">
        <ele>225</ele>
        <time>2022-01-23T15:58:55Z</time>
      </trkpt>
      <trkpt lat="47.65156" lon="6.18066">
        <ele>225.1</ele>
        <time>2022-01-23T15:58:56Z</time>
      </trkpt>
      <trkpt lat="47.65153" lon="6.1807">
        <ele>225.1</ele>
        <time>2022-01-23T15:58:57Z</time>
      </trkpt>
      <trkpt lat="47.65143" lon="6.18079">
        <ele>224.4</ele>
        <time>2022-01-23T15:59:00Z</time>
      </trkpt>
      <trkpt lat="47.65138" lon="6.18083">
        <ele>224</ele>
        <time>2022-01-23T15:59:01Z</time>
      </trkpt>
      <trkpt lat="47.65134" lon="6.18086">
        <ele>224.4</ele>
        <time>2022-01-23T15:59:02Z</time>
      </trkpt>
      <trkpt lat="47.65129" lon="6.18089">
        <ele>224.8</ele>
        <time>2022-01-23T15:59:03Z</time>
      </trkpt>
      <trkpt lat="47.65122" lon="6.18092">
        <ele>225</ele>
        <time>2022-01-23T15:59:05Z</time>
      </trkpt>
      <trkpt lat="47.65115" lon="6.18095">
        <ele>225</ele>
        <time>2022-01-23T15:59:07Z</time>
      </trkpt>
      <trkpt lat="47.65111" lon="6.18096">
        <ele>224.9</ele>
        <time>2022-01-23T15:59:08Z</time>
      </trkpt>
      <trkpt lat="47.65102" lon="6.18097">
        <ele>224.8</ele>
        <time>2022-01-23T15:59:10Z</time>
      </trkpt>
      <trkpt lat="47.65094" lon="6.18098">
        <ele>224.7</ele>
        <time>2022-01-23T15:59:12Z</time>
      </trkpt>
      <trkpt lat="47.65086" lon="6.18097">
        <ele>224.5</ele>
        <time>2022-01-23T15:59:14Z</time>
      </trkpt>
      <trkpt lat="47.65078" lon="6.18094">
        <ele>224.6</ele>
        <time>2022-01-23T15:59:16Z</time>
      </trkpt>
      <trkpt lat="47.6507" lon="6.18091">
        <ele>224.7</ele>
        <time>2022-01-23T15:59:18Z</time>
      </trkpt>
      <trkpt lat="47.65063" lon="6.18089">
        <ele>224.7</ele>
        <time>2022-01-23T15:59:20Z</time>
      </trkpt>
      <trkpt lat="47.65058" lon="6.18086">
        <ele>224.4</ele>
        <time>2022-01-23T15:59:22Z</time>
      </trkpt>
      <trkpt lat="47.65052" lon="6.18085">
        <ele>224.2</ele>
        <time>2022-01-23T15:59:24Z</time>
      </trkpt>
      <trkpt lat="47.65046" lon="6.18084">
        <ele>224.1</ele>
        <time>2022-01-23T15:59:26Z</time>
      </trkpt>
      <trkpt lat="47.65039" lon="6.18084">
        <ele>224</ele>
        <time>2022-01-23T15:59:28Z</time>
      </trkpt>
      <trkpt lat="47.65031" lon="6.18084">
        <ele>224</ele>
        <time>2022-01-23T15:59:30Z</time>
      </trkpt>
      <trkpt lat="47.65022" lon="6.18084">
        <ele>224</ele>
        <time>2022-01-23T15:59:32Z</time>
      </trkpt>
      <trkpt lat="47.65015" lon="6.18084">
        <ele>224.1</ele>
        <time>2022-01-23T15:59:34Z</time>
      </trkpt>
      <trkpt lat="47.65007" lon="6.18085">
        <ele>224.2</ele>
        <time>2022-01-23T15:59:36Z</time>
      </trkpt>
      <trkpt lat="47.65" lon="6.18086">
        <ele>224.5</ele>
        <time>2022-01-23T15:59:38Z</time>
      </trkpt>
      <trkpt lat="47.64993" lon="6.18089">
        <ele>224.8</ele>
        <time>2022-01-23T15:59:40Z</time>
      </trkpt>
      <trkpt lat="47.64985" lon="6.18092">
        <ele>225.2</ele>
        <time>2022-01-23T15:59:42Z</time>
      </trkpt>
      <trkpt lat="47.64977" lon="6.18095">
        <ele>225.6</ele>
        <time>2022-01-23T15:59:44Z</time>
      </trkpt>
      <trkpt lat="47.64969" lon="6.18097">
        <ele>225.8</ele>
        <time>2022-01-23T15:59:45Z</time>
      </trkpt>
      <trkpt lat="47.64962" lon="6.18098">
        <ele>225.7</ele>
        <time>2022-01-23T15:59:47Z</time>
      </trkpt>
      <trkpt lat="47.64955" lon="6.18098">
        <ele>225.5</ele>
        <time>2022-01-23T15:59:49Z</time>
      </trkpt>
      <trkpt lat="47.64947" lon="6.18098">
        <ele>225.2</ele>
        <time>2022-01-23T15:59:51Z</time>
      </trkpt>
      <trkpt lat="47.64939" lon="6.18097">
        <ele>225</ele>
        <time>2022-01-23T15:59:53Z</time>
      </trkpt>
      <trkpt lat="47.64931" lon="6.18096">
        <ele>224.8</ele>
        <time>2022-01-23T15:59:55Z</time>
      </trkpt>
      <trkpt lat="47.64924" lon="6.18095">
        <ele>224.7</ele>
        <time>2022-01-23T15:59:57Z</time>
      </trkpt>
      <trkpt lat="47.64917" lon="6.18094">
        <ele>224.5</ele>
        <time>2022-01-23T15:59:59Z</time>
      </trkpt>
      <trkpt lat="47.6491" lon="6.18093">
        <ele>224.4</ele>
        <time>2022-01-23T16:00:01Z</time>
      </trkpt>
      <trkpt lat="47.64902" lon="6.1809">
        <ele>224.3</ele>
        <time>2022-01-23T16:00:03Z</time>
      </trkpt>
      <trkpt lat="47.64895" lon="6.18088">
        <ele>224.2</ele>
        <time>2022-01-23T16:00:05Z</time>
      </trkpt>
      <trkpt lat="47.64888" lon="6.18086">
        <ele>224.2</ele>
        <time>2022-01-23T16:00:07Z</time>
      </trkpt>
      <trkpt lat="47.64881" lon="6.18084">
        <ele>224.3</ele>
        <time>2022-01-23T16:00:09Z</time>
      </trkpt>
      <trkpt lat="47.64876" lon="6.18081">
        <ele>224.4</ele>
        <time>2022-01-23T16:00:11Z</time>
      </trkpt>
      <trkpt lat="47.64869" lon="6.1808">
        <ele>224.6</ele>
        <time>2022-01-23T16:00:13Z</time>
      </trkpt>
      <trkpt lat="47.64863" lon="6.1808">
        <ele>224.8</ele>
        <time>2022-01-23T16:00:15Z</time>
      </trkpt>
      <trkpt lat="47.64857" lon="6.18079">
        <ele>224.8</ele>
        <time>2022-01-23T16:00:17Z</time>
      </trkpt>
      <trkpt lat="47.64852" lon="6.18077">
        <ele>224.8</ele>
        <time>2022-01-23T16:00:19Z</time>
      </trkpt>
      <trkpt lat="47.64847" lon="6.18075">
        <ele>224.7</ele>
        <time>2022-01-23T16:00:21Z</time>
      </trkpt>
      <trkpt lat="47.64842" lon="6.18073">
        <ele>224.6</ele>
        <time>2022-01-23T16:00:23Z</time>
      </trkpt>
      <trkpt lat="47.64835" lon="6.18071">
        <ele>224.5</ele>
        <time>2022-01-23T16:00:25Z</time>
      </trkpt>
      <trkpt lat="47.64827" lon="6.18069">
        <ele>224.4</ele>
        <time>2022-01-23T16:00:27Z</time>
      </trkpt>
      <trkpt lat="47.64822" lon="6.18068">
        <ele>224.2</ele>
        <time>2022-01-23T16:00:28Z</time>
      </trkpt>
      <trkpt lat="47.64817" lon="6.18066">
        <ele>224</ele>
        <time>2022-01-23T16:00:29Z</time>
      </trkpt>
      <trkpt lat="47.64812" lon="6.18065">
        <ele>223.8</ele>
        <time>2022-01-23T16:00:30Z</time>
      </trkpt>
      <trkpt lat="47.64807" lon="6.18064">
        <ele>223.6</ele>
        <time>2022-01-23T16:00:31Z</time>
      </trkpt>
      <trkpt lat="47.64803" lon="6.18063">
        <ele>223.6</ele>
        <time>2022-01-23T16:00:32Z</time>
      </trkpt>
      <trkpt lat="47.64795" lon="6.1806">
        <ele>223.5</ele>
        <time>2022-01-23T16:00:34Z</time>
      </trkpt>
      <trkpt lat="47.64787" lon="6.18056">
        <ele>223.1</ele>
        <time>2022-01-23T16:00:36Z</time>
      </trkpt>
      <trkpt lat="47.64782" lon="6.18054">
        <ele>223</ele>
        <time>2022-01-23T16:00:37Z</time>
      </trkpt>
      <trkpt lat="47.64778" lon="6.18051">
        <ele>223</ele>
        <time>2022-01-23T16:00:38Z</time>
      </trkpt>
      <trkpt lat="47.64771" lon="6.18045">
        <ele>223.8</ele>
        <time>2022-01-23T16:00:40Z</time>
      </trkpt>
      <trkpt lat="47.64768" lon="6.18042">
        <ele>224.1</ele>
        <time>2022-01-23T16:00:41Z</time>
      </trkpt>
      <trkpt lat="47.64761" lon="6.18036">
        <ele>224.3</ele>
        <time>2022-01-23T16:00:43Z</time>
      </trkpt>
      <trkpt lat="47.64756" lon="6.18028">
        <ele>223.9</ele>
        <time>2022-01-23T16:00:45Z</time>
      </trkpt>
      <trkpt lat="47.64751" lon="6.18021">
        <ele>223.8</ele>
        <time>2022-01-23T16:00:47Z</time>
      </trkpt>
      <trkpt lat="47.64746" lon="6.18014">
        <ele>224.1</ele>
        <time>2022-01-23T16:00:49Z</time>
      </trkpt>
      <trkpt lat="47.64741" lon="6.18006">
        <ele>224.2</ele>
        <time>2022-01-23T16:00:51Z</time>
      </trkpt>
      <trkpt lat="47.64737" lon="6.17999">
        <ele>223.9</ele>
        <time>2022-01-23T16:00:53Z</time>
      </trkpt>
      <trkpt lat="47.64732" lon="6.17992">
        <ele>223.9</ele>
        <time>2022-01-23T16:00:55Z</time>
      </trkpt>
      <trkpt lat="47.64729" lon="6.17986">
        <ele>223.8</ele>
        <time>2022-01-23T16:01:00Z</time>
      </trkpt>
      <trkpt lat="47.64723" lon="6.17977">
        <ele>223.4</ele>
        <time>2022-01-23T16:01:03Z</time>
      </trkpt>
      <trkpt lat="47.64718" lon="6.17972">
        <ele>223.4</ele>
        <time>2022-01-23T16:01:04Z</time>
      </trkpt>
      <trkpt lat="47.64714" lon="6.17965">
        <ele>223.7</ele>
        <time>2022-01-23T16:01:06Z</time>
      </trkpt>
      <trkpt lat="47.64708" lon="6.17957">
        <ele>223.7</ele>
        <time>2022-01-23T16:01:08Z</time>
      </trkpt>
      <trkpt lat="47.647" lon="6.17945">
        <ele>223</ele>
        <time>2022-01-23T16:01:11Z</time>
      </trkpt>
      <trkpt lat="47.64695" lon="6.17938">
        <ele>223</ele>
        <time>2022-01-23T16:01:12Z</time>
      </trkpt>
      <trkpt lat="47.64691" lon="6.17934">
        <ele>223.2</ele>
        <time>2022-01-23T16:01:14Z</time>
      </trkpt>
      <trkpt lat="47.64686" lon="6.17928">
        <ele>223.4</ele>
        <time>2022-01-23T16:01:15Z</time>
      </trkpt>
      <trkpt lat="47.64682" lon="6.17923">
        <ele>223.3</ele>
        <time>2022-01-23T16:01:17Z</time>
      </trkpt>
      <trkpt lat="47.64671" lon="6.17913">
        <ele>223</ele>
        <time>2022-01-23T16:01:20Z</time>
      </trkpt>
      <trkpt lat="47.64665" lon="6.17909">
        <ele>223</ele>
        <time>2022-01-23T16:01:22Z</time>
      </trkpt>
      <trkpt lat="47.6466" lon="6.17906">
        <ele>223.2</ele>
        <time>2022-01-23T16:01:23Z</time>
      </trkpt>
      <trkpt lat="47.64655" lon="6.17903">
        <ele>223.2</ele>
        <time>2022-01-23T16:01:25Z</time>
      </trkpt>
      <trkpt lat="47.64649" lon="6.179">
        <ele>223.3</ele>
        <time>2022-01-23T16:01:26Z</time>
      </trkpt>
      <trkpt lat="47.64638" lon="6.17894">
        <ele>223.2</ele>
        <time>2022-01-23T16:01:30Z</time>
      </trkpt>
      <trkpt lat="47.64631" lon="6.17891">
        <ele>223.1</ele>
        <time>2022-01-23T16:01:32Z</time>
      </trkpt>
      <trkpt lat="47.64613" lon="6.17887">
        <ele>223</ele>
        <time>2022-01-23T16:01:37Z</time>
      </trkpt>
      <trkpt lat="47.64594" lon="6.17895">
        <ele>222.7</ele>
        <time>2022-01-23T16:01:42Z</time>
      </trkpt>
      <trkpt lat="47.64582" lon="6.17907">
        <ele>223.2</ele>
        <time>2022-01-23T16:01:46Z</time>
      </trkpt>
      <trkpt lat="47.64577" lon="6.17912">
        <ele>223.3</ele>
        <time>2022-01-23T16:01:48Z</time>
      </trkpt>
      <trkpt lat="47.64572" lon="6.17917">
        <ele>223.2</ele>
        <time>2022-01-23T16:01:49Z</time>
      </trkpt>
      <trkpt lat="47.64564" lon="6.17926">
        <ele>223.5</ele>
        <time>2022-01-23T16:01:54Z</time>
      </trkpt>
      <trkpt lat="47.64559" lon="6.17932">
        <ele>223.8</ele>
        <time>2022-01-23T16:01:57Z</time>
      </trkpt>
      <trkpt lat="47.64558" lon="6.17939">
        <ele>224.5</ele>
        <time>2022-01-23T16:01:59Z</time>
      </trkpt>
      <trkpt lat="47.64557" lon="6.17947">
        <ele>225.2</ele>
        <time>2022-01-23T16:02:01Z</time>
      </trkpt>
      <trkpt lat="47.64553" lon="6.17964">
        <ele>225.5</ele>
        <time>2022-01-23T16:02:06Z</time>
      </trkpt>
      <trkpt lat="47.64549" lon="6.17979">
        <ele>226</ele>
        <time>2022-01-23T16:02:06Z</time>
      </trkpt>
      <trkpt lat="47.64549" lon="6.17986">
        <ele>226.4</ele>
        <time>2022-01-23T16:02:12Z</time>
      </trkpt>
      <trkpt lat="47.64547" lon="6.18001">
        <ele>227.1</ele>
        <time>2022-01-23T16:02:13Z</time>
      </trkpt>
      <trkpt lat="47.64543" lon="6.18008">
        <ele>226.8</ele>
        <time>2022-01-23T16:02:17Z</time>
      </trkpt>
      <trkpt lat="47.6454" lon="6.18016">
        <ele>226.6</ele>
        <time>2022-01-23T16:02:20Z</time>
      </trkpt>
      <trkpt lat="47.64536" lon="6.18025">
        <ele>226.1</ele>
        <time>2022-01-23T16:02:27Z</time>
      </trkpt>
      <trkpt lat="47.6453" lon="6.18031">
        <ele>225.5</ele>
        <time>2022-01-23T16:02:29Z</time>
      </trkpt>
      <trkpt lat="47.64524" lon="6.18035">
        <ele>225</ele>
        <time>2022-01-23T16:02:30Z</time>
      </trkpt>
      <trkpt lat="47.64517" lon="6.18037">
        <ele>224.6</ele>
        <time>2022-01-23T16:02:32Z</time>
      </trkpt>
      <trkpt lat="47.64505" lon="6.18038">
        <ele>223.7</ele>
        <time>2022-01-23T16:02:34Z</time>
      </trkpt>
      <trkpt lat="47.64493" lon="6.18035">
        <ele>223.2</ele>
        <time>2022-01-23T16:02:36Z</time>
      </trkpt>
      <trkpt lat="47.64489" lon="6.18033">
        <ele>223.1</ele>
        <time>2022-01-23T16:02:36Z</time>
      </trkpt>
      <trkpt lat="47.64465" lon="6.18016">
        <ele>223</ele>
        <time>2022-01-23T16:02:36Z</time>
      </trkpt>
      <trkpt lat="47.64461" lon="6.1801">
        <ele>223</ele>
        <time>2022-01-23T16:02:37Z</time>
      </trkpt>
      <trkpt lat="47.64457" lon="6.18005">
        <ele>223</ele>
        <time>2022-01-23T16:02:38Z</time>
      </trkpt>
      <trkpt lat="47.64453" lon="6.17999">
        <ele>223</ele>
        <time>2022-01-23T16:02:39Z</time>
      </trkpt>
      <trkpt lat="47.6445" lon="6.17994">
        <ele>222.8</ele>
        <time>2022-01-23T16:02:40Z</time>
      </trkpt>
      <trkpt lat="47.64447" lon="6.17988">
        <ele>222.6</ele>
        <time>2022-01-23T16:02:41Z</time>
      </trkpt>
      <trkpt lat="47.64443" lon="6.17978">
        <ele>222.2</ele>
        <time>2022-01-23T16:02:43Z</time>
      </trkpt>
      <trkpt lat="47.64439" lon="6.1797">
        <ele>222</ele>
        <time>2022-01-23T16:02:45Z</time>
      </trkpt>
      <trkpt lat="47.64433" lon="6.17963">
        <ele>222</ele>
        <time>2022-01-23T16:02:48Z</time>
      </trkpt>
      <trkpt lat="47.64428" lon="6.17956">
        <ele>222</ele>
        <time>2022-01-23T16:02:50Z</time>
      </trkpt>
      <trkpt lat="47.6443" lon="6.17949">
        <ele>222</ele>
        <time>2022-01-23T16:02:53Z</time>
      </trkpt>
      <trkpt lat="47.64423" lon="6.17941">
        <ele>222.1</ele>
        <time>2022-01-23T16:02:59Z</time>
      </trkpt>
      <trkpt lat="47.64409" lon="6.1792">
        <ele>222.6</ele>
        <time>2022-01-23T16:03:00Z</time>
      </trkpt>
      <trkpt lat="47.64405" lon="6.17913">
        <ele>222.6</ele>
        <time>2022-01-23T16:03:02Z</time>
      </trkpt>
      <trkpt lat="47.64402" lon="6.17907">
        <ele>222.5</ele>
        <time>2022-01-23T16:03:04Z</time>
      </trkpt>
      <trkpt lat="47.64398" lon="6.179">
        <ele>222.5</ele>
        <time>2022-01-23T16:03:06Z</time>
      </trkpt>
      <trkpt lat="47.64395" lon="6.17893">
        <ele>222.7</ele>
        <time>2022-01-23T16:03:08Z</time>
      </trkpt>
      <trkpt lat="47.64391" lon="6.17885">
        <ele>222.8</ele>
        <time>2022-01-23T16:03:10Z</time>
      </trkpt>
      <trkpt lat="47.64387" lon="6.17879">
        <ele>222.6</ele>
        <time>2022-01-23T16:03:12Z</time>
      </trkpt>
      <trkpt lat="47.64382" lon="6.17872">
        <ele>222.4</ele>
        <time>2022-01-23T16:03:14Z</time>
      </trkpt>
      <trkpt lat="47.64378" lon="6.17865">
        <ele>222.4</ele>
        <time>2022-01-23T16:03:16Z</time>
      </trkpt>
      <trkpt lat="47.64372" lon="6.17856">
        <ele>222.4</ele>
        <time>2022-01-23T16:03:18Z</time>
      </trkpt>
      <trkpt lat="47.64367" lon="6.17847">
        <ele>222.3</ele>
        <time>2022-01-23T16:03:20Z</time>
      </trkpt>
      <trkpt lat="47.64361" lon="6.1784">
        <ele>222.2</ele>
        <time>2022-01-23T16:03:22Z</time>
      </trkpt>
      <trkpt lat="47.64358" lon="6.17836">
        <ele>222.1</ele>
        <time>2022-01-23T16:03:23Z</time>
      </trkpt>
      <trkpt lat="47.64353" lon="6.17826">
        <ele>222</ele>
        <time>2022-01-23T16:03:25Z</time>
      </trkpt>
      <trkpt lat="47.6435" lon="6.17815">
        <ele>222</ele>
        <time>2022-01-23T16:03:27Z</time>
      </trkpt>
      <trkpt lat="47.64345" lon="6.17807">
        <ele>222</ele>
        <time>2022-01-23T16:03:29Z</time>
      </trkpt>
      <trkpt lat="47.64339" lon="6.17803">
        <ele>222.1</ele>
        <time>2022-01-23T16:03:31Z</time>
      </trkpt>
      <trkpt lat="47.64333" lon="6.17799">
        <ele>222.2</ele>
        <time>2022-01-23T16:03:33Z</time>
      </trkpt>
      <trkpt lat="47.64325" lon="6.17795">
        <ele>222.3</ele>
        <time>2022-01-23T16:03:35Z</time>
      </trkpt>
      <trkpt lat="47.64319" lon="6.17791">
        <ele>222.3</ele>
        <time>2022-01-23T16:03:37Z</time>
      </trkpt>
      <trkpt lat="47.64314" lon="6.17788">
        <ele>222.2</ele>
        <time>2022-01-23T16:03:39Z</time>
      </trkpt>
      <trkpt lat="47.64308" lon="6.17784">
        <ele>222.1</ele>
        <time>2022-01-23T16:03:41Z</time>
      </trkpt>
      <trkpt lat="47.64303" lon="6.17781">
        <ele>222</ele>
        <time>2022-01-23T16:03:43Z</time>
      </trkpt>
      <trkpt lat="47.64298" lon="6.17777">
        <ele>222</ele>
        <time>2022-01-23T16:03:45Z</time>
      </trkpt>
      <trkpt lat="47.64292" lon="6.17774">
        <ele>222.1</ele>
        <time>2022-01-23T16:03:47Z</time>
      </trkpt>
      <trkpt lat="47.64287" lon="6.17772">
        <ele>222.2</ele>
        <time>2022-01-23T16:03:49Z</time>
      </trkpt>
      <trkpt lat="47.6428" lon="6.17768">
        <ele>222.3</ele>
        <time>2022-01-23T16:03:51Z</time>
      </trkpt>
      <trkpt lat="47.64275" lon="6.17765">
        <ele>222.4</ele>
        <time>2022-01-23T16:03:53Z</time>
      </trkpt>
      <trkpt lat="47.64269" lon="6.1776">
        <ele>222.4</ele>
        <time>2022-01-23T16:03:55Z</time>
      </trkpt>
      <trkpt lat="47.64263" lon="6.17756">
        <ele>222.4</ele>
        <time>2022-01-23T16:03:57Z</time>
      </trkpt>
      <trkpt lat="47.64258" lon="6.17753">
        <ele>222.3</ele>
        <time>2022-01-23T16:03:59Z</time>
      </trkpt>
      <trkpt lat="47.64253" lon="6.17749">
        <ele>222.1</ele>
        <time>2022-01-23T16:04:01Z</time>
      </trkpt>
      <trkpt lat="47.64247" lon="6.17751">
        <ele>222</ele>
        <time>2022-01-23T16:04:04Z</time>
      </trkpt>
      <trkpt lat="47.64249" lon="6.17758">
        <ele>222</ele>
        <time>2022-01-23T16:04:07Z</time>
      </trkpt>
      <trkpt lat="47.64254" lon="6.17761">
        <ele>222.1</ele>
        <time>2022-01-23T16:04:10Z</time>
      </trkpt>
      <trkpt lat="47.64259" lon="6.17765">
        <ele>222.2</ele>
        <time>2022-01-23T16:04:13Z</time>
      </trkpt>
      <trkpt lat="47.64264" lon="6.17768">
        <ele>222.2</ele>
        <time>2022-01-23T16:04:15Z</time>
      </trkpt>
      <trkpt lat="47.6427" lon="6.17773">
        <ele>222.1</ele>
        <time>2022-01-23T16:04:18Z</time>
      </trkpt>
      <trkpt lat="47.64275" lon="6.17776">
        <ele>222.1</ele>
        <time>2022-01-23T16:04:20Z</time>
      </trkpt>
      <trkpt lat="47.6428" lon="6.17779">
        <ele>222</ele>
        <time>2022-01-23T16:04:22Z</time>
      </trkpt>
      <trkpt lat="47.64284" lon="6.17782">
        <ele>222</ele>
        <time>2022-01-23T16:04:24Z</time>
      </trkpt>
      <trkpt lat="47.64289" lon="6.17785">
        <ele>222</ele>
        <time>2022-01-23T16:04:44Z</time>
      </trkpt>
      <trkpt lat="47.64294" lon="6.17787">
        <ele>222</ele>
        <time>2022-01-23T16:04:47Z</time>
      </trkpt>
      <trkpt lat="47.643" lon="6.1779">
        <ele>222</ele>
        <time>2022-01-23T16:04:50Z</time>
      </trkpt>
      <trkpt lat="47.64305" lon="6.17793">
        <ele>222</ele>
        <time>2022-01-23T16:04:52Z</time>
      </trkpt>
      <trkpt lat="47.64311" lon="6.17796">
        <ele>222.1</ele>
        <time>2022-01-23T16:04:54Z</time>
      </trkpt>
      <trkpt lat="47.64317" lon="6.17799">
        <ele>222.1</ele>
        <time>2022-01-23T16:04:56Z</time>
      </trkpt>
      <trkpt lat="47.64323" lon="6.17803">
        <ele>222.1</ele>
        <time>2022-01-23T16:04:58Z</time>
      </trkpt>
      <trkpt lat="47.64329" lon="6.17806">
        <ele>222</ele>
        <time>2022-01-23T16:05:00Z</time>
      </trkpt>
      <trkpt lat="47.64335" lon="6.1781">
        <ele>222</ele>
        <time>2022-01-23T16:05:02Z</time>
      </trkpt>
      <trkpt lat="47.6434" lon="6.17815">
        <ele>222</ele>
        <time>2022-01-23T16:05:04Z</time>
      </trkpt>
      <trkpt lat="47.64345" lon="6.17818">
        <ele>222</ele>
        <time>2022-01-23T16:05:06Z</time>
      </trkpt>
      <trkpt lat="47.64351" lon="6.17817">
        <ele>222</ele>
        <time>2022-01-23T16:05:08Z</time>
      </trkpt>
      <trkpt lat="47.64353" lon="6.1781">
        <ele>222</ele>
        <time>2022-01-23T16:05:11Z</time>
      </trkpt>
      <trkpt lat="47.64347" lon="6.17803">
        <ele>222.1</ele>
        <time>2022-01-23T16:05:14Z</time>
      </trkpt>
      <trkpt lat="47.6434" lon="6.17799">
        <ele>222.2</ele>
        <time>2022-01-23T16:05:16Z</time>
      </trkpt>
      <trkpt lat="47.64333" lon="6.17795">
        <ele>222.4</ele>
        <time>2022-01-23T16:05:18Z</time>
      </trkpt>
      <trkpt lat="47.64328" lon="6.17792">
        <ele>222.4</ele>
        <time>2022-01-23T16:05:20Z</time>
      </trkpt>
      <trkpt lat="47.64321" lon="6.17789">
        <ele>222.3</ele>
        <time>2022-01-23T16:05:22Z</time>
      </trkpt>
      <trkpt lat="47.64316" lon="6.17786">
        <ele>222.3</ele>
        <time>2022-01-23T16:05:24Z</time>
      </trkpt>
      <trkpt lat="47.6431" lon="6.17782">
        <ele>222.1</ele>
        <time>2022-01-23T16:05:26Z</time>
      </trkpt>
      <trkpt lat="47.64305" lon="6.17779">
        <ele>222</ele>
        <time>2022-01-23T16:05:28Z</time>
      </trkpt>
      <trkpt lat="47.643" lon="6.17777">
        <ele>222</ele>
        <time>2022-01-23T16:05:30Z</time>
      </trkpt>
      <trkpt lat="47.64295" lon="6.17774">
        <ele>222.1</ele>
        <time>2022-01-23T16:05:32Z</time>
      </trkpt>
      <trkpt lat="47.6429" lon="6.17771">
        <ele>222.3</ele>
        <time>2022-01-23T16:05:34Z</time>
      </trkpt>
      <trkpt lat="47.64285" lon="6.17768">
        <ele>222.3</ele>
        <time>2022-01-23T16:05:36Z</time>
      </trkpt>
      <trkpt lat="47.6428" lon="6.17766">
        <ele>222.4</ele>
        <time>2022-01-23T16:05:38Z</time>
      </trkpt>
      <trkpt lat="47.64274" lon="6.17762">
        <ele>222.5</ele>
        <time>2022-01-23T16:05:40Z</time>
      </trkpt>
      <trkpt lat="47.64269" lon="6.17758">
        <ele>222.5</ele>
        <time>2022-01-23T16:05:42Z</time>
      </trkpt>
      <trkpt lat="47.64264" lon="6.17755">
        <ele>222.4</ele>
        <time>2022-01-23T16:05:44Z</time>
      </trkpt>
      <trkpt lat="47.64259" lon="6.17751">
        <ele>222.3</ele>
        <time>2022-01-23T16:05:46Z</time>
      </trkpt>
      <trkpt lat="47.64253" lon="6.17746">
        <ele>222.2</ele>
        <time>2022-01-23T16:05:48Z</time>
      </trkpt>
      <trkpt lat="47.64247" lon="6.17742">
        <ele>222.3</ele>
        <time>2022-01-23T16:05:50Z</time>
      </trkpt>
      <trkpt lat="47.6424" lon="6.17737">
        <ele>222.3</ele>
        <time>2022-01-23T16:05:52Z</time>
      </trkpt>
      <trkpt lat="47.64234" lon="6.17732">
        <ele>222.3</ele>
        <time>2022-01-23T16:05:54Z</time>
      </trkpt>
      <trkpt lat="47.64228" lon="6.17725">
        <ele>222.2</ele>
        <time>2022-01-23T16:05:56Z</time>
      </trkpt>
      <trkpt lat="47.64222" lon="6.17719">
        <ele>222</ele>
        <time>2022-01-23T16:05:58Z</time>
      </trkpt>
      <trkpt lat="47.64217" lon="6.17712">
        <ele>222</ele>
        <time>2022-01-23T16:06:00Z</time>
      </trkpt>
      <trkpt lat="47.64211" lon="6.17705">
        <ele>222</ele>
        <time>2022-01-23T16:06:02Z</time>
      </trkpt>
      <trkpt lat="47.64207" lon="6.17699">
        <ele>222</ele>
        <time>2022-01-23T16:06:04Z</time>
      </trkpt>
      <trkpt lat="47.64201" lon="6.17692">
        <ele>222</ele>
        <time>2022-01-23T16:06:06Z</time>
      </trkpt>
      <trkpt lat="47.64196" lon="6.17684">
        <ele>222</ele>
        <time>2022-01-23T16:06:08Z</time>
      </trkpt>
      <trkpt lat="47.6419" lon="6.17677">
        <ele>222</ele>
        <time>2022-01-23T16:06:10Z</time>
      </trkpt>
      <trkpt lat="47.64185" lon="6.17671">
        <ele>222</ele>
        <time>2022-01-23T16:06:12Z</time>
      </trkpt>
      <trkpt lat="47.64179" lon="6.17671">
        <ele>222</ele>
        <time>2022-01-23T16:06:15Z</time>
      </trkpt>
      <trkpt lat="47.64179" lon="6.17678">
        <ele>222</ele>
        <time>2022-01-23T16:06:18Z</time>
      </trkpt>
      <trkpt lat="47.64184" lon="6.17684">
        <ele>222</ele>
        <time>2022-01-23T16:06:21Z</time>
      </trkpt>
      <trkpt lat="47.64188" lon="6.17688">
        <ele>222</ele>
        <time>2022-01-23T16:06:24Z</time>
      </trkpt>
      <trkpt lat="47.64192" lon="6.17693">
        <ele>222</ele>
        <time>2022-01-23T16:06:26Z</time>
      </trkpt>
      <trkpt lat="47.64195" lon="6.17697">
        <ele>222</ele>
        <time>2022-01-23T16:06:28Z</time>
      </trkpt>
      <trkpt lat="47.64199" lon="6.17702">
        <ele>222</ele>
        <time>2022-01-23T16:06:30Z</time>
      </trkpt>
      <trkpt lat="47.64204" lon="6.17708">
        <ele>222</ele>
        <time>2022-01-23T16:06:33Z</time>
      </trkpt>
      <trkpt lat="47.64208" lon="6.17712">
        <ele>222</ele>
        <time>2022-01-23T16:06:35Z</time>
      </trkpt>
      <trkpt lat="47.64214" lon="6.17718">
        <ele>222</ele>
        <time>2022-01-23T16:06:38Z</time>
      </trkpt>
      <trkpt lat="47.64218" lon="6.17725">
        <ele>222</ele>
        <time>2022-01-23T16:06:41Z</time>
      </trkpt>
      <trkpt lat="47.64221" lon="6.1773">
        <ele>222</ele>
        <time>2022-01-23T16:06:43Z</time>
      </trkpt>
      <trkpt lat="47.64226" lon="6.17735">
        <ele>222.1</ele>
        <time>2022-01-23T16:06:45Z</time>
      </trkpt>
      <trkpt lat="47.6423" lon="6.1774">
        <ele>222.1</ele>
        <time>2022-01-23T16:06:47Z</time>
      </trkpt>
      <trkpt lat="47.64234" lon="6.17745">
        <ele>222.1</ele>
        <time>2022-01-23T16:06:49Z</time>
      </trkpt>
      <trkpt lat="47.64239" lon="6.17749">
        <ele>222</ele>
        <time>2022-01-23T16:06:51Z</time>
      </trkpt>
      <trkpt lat="47.64243" lon="6.17753">
        <ele>222</ele>
        <time>2022-01-23T16:06:53Z</time>
      </trkpt>
      <trkpt lat="47.64248" lon="6.17757">
        <ele>222</ele>
        <time>2022-01-23T16:06:55Z</time>
      </trkpt>
      <trkpt lat="47.64253" lon="6.17761">
        <ele>222.1</ele>
        <time>2022-01-23T16:06:57Z</time>
      </trkpt>
      <trkpt lat="47.64258" lon="6.17764">
        <ele>222.1</ele>
        <time>2022-01-23T16:06:59Z</time>
      </trkpt>
      <trkpt lat="47.64263" lon="6.17768">
        <ele>222.2</ele>
        <time>2022-01-23T16:07:01Z</time>
      </trkpt>
      <trkpt lat="47.64267" lon="6.17771">
        <ele>222.2</ele>
        <time>2022-01-23T16:07:03Z</time>
      </trkpt>
      <trkpt lat="47.64273" lon="6.17774">
        <ele>222.1</ele>
        <time>2022-01-23T16:07:05Z</time>
      </trkpt>
      <trkpt lat="47.64278" lon="6.17777">
        <ele>222</ele>
        <time>2022-01-23T16:07:07Z</time>
      </trkpt>
      <trkpt lat="47.64284" lon="6.17781">
        <ele>222</ele>
        <time>2022-01-23T16:07:09Z</time>
      </trkpt>
      <trkpt lat="47.64289" lon="6.17785">
        <ele>222</ele>
        <time>2022-01-23T16:07:11Z</time>
      </trkpt>
      <trkpt lat="47.64295" lon="6.17788">
        <ele>222</ele>
        <time>2022-01-23T16:07:13Z</time>
      </trkpt>
      <trkpt lat="47.643" lon="6.17791">
        <ele>222</ele>
        <time>2022-01-23T16:07:15Z</time>
      </trkpt>
      <trkpt lat="47.64304" lon="6.17795">
        <ele>222</ele>
        <time>2022-01-23T16:07:17Z</time>
      </trkpt>
      <trkpt lat="47.64308" lon="6.17801">
        <ele>222</ele>
        <time>2022-01-23T16:09:07Z</time>
      </trkpt>
      <trkpt lat="47.64314" lon="6.17804">
        <ele>222</ele>
        <time>2022-01-23T16:09:09Z</time>
      </trkpt>
      <trkpt lat="47.6432" lon="6.17808">
        <ele>222</ele>
        <time>2022-01-23T16:09:12Z</time>
      </trkpt>
      <trkpt lat="47.64326" lon="6.17811">
        <ele>222</ele>
        <time>2022-01-23T16:09:14Z</time>
      </trkpt>
      <trkpt lat="47.6433" lon="6.17814">
        <ele>222</ele>
        <time>2022-01-23T16:09:16Z</time>
      </trkpt>
      <trkpt lat="47.64336" lon="6.17818">
        <ele>222</ele>
        <time>2022-01-23T16:09:19Z</time>
      </trkpt>
      <trkpt lat="47.64341" lon="6.17821">
        <ele>222</ele>
        <time>2022-01-23T16:09:21Z</time>
      </trkpt>
      <trkpt lat="47.64345" lon="6.17824">
        <ele>222</ele>
        <time>2022-01-23T16:09:23Z</time>
      </trkpt>
      <trkpt lat="47.6435" lon="6.17827">
        <ele>222</ele>
        <time>2022-01-23T16:09:25Z</time>
      </trkpt>
      <trkpt lat="47.64355" lon="6.17831">
        <ele>222</ele>
        <time>2022-01-23T16:09:27Z</time>
      </trkpt>
      <trkpt lat="47.6436" lon="6.17836">
        <ele>222.1</ele>
        <time>2022-01-23T16:09:29Z</time>
      </trkpt>
      <trkpt lat="47.64363" lon="6.17842">
        <ele>222.3</ele>
        <time>2022-01-23T16:09:31Z</time>
      </trkpt>
      <trkpt lat="47.64366" lon="6.17849">
        <ele>222.4</ele>
        <time>2022-01-23T16:09:33Z</time>
      </trkpt>
      <trkpt lat="47.6437" lon="6.17855">
        <ele>222.4</ele>
        <time>2022-01-23T16:09:35Z</time>
      </trkpt>
      <trkpt lat="47.64375" lon="6.17861">
        <ele>222.5</ele>
        <time>2022-01-23T16:09:37Z</time>
      </trkpt>
      <trkpt lat="47.64379" lon="6.17868">
        <ele>222.4</ele>
        <time>2022-01-23T16:09:39Z</time>
      </trkpt>
      <trkpt lat="47.64384" lon="6.17874">
        <ele>222.5</ele>
        <time>2022-01-23T16:09:41Z</time>
      </trkpt>
      <trkpt lat="47.64389" lon="6.17881">
        <ele>222.7</ele>
        <time>2022-01-23T16:09:43Z</time>
      </trkpt>
      <trkpt lat="47.64396" lon="6.17885">
        <ele>222.7</ele>
        <time>2022-01-23T16:09:45Z</time>
      </trkpt>
      <trkpt lat="47.644" lon="6.17889">
        <ele>222.6</ele>
        <time>2022-01-23T16:09:47Z</time>
      </trkpt>
      <trkpt lat="47.64403" lon="6.17897">
        <ele>222.5</ele>
        <time>2022-01-23T16:09:49Z</time>
      </trkpt>
      <trkpt lat="47.64403" lon="6.17905">
        <ele>222.5</ele>
        <time>2022-01-23T16:09:51Z</time>
      </trkpt>
      <trkpt lat="47.64405" lon="6.17912">
        <ele>222.6</ele>
        <time>2022-01-23T16:09:53Z</time>
      </trkpt>
      <trkpt lat="47.64409" lon="6.17917">
        <ele>222.7</ele>
        <time>2022-01-23T16:09:55Z</time>
      </trkpt>
      <trkpt lat="47.64414" lon="6.17921">
        <ele>222.8</ele>
        <time>2022-01-23T16:09:57Z</time>
      </trkpt>
      <trkpt lat="47.64417" lon="6.1793">
        <ele>222.5</ele>
        <time>2022-01-23T16:10:00Z</time>
      </trkpt>
      <trkpt lat="47.64422" lon="6.17932">
        <ele>222.4</ele>
        <time>2022-01-23T16:10:02Z</time>
      </trkpt>
      <trkpt lat="47.64423" lon="6.17941">
        <ele>222.1</ele>
        <time>2022-01-23T16:10:14Z</time>
      </trkpt>
      <trkpt lat="47.64427" lon="6.17946">
        <ele>222</ele>
        <time>2022-01-23T16:10:16Z</time>
      </trkpt>
      <trkpt lat="47.64431" lon="6.17952">
        <ele>222</ele>
        <time>2022-01-23T16:10:18Z</time>
      </trkpt>
      <trkpt lat="47.64435" lon="6.17958">
        <ele>222</ele>
        <time>2022-01-23T16:10:20Z</time>
      </trkpt>
      <trkpt lat="47.64439" lon="6.17963">
        <ele>222</ele>
        <time>2022-01-23T16:10:22Z</time>
      </trkpt>
      <trkpt lat="47.64444" lon="6.17972">
        <ele>222</ele>
        <time>2022-01-23T16:10:24Z</time>
      </trkpt>
      <trkpt lat="47.64448" lon="6.1798">
        <ele>222.3</ele>
        <time>2022-01-23T16:10:26Z</time>
      </trkpt>
      <trkpt lat="47.64452" lon="6.17989">
        <ele>222.6</ele>
        <time>2022-01-23T16:10:28Z</time>
      </trkpt>
      <trkpt lat="47.64456" lon="6.17998">
        <ele>222.9</ele>
        <time>2022-01-23T16:10:30Z</time>
      </trkpt>
      <trkpt lat="47.64461" lon="6.18006">
        <ele>223</ele>
        <time>2022-01-23T16:10:32Z</time>
      </trkpt>
      <trkpt lat="47.64466" lon="6.18014">
        <ele>223</ele>
        <time>2022-01-23T16:10:34Z</time>
      </trkpt>
      <trkpt lat="47.64471" lon="6.18021">
        <ele>223</ele>
        <time>2022-01-23T16:10:36Z</time>
      </trkpt>
      <trkpt lat="47.64475" lon="6.18026">
        <ele>223</ele>
        <time>2022-01-23T16:10:38Z</time>
      </trkpt>
      <trkpt lat="47.64481" lon="6.18031">
        <ele>223</ele>
        <time>2022-01-23T16:10:40Z</time>
      </trkpt>
      <trkpt lat="47.64485" lon="6.18035">
        <ele>223.1</ele>
        <time>2022-01-23T16:10:42Z</time>
      </trkpt>
      <trkpt lat="47.64488" lon="6.1804">
        <ele>223.2</ele>
        <time>2022-01-23T16:10:44Z</time>
      </trkpt>
      <trkpt lat="47.64494" lon="6.18045">
        <ele>223.5</ele>
        <time>2022-01-23T16:10:47Z</time>
      </trkpt>
      <trkpt lat="47.64499" lon="6.18049">
        <ele>223.7</ele>
        <time>2022-01-23T16:10:49Z</time>
      </trkpt>
      <trkpt lat="47.64504" lon="6.18051">
        <ele>224.1</ele>
        <time>2022-01-23T16:10:51Z</time>
      </trkpt>
      <trkpt lat="47.64509" lon="6.18055">
        <ele>224.6</ele>
        <time>2022-01-23T16:10:54Z</time>
      </trkpt>
      <trkpt lat="47.6451" lon="6.18062">
        <ele>224.7</ele>
        <time>2022-01-23T16:10:56Z</time>
      </trkpt>
      <trkpt lat="47.64509" lon="6.18069">
        <ele>224.5</ele>
        <time>2022-01-23T16:10:58Z</time>
      </trkpt>
      <trkpt lat="47.64507" lon="6.18079">
        <ele>224.1</ele>
        <time>2022-01-23T16:11:01Z</time>
      </trkpt>
      <trkpt lat="47.64504" lon="6.18087">
        <ele>223.6</ele>
        <time>2022-01-23T16:11:03Z</time>
      </trkpt>
      <trkpt lat="47.64501" lon="6.18097">
        <ele>223.2</ele>
        <time>2022-01-23T16:11:05Z</time>
      </trkpt>
      <trkpt lat="47.64499" lon="6.18108">
        <ele>223</ele>
        <time>2022-01-23T16:11:07Z</time>
      </trkpt>
      <trkpt lat="47.64497" lon="6.1812">
        <ele>222.9</ele>
        <time>2022-01-23T16:11:09Z</time>
      </trkpt>
      <trkpt lat="47.64495" lon="6.18132">
        <ele>223</ele>
        <time>2022-01-23T16:11:11Z</time>
      </trkpt>
      <trkpt lat="47.64494" lon="6.18143">
        <ele>223</ele>
        <time>2022-01-23T16:11:13Z</time>
      </trkpt>
      <trkpt lat="47.64496" lon="6.18154">
        <ele>222.9</ele>
        <time>2022-01-23T16:11:15Z</time>
      </trkpt>
      <trkpt lat="47.64498" lon="6.18163">
        <ele>223</ele>
        <time>2022-01-23T16:11:17Z</time>
      </trkpt>
      <trkpt lat="47.64501" lon="6.18172">
        <ele>223.4</ele>
        <time>2022-01-23T16:11:19Z</time>
      </trkpt>
      <trkpt lat="47.64502" lon="6.18181">
        <ele>224</ele>
        <time>2022-01-23T16:11:21Z</time>
      </trkpt>
      <trkpt lat="47.64499" lon="6.18191">
        <ele>223.8</ele>
        <time>2022-01-23T16:11:23Z</time>
      </trkpt>
      <trkpt lat="47.64497" lon="6.18198">
        <ele>224</ele>
        <time>2022-01-23T16:11:25Z</time>
      </trkpt>
      <trkpt lat="47.64494" lon="6.18205">
        <ele>224.3</ele>
        <time>2022-01-23T16:11:27Z</time>
      </trkpt>
      <trkpt lat="47.64492" lon="6.18212">
        <ele>224.5</ele>
        <time>2022-01-23T16:11:29Z</time>
      </trkpt>
      <trkpt lat="47.6449" lon="6.18219">
        <ele>224.7</ele>
        <time>2022-01-23T16:11:31Z</time>
      </trkpt>
      <trkpt lat="47.64487" lon="6.18226">
        <ele>224.7</ele>
        <time>2022-01-23T16:11:33Z</time>
      </trkpt>
      <trkpt lat="47.64482" lon="6.18235">
        <ele>224.5</ele>
        <time>2022-01-23T16:11:35Z</time>
      </trkpt>
      <trkpt lat="47.64477" lon="6.18243">
        <ele>223.9</ele>
        <time>2022-01-23T16:11:37Z</time>
      </trkpt>
      <trkpt lat="47.64472" lon="6.1825">
        <ele>223</ele>
        <time>2022-01-23T16:11:39Z</time>
      </trkpt>
      <trkpt lat="47.64469" lon="6.18256">
        <ele>223.3</ele>
        <time>2022-01-23T16:11:44Z</time>
      </trkpt>
      <trkpt lat="47.64465" lon="6.18262">
        <ele>223.5</ele>
        <time>2022-01-23T16:11:46Z</time>
      </trkpt>
      <trkpt lat="47.64456" lon="6.18273">
        <ele>223.6</ele>
        <time>2022-01-23T16:11:48Z</time>
      </trkpt>
      <trkpt lat="47.64451" lon="6.18279">
        <ele>223.5</ele>
        <time>2022-01-23T16:11:54Z</time>
      </trkpt>
      <trkpt lat="47.64447" lon="6.18283">
        <ele>223.4</ele>
        <time>2022-01-23T16:11:56Z</time>
      </trkpt>
      <trkpt lat="47.64442" lon="6.18288">
        <ele>223.3</ele>
        <time>2022-01-23T16:11:58Z</time>
      </trkpt>
      <trkpt lat="47.64437" lon="6.18289">
        <ele>223.1</ele>
        <time>2022-01-23T16:11:59Z</time>
      </trkpt>
      <trkpt lat="47.6443" lon="6.18284">
        <ele>222.7</ele>
        <time>2022-01-23T16:12:01Z</time>
      </trkpt>
      <trkpt lat="47.64424" lon="6.18277">
        <ele>222.3</ele>
        <time>2022-01-23T16:12:03Z</time>
      </trkpt>
      <trkpt lat="47.6442" lon="6.18272">
        <ele>222.1</ele>
        <time>2022-01-23T16:12:04Z</time>
      </trkpt>
      <trkpt lat="47.64415" lon="6.18267">
        <ele>222</ele>
        <time>2022-01-23T16:12:06Z</time>
      </trkpt>
      <trkpt lat="47.6441" lon="6.18263">
        <ele>222</ele>
        <time>2022-01-23T16:12:08Z</time>
      </trkpt>
      <trkpt lat="47.64398" lon="6.18253">
        <ele>222</ele>
        <time>2022-01-23T16:12:09Z</time>
      </trkpt>
      <trkpt lat="47.64393" lon="6.18247">
        <ele>221.9</ele>
        <time>2022-01-23T16:12:11Z</time>
      </trkpt>
      <trkpt lat="47.64387" lon="6.18242">
        <ele>221.7</ele>
        <time>2022-01-23T16:12:13Z</time>
      </trkpt>
      <trkpt lat="47.64381" lon="6.18236">
        <ele>221.6</ele>
        <time>2022-01-23T16:12:15Z</time>
      </trkpt>
      <trkpt lat="47.64376" lon="6.1823">
        <ele>221.6</ele>
        <time>2022-01-23T16:12:17Z</time>
      </trkpt>
      <trkpt lat="47.64371" lon="6.18223">
        <ele>221.7</ele>
        <time>2022-01-23T16:12:19Z</time>
      </trkpt>
      <trkpt lat="47.64366" lon="6.18217">
        <ele>221.8</ele>
        <time>2022-01-23T16:12:21Z</time>
      </trkpt>
      <trkpt lat="47.6436" lon="6.18211">
        <ele>222</ele>
        <time>2022-01-23T16:12:23Z</time>
      </trkpt>
      <trkpt lat="47.64356" lon="6.18207">
        <ele>222.1</ele>
        <time>2022-01-23T16:12:25Z</time>
      </trkpt>
      <trkpt lat="47.64351" lon="6.18203">
        <ele>222.3</ele>
        <time>2022-01-23T16:12:28Z</time>
      </trkpt>
      <trkpt lat="47.64346" lon="6.18199">
        <ele>222.5</ele>
        <time>2022-01-23T16:12:32Z</time>
      </trkpt>
      <trkpt lat="47.64341" lon="6.18193">
        <ele>222.7</ele>
        <time>2022-01-23T16:12:35Z</time>
      </trkpt>
      <trkpt lat="47.64336" lon="6.18188">
        <ele>222.7</ele>
        <time>2022-01-23T16:12:38Z</time>
      </trkpt>
      <trkpt lat="47.64332" lon="6.18185">
        <ele>222.7</ele>
        <time>2022-01-23T16:12:40Z</time>
      </trkpt>
      <trkpt lat="47.64327" lon="6.18183">
        <ele>222.6</ele>
        <time>2022-01-23T16:12:45Z</time>
      </trkpt>
      <trkpt lat="47.64317" lon="6.18181">
        <ele>222.5</ele>
        <time>2022-01-23T16:12:49Z</time>
      </trkpt>
      <trkpt lat="47.6431" lon="6.18183">
        <ele>222.6</ele>
        <time>2022-01-23T16:12:51Z</time>
      </trkpt>
      <trkpt lat="47.64296" lon="6.18186">
        <ele>222.7</ele>
        <time>2022-01-23T16:12:52Z</time>
      </trkpt>
      <trkpt lat="47.643" lon="6.18191">
        <ele>222.9</ele>
        <time>2022-01-23T16:12:58Z</time>
      </trkpt>
      <trkpt lat="47.64305" lon="6.1819">
        <ele>222.8</ele>
        <time>2022-01-23T16:13:01Z</time>
      </trkpt>
      <trkpt lat="47.64312" lon="6.18188">
        <ele>222.8</ele>
        <time>2022-01-23T16:13:03Z</time>
      </trkpt>
      <trkpt lat="47.64319" lon="6.18187">
        <ele>222.7</ele>
        <time>2022-01-23T16:13:05Z</time>
      </trkpt>
      <trkpt lat="47.64325" lon="6.18187">
        <ele>222.7</ele>
        <time>2022-01-23T16:13:07Z</time>
      </trkpt>
      <trkpt lat="47.6433" lon="6.18186">
        <ele>222.7</ele>
        <time>2022-01-23T16:13:10Z</time>
      </trkpt>
      <trkpt lat="47.64335" lon="6.18183">
        <ele>222.5</ele>
        <time>2022-01-23T16:13:15Z</time>
      </trkpt>
      <trkpt lat="47.64341" lon="6.18183">
        <ele>222.4</ele>
        <time>2022-01-23T16:13:18Z</time>
      </trkpt>
      <trkpt lat="47.64345" lon="6.18185">
        <ele>222.4</ele>
        <time>2022-01-23T16:13:51Z</time>
      </trkpt>
      <trkpt lat="47.6435" lon="6.18189">
        <ele>222.3</ele>
        <time>2022-01-23T16:15:12Z</time>
      </trkpt>
      <trkpt lat="47.64354" lon="6.18195">
        <ele>222.3</ele>
        <time>2022-01-23T16:15:15Z</time>
      </trkpt>
      <trkpt lat="47.64358" lon="6.18202">
        <ele>222.1</ele>
        <time>2022-01-23T16:15:18Z</time>
      </trkpt>
      <trkpt lat="47.64362" lon="6.18209">
        <ele>222</ele>
        <time>2022-01-23T16:15:21Z</time>
      </trkpt>
      <trkpt lat="47.64366" lon="6.18215">
        <ele>221.8</ele>
        <time>2022-01-23T16:15:23Z</time>
      </trkpt>
      <trkpt lat="47.64371" lon="6.18222">
        <ele>221.6</ele>
        <time>2022-01-23T16:15:25Z</time>
      </trkpt>
      <trkpt lat="47.64376" lon="6.18228">
        <ele>221.6</ele>
        <time>2022-01-23T16:15:27Z</time>
      </trkpt>
      <trkpt lat="47.64382" lon="6.18235">
        <ele>221.6</ele>
        <time>2022-01-23T16:15:29Z</time>
      </trkpt>
      <trkpt lat="47.64388" lon="6.18242">
        <ele>221.7</ele>
        <time>2022-01-23T16:15:31Z</time>
      </trkpt>
      <trkpt lat="47.64393" lon="6.18249">
        <ele>222</ele>
        <time>2022-01-23T16:15:33Z</time>
      </trkpt>
      <trkpt lat="47.64399" lon="6.18256">
        <ele>222</ele>
        <time>2022-01-23T16:15:35Z</time>
      </trkpt>
      <trkpt lat="47.64404" lon="6.18262">
        <ele>222</ele>
        <time>2022-01-23T16:15:37Z</time>
      </trkpt>
      <trkpt lat="47.64409" lon="6.18266">
        <ele>222</ele>
        <time>2022-01-23T16:15:39Z</time>
      </trkpt>
      <trkpt lat="47.64413" lon="6.18271">
        <ele>222</ele>
        <time>2022-01-23T16:15:41Z</time>
      </trkpt>
      <trkpt lat="47.64418" lon="6.18277">
        <ele>222</ele>
        <time>2022-01-23T16:15:43Z</time>
      </trkpt>
      <trkpt lat="47.64422" lon="6.18282">
        <ele>222.4</ele>
        <time>2022-01-23T16:15:45Z</time>
      </trkpt>
      <trkpt lat="47.64427" lon="6.18287">
        <ele>222.7</ele>
        <time>2022-01-23T16:15:47Z</time>
      </trkpt>
      <trkpt lat="47.64433" lon="6.18292">
        <ele>223.1</ele>
        <time>2022-01-23T16:15:49Z</time>
      </trkpt>
      <trkpt lat="47.64435" lon="6.18299">
        <ele>223.4</ele>
        <time>2022-01-23T16:15:51Z</time>
      </trkpt>
      <trkpt lat="47.64432" lon="6.18306">
        <ele>223.6</ele>
        <time>2022-01-23T16:15:54Z</time>
      </trkpt>
      <trkpt lat="47.64428" lon="6.1831">
        <ele>223.6</ele>
        <time>2022-01-23T16:15:56Z</time>
      </trkpt>
      <trkpt lat="47.64423" lon="6.18314">
        <ele>223.6</ele>
        <time>2022-01-23T16:15:58Z</time>
      </trkpt>
      <trkpt lat="47.64419" lon="6.18317">
        <ele>223.5</ele>
        <time>2022-01-23T16:16:00Z</time>
      </trkpt>
      <trkpt lat="47.64414" lon="6.18321">
        <ele>223.5</ele>
        <time>2022-01-23T16:16:02Z</time>
      </trkpt>
      <trkpt lat="47.64409" lon="6.18325">
        <ele>223.4</ele>
        <time>2022-01-23T16:16:04Z</time>
      </trkpt>
      <trkpt lat="47.64404" lon="6.1833">
        <ele>223.4</ele>
        <time>2022-01-23T16:16:06Z</time>
      </trkpt>
      <trkpt lat="47.644" lon="6.18335">
        <ele>223.5</ele>
        <time>2022-01-23T16:16:08Z</time>
      </trkpt>
      <trkpt lat="47.64395" lon="6.1834">
        <ele>223.5</ele>
        <time>2022-01-23T16:16:10Z</time>
      </trkpt>
      <trkpt lat="47.64391" lon="6.18345">
        <ele>223.6</ele>
        <time>2022-01-23T16:16:12Z</time>
      </trkpt>
      <trkpt lat="47.64388" lon="6.1835">
        <ele>223.5</ele>
        <time>2022-01-23T16:16:14Z</time>
      </trkpt>
      <trkpt lat="47.64383" lon="6.18354">
        <ele>223.5</ele>
        <time>2022-01-23T16:16:16Z</time>
      </trkpt>
      <trkpt lat="47.64378" lon="6.18357">
        <ele>223.5</ele>
        <time>2022-01-23T16:16:18Z</time>
      </trkpt>
      <trkpt lat="47.64374" lon="6.18361">
        <ele>223.4</ele>
        <time>2022-01-23T16:16:20Z</time>
      </trkpt>
      <trkpt lat="47.64369" lon="6.18364">
        <ele>223.4</ele>
        <time>2022-01-23T16:16:22Z</time>
      </trkpt>
      <trkpt lat="47.64365" lon="6.18367">
        <ele>223.4</ele>
        <time>2022-01-23T16:16:24Z</time>
      </trkpt>
      <trkpt lat="47.64362" lon="6.18373">
        <ele>223.4</ele>
        <time>2022-01-23T16:16:26Z</time>
      </trkpt>
      <trkpt lat="47.64358" lon="6.1838">
        <ele>223.6</ele>
        <time>2022-01-23T16:16:28Z</time>
      </trkpt>
      <trkpt lat="47.64356" lon="6.18386">
        <ele>223.7</ele>
        <time>2022-01-23T16:16:30Z</time>
      </trkpt>
      <trkpt lat="47.64352" lon="6.18394">
        <ele>224</ele>
        <time>2022-01-23T16:16:32Z</time>
      </trkpt>
      <trkpt lat="47.64349" lon="6.184">
        <ele>224.2</ele>
        <time>2022-01-23T16:16:34Z</time>
      </trkpt>
      <trkpt lat="47.64346" lon="6.18407">
        <ele>224.4</ele>
        <time>2022-01-23T16:16:36Z</time>
      </trkpt>
      <trkpt lat="47.64343" lon="6.18413">
        <ele>224.5</ele>
        <time>2022-01-23T16:16:38Z</time>
      </trkpt>
      <trkpt lat="47.6434" lon="6.1842">
        <ele>224.5</ele>
        <time>2022-01-23T16:16:40Z</time>
      </trkpt>
      <trkpt lat="47.64337" lon="6.18427">
        <ele>224.3</ele>
        <time>2022-01-23T16:16:46Z</time>
      </trkpt>
      <trkpt lat="47.64334" lon="6.18433">
        <ele>224</ele>
        <time>2022-01-23T16:16:48Z</time>
      </trkpt>
      <trkpt lat="47.6433" lon="6.18439">
        <ele>223.9</ele>
        <time>2022-01-23T16:16:49Z</time>
      </trkpt>
      <trkpt lat="47.64328" lon="6.18445">
        <ele>223.8</ele>
        <time>2022-01-23T16:16:51Z</time>
      </trkpt>
      <trkpt lat="47.64324" lon="6.18453">
        <ele>223.9</ele>
        <time>2022-01-23T16:16:53Z</time>
      </trkpt>
      <trkpt lat="47.64321" lon="6.18461">
        <ele>223.9</ele>
        <time>2022-01-23T16:16:56Z</time>
      </trkpt>
      <trkpt lat="47.64318" lon="6.18468">
        <ele>223.8</ele>
        <time>2022-01-23T16:16:57Z</time>
      </trkpt>
      <trkpt lat="47.64316" lon="6.18475">
        <ele>223.7</ele>
        <time>2022-01-23T16:16:59Z</time>
      </trkpt>
      <trkpt lat="47.64316" lon="6.18484">
        <ele>223.7</ele>
        <time>2022-01-23T16:17:00Z</time>
      </trkpt>
      <trkpt lat="47.64317" lon="6.1849">
        <ele>223.9</ele>
        <time>2022-01-23T16:17:02Z</time>
      </trkpt>
      <trkpt lat="47.6432" lon="6.18496">
        <ele>224</ele>
        <time>2022-01-23T16:17:03Z</time>
      </trkpt>
      <trkpt lat="47.64322" lon="6.18505">
        <ele>224.2</ele>
        <time>2022-01-23T16:17:05Z</time>
      </trkpt>
      <trkpt lat="47.64325" lon="6.18515">
        <ele>224.4</ele>
        <time>2022-01-23T16:17:07Z</time>
      </trkpt>
      <trkpt lat="47.64331" lon="6.18528">
        <ele>224.8</ele>
        <time>2022-01-23T16:17:12Z</time>
      </trkpt>
      <trkpt lat="47.64335" lon="6.18529">
        <ele>225.1</ele>
        <time>2022-01-23T16:17:16Z</time>
      </trkpt>
      <trkpt lat="47.64341" lon="6.1853">
        <ele>225.5</ele>
        <time>2022-01-23T16:17:20Z</time>
      </trkpt>
      <trkpt lat="47.64346" lon="6.18531">
        <ele>225.7</ele>
        <time>2022-01-23T16:17:20Z</time>
      </trkpt>
      <trkpt lat="47.6435" lon="6.18537">
        <ele>225.6</ele>
        <time>2022-01-23T16:17:25Z</time>
      </trkpt>
      <trkpt lat="47.64353" lon="6.18543">
        <ele>225.5</ele>
        <time>2022-01-23T16:17:32Z</time>
      </trkpt>
      <trkpt lat="47.64357" lon="6.18547">
        <ele>225.4</ele>
        <time>2022-01-23T16:17:36Z</time>
      </trkpt>
      <trkpt lat="47.64361" lon="6.18551">
        <ele>225.3</ele>
        <time>2022-01-23T16:17:39Z</time>
      </trkpt>
      <trkpt lat="47.64365" lon="6.18554">
        <ele>225.3</ele>
        <time>2022-01-23T16:17:40Z</time>
      </trkpt>
      <trkpt lat="47.64368" lon="6.18559">
        <ele>225.2</ele>
        <time>2022-01-23T16:17:44Z</time>
      </trkpt>
      <trkpt lat="47.64371" lon="6.18564">
        <ele>225</ele>
        <time>2022-01-23T16:17:47Z</time>
      </trkpt>
      <trkpt lat="47.64375" lon="6.18569">
        <ele>224.8</ele>
        <time>2022-01-23T16:17:50Z</time>
      </trkpt>
      <trkpt lat="47.64381" lon="6.18575">
        <ele>224.6</ele>
        <time>2022-01-23T16:17:54Z</time>
      </trkpt>
      <trkpt lat="47.64386" lon="6.18576">
        <ele>224.7</ele>
        <time>2022-01-23T16:17:58Z</time>
      </trkpt>
      <trkpt lat="47.64391" lon="6.18577">
        <ele>224.8</ele>
        <time>2022-01-23T16:18:00Z</time>
      </trkpt>
      <trkpt lat="47.64398" lon="6.18579">
        <ele>225.2</ele>
        <time>2022-01-23T16:18:04Z</time>
      </trkpt>
      <trkpt lat="47.64408" lon="6.18579">
        <ele>225.8</ele>
        <time>2022-01-23T16:18:06Z</time>
      </trkpt>
      <trkpt lat="47.64402" lon="6.18575">
        <ele>225.8</ele>
        <time>2022-01-23T16:18:45Z</time>
      </trkpt>
      <trkpt lat="47.64395" lon="6.18572">
        <ele>225.6</ele>
        <time>2022-01-23T16:18:47Z</time>
      </trkpt>
      <trkpt lat="47.6439" lon="6.1857">
        <ele>225.5</ele>
        <time>2022-01-23T16:18:48Z</time>
      </trkpt>
      <trkpt lat="47.64383" lon="6.18566">
        <ele>225.5</ele>
        <time>2022-01-23T16:18:51Z</time>
      </trkpt>
      <trkpt lat="47.64378" lon="6.18564">
        <ele>225.4</ele>
        <time>2022-01-23T16:18:53Z</time>
      </trkpt>
      <trkpt lat="47.64373" lon="6.1856">
        <ele>225.5</ele>
        <time>2022-01-23T16:18:55Z</time>
      </trkpt>
      <trkpt lat="47.64367" lon="6.18555">
        <ele>225.4</ele>
        <time>2022-01-23T16:18:58Z</time>
      </trkpt>
      <trkpt lat="47.64362" lon="6.18552">
        <ele>225.3</ele>
        <time>2022-01-23T16:19:00Z</time>
      </trkpt>
      <trkpt lat="47.64352" lon="6.18544">
        <ele>225.4</ele>
        <time>2022-01-23T16:19:04Z</time>
      </trkpt>
      <trkpt lat="47.64343" lon="6.18538">
        <ele>225.2</ele>
        <time>2022-01-23T16:19:04Z</time>
      </trkpt>
      <trkpt lat="47.64338" lon="6.18536">
        <ele>225</ele>
        <time>2022-01-23T16:19:09Z</time>
      </trkpt>
      <trkpt lat="47.64333" lon="6.18532">
        <ele>224.8</ele>
        <time>2022-01-23T16:19:11Z</time>
      </trkpt>
      <trkpt lat="47.64323" lon="6.18518">
        <ele>224.2</ele>
        <time>2022-01-23T16:19:14Z</time>
      </trkpt>
      <trkpt lat="47.64318" lon="6.18508">
        <ele>223.9</ele>
        <time>2022-01-23T16:19:16Z</time>
      </trkpt>
      <trkpt lat="47.64314" lon="6.18487">
        <ele>223.6</ele>
        <time>2022-01-23T16:19:19Z</time>
      </trkpt>
      <trkpt lat="47.64316" lon="6.1847">
        <ele>223.7</ele>
        <time>2022-01-23T16:19:21Z</time>
      </trkpt>
      <trkpt lat="47.64318" lon="6.18456">
        <ele>223.7</ele>
        <time>2022-01-23T16:19:25Z</time>
      </trkpt>
      <trkpt lat="47.6432" lon="6.1845">
        <ele>223.6</ele>
        <time>2022-01-23T16:19:26Z</time>
      </trkpt>
      <trkpt lat="47.64327" lon="6.18436">
        <ele>223.7</ele>
        <time>2022-01-23T16:19:30Z</time>
      </trkpt>
      <trkpt lat="47.6433" lon="6.18429">
        <ele>223.8</ele>
        <time>2022-01-23T16:19:32Z</time>
      </trkpt>
      <trkpt lat="47.64336" lon="6.18416">
        <ele>224.2</ele>
        <time>2022-01-23T16:19:35Z</time>
      </trkpt>
      <trkpt lat="47.64339" lon="6.18411">
        <ele>224.2</ele>
        <time>2022-01-23T16:19:36Z</time>
      </trkpt>
      <trkpt lat="47.64344" lon="6.18402">
        <ele>224</ele>
        <time>2022-01-23T16:19:38Z</time>
      </trkpt>
      <trkpt lat="47.64346" lon="6.18396">
        <ele>223.8</ele>
        <time>2022-01-23T16:19:39Z</time>
      </trkpt>
      <trkpt lat="47.6435" lon="6.18389">
        <ele>223.6</ele>
        <time>2022-01-23T16:19:40Z</time>
      </trkpt>
      <trkpt lat="47.64353" lon="6.18383">
        <ele>223.5</ele>
        <time>2022-01-23T16:19:42Z</time>
      </trkpt>
      <trkpt lat="47.64358" lon="6.18376">
        <ele>223.4</ele>
        <time>2022-01-23T16:19:44Z</time>
      </trkpt>
      <trkpt lat="47.64363" lon="6.18372">
        <ele>223.5</ele>
        <time>2022-01-23T16:19:45Z</time>
      </trkpt>
      <trkpt lat="47.64368" lon="6.18369">
        <ele>223.6</ele>
        <time>2022-01-23T16:19:46Z</time>
      </trkpt>
      <trkpt lat="47.64373" lon="6.18365">
        <ele>223.6</ele>
        <time>2022-01-23T16:19:47Z</time>
      </trkpt>
      <trkpt lat="47.64378" lon="6.18361">
        <ele>223.6</ele>
        <time>2022-01-23T16:19:49Z</time>
      </trkpt>
      <trkpt lat="47.64393" lon="6.18345">
        <ele>223.6</ele>
        <time>2022-01-23T16:19:53Z</time>
      </trkpt>
      <trkpt lat="47.64405" lon="6.18332">
        <ele>223.5</ele>
        <time>2022-01-23T16:19:53Z</time>
      </trkpt>
      <trkpt lat="47.64411" lon="6.18324">
        <ele>223.5</ele>
        <time>2022-01-23T16:19:55Z</time>
      </trkpt>
      <trkpt lat="47.64416" lon="6.18318">
        <ele>223.4</ele>
        <time>2022-01-23T16:20:01Z</time>
      </trkpt>
      <trkpt lat="47.64423" lon="6.18312">
        <ele>223.5</ele>
        <time>2022-01-23T16:20:03Z</time>
      </trkpt>
      <trkpt lat="47.64428" lon="6.18307">
        <ele>223.5</ele>
        <time>2022-01-23T16:20:04Z</time>
      </trkpt>
      <trkpt lat="47.64433" lon="6.18301">
        <ele>223.4</ele>
        <time>2022-01-23T16:20:06Z</time>
      </trkpt>
      <trkpt lat="47.64439" lon="6.18301">
        <ele>223.6</ele>
        <time>2022-01-23T16:20:09Z</time>
      </trkpt>
      <trkpt lat="47.64434" lon="6.18316">
        <ele>224.2</ele>
        <time>2022-01-23T16:20:15Z</time>
      </trkpt>
      <trkpt lat="47.64431" lon="6.18321">
        <ele>224.3</ele>
        <time>2022-01-23T16:20:15Z</time>
      </trkpt>
    </trkseg>
  </trk>
</gpx>